[[{"header":{"parameterUnit":"m.s-1","parameterCategory":1,"la1":30.6,"la2":29.2853,"lo1":-89.7004,"lo2":-87.6739,"dy":0.0162,"dx":0.0183,"nx":112,"ny":82,"refTime":"2023-05-13T06:00:00:Z","depth":0,"parameterNumber":2,"parameterNumberName":"U-component_of_WINDS"},"data":[0.0,0.0,0.0,0.0,0.0,0.0,0.0,0.0,0.0,0.0,0.0,0.0,0.0,0.0,0.0,0.0,0.0,0.0,0.0,0.0,0.0,0.0,0.0,0.0,0.0,0.0,0.0,0.0,0.0,0.0,0.0,0.0,0.0,0.0,0.0,0.0,0.0,0.0,0.0,0.0,0.0,0.0,0.0,0.0,0.0,0.0,0.0,0.0,0.0,0.0,0.0,0.0,0.0,0.0,0.0,0.0,0.0,0.0,0.0,0.0,0.0,0.0,0.0,0.0,0.0,0.0,0.0,0.0,0.0,0.0,0.0,0.0,0.0,0.0,0.0,0.0,0.0,0.0,0.0,0.0,0.0,0.0,0.0,0.0,0.0,0.0,0.0,0.0,0.0,0.0,1.1606,1.1416,1.2232,1.3066,1.3749,1.4345,1.4693,1.4663,0.0,0.0,0.0,0.0,0.0,0.0,0.0,0.0,0.0,0.0,0.0,0.0,0.0,0.0,0.0,0.0,0.0,0.0,0.0,0.0,0.0,0.0,0.0,0.0,0.0,0.0,0.0,0.0,0.0,0.0,0.0,0.0,0.0,0.0,0.0,0.0,0.0,0.0,0.0,0.0,0.0,0.0,0.0,0.0,0.0,0.0,0.0,0.0,0.0,0.0,0.0,0.0,0.0,0.0,0.0,0.0,0.0,0.0,0.0,0.0,0.0,0.0,0.0,0.0,0.0,0.0,0.0,0.0,0.0,0.0,0.0,0.0,0.0,0.0,0.0,0.0,0.0,0.0,0.0,0.0,0.0,0.0,0.0,0.0,0.0,0.0,0.0,0.0,0.0,0.0,0.0,0.0,0.0,0.0,0.0,0.0,0.0,0.0,0.0,0.0,0.0,0.0,0.0,0.0,1.2222,1.1479,1.2238,1.2823,1.2885,1.234,1.2459,1.3559,0.0,0.0,0.0,0.0,0.0,0.0,0.0,0.0,0.0,0.0,0.0,0.0,0.0,0.0,0.0,0.0,0.0,0.0,0.0,0.0,0.0,0.0,0.0,0.0,0.0,0.0,0.0,0.0,0.0,0.0,0.0,0.0,0.0,0.0,0.0,0.0,0.0,0.0,0.0,0.0,0.0,0.0,0.0,0.0,0.0,0.0,0.0,0.0,0.0,0.0,0.0,0.0,0.0,0.0,0.0,0.0,0.0,0.0,0.0,0.0,0.0,0.0,0.0,0.0,0.0,0.0,0.0,0.0,0.0,0.0,0.0,0.0,0.0,0.0,0.0,0.0,0.0,0.0,0.0,0.0,0.0,0.0,0.0,0.0,0.0,0.0,0.0,0.0,0.0,0.0,0.0,0.0,0.0,0.0,0.0,0.0,0.0,0.0,0.0,0.0,0.0,0.0,0.0,1.2273,1.1721,1.0848,1.1554,1.2077,1.2009,1.1632,1.1958,1.3263,1.3364,0.0,0.0,0.0,0.0,0.0,0.0,0.0,0.0,0.0,0.0,0.0,0.0,0.0,0.0,0.0,0.0,0.0,0.0,0.0,0.0,0.0,0.0,0.0,0.0,0.0,0.0,0.0,0.0,0.0,0.0,0.0,0.0,0.0,0.0,0.0,0.0,0.0,0.0,0.0,0.0,0.0,0.0,0.0,0.0,0.0,0.0,0.0,0.0,0.0,0.0,0.0,0.0,0.0,0.0,0.0,0.0,0.0,0.0,0.0,0.0,0.0,0.0,0.0,0.0,0.0,0.0,0.0,0.0,0.0,0.0,0.0,0.0,0.0,0.0,0.0,0.0,0.0,0.0,0.0,0.0,0.0,0.0,0.0,0.0,0.0,0.0,0.0,0.0,0.0,0.0,0.0,0.0,0.0,0.0,0.0,0.0,0.0,0.0,0.0,0.0,0.0,0.0,1.1404,1.0933,1.0275,1.0629,1.0881,1.082,1.0747,1.1256,1.2595,1.2294,0.0,0.0,0.0,0.0,0.0,0.0,0.0,0.0,0.0,0.0,0.0,0.0,0.0,0.0,0.0,0.0,0.0,0.0,0.0,0.0,0.0,0.0,0.0,0.0,0.0,0.0,0.0,0.0,0.0,0.0,0.0,0.0,0.0,0.0,0.0,0.0,0.0,0.0,0.0,0.0,0.0,0.0,0.0,0.0,0.0,0.0,0.0,0.0,0.0,0.0,0.0,0.0,0.0,0.0,0.0,0.0,0.0,0.0,0.0,0.0,0.0,0.0,0.0,0.0,0.0,0.0,0.0,0.0,0.0,0.0,0.0,0.0,0.0,0.0,0.0,0.0,0.0,0.0,0.0,0.0,0.0,0.0,0.0,0.0,0.0,0.0,0.0,0.0,0.0,0.0,0.0,0.0,0.0,0.0,0.0,0.0,0.0,0.0,0.0,0.0,0.0,0.0,1.1243,1.0275,1.0214,0.9579,0.914,0.9078,0.8792,0.9258,1.0794,1.1758,0.0,0.0,0.0,0.0,0.0,0.0,0.0,0.0,0.0,0.0,0.0,0.0,0.0,0.0,0.0,0.0,0.0,0.0,0.0,0.0,0.0,0.0,0.0,0.0,0.0,0.0,0.0,0.0,0.0,0.0,0.0,0.0,0.0,0.0,0.0,0.0,0.0,0.0,0.0,0.0,0.0,0.0,0.0,0.0,0.0,0.0,0.0,0.0,0.0,0.0,0.0,0.0,0.0,0.0,0.0,0.0,0.0,0.0,0.0,0.0,0.0,0.0,0.0,0.0,0.0,0.0,0.0,0.0,0.0,0.0,0.0,0.0,0.0,0.0,0.0,0.0,0.0,0.0,0.0,0.0,0.0,0.0,0.0,0.0,0.0,0.0,0.0,0.0,0.0,0.0,0.0,0.0,0.0,0.0,0.0,0.0,0.0,0.0,0.0,0.0,0.0,0.0,1.1718,1.0841,0.0,0.9479,0.9176,0.9613,0.8998,0.9388,1.1265,0.0,0.0,0.0,0.0,0.0,0.0,0.0,0.0,0.0,0.0,0.0,0.0,0.0,0.0,0.0,0.0,0.0,0.0,0.0,0.0,0.0,0.0,0.0,0.0,0.0,0.0,0.0,0.0,0.0,0.0,0.0,0.0,0.0,0.0,0.0,0.0,0.0,0.0,0.0,0.0,0.0,0.0,0.0,0.0,0.0,0.0,0.0,0.0,0.0,0.0,0.0,0.0,0.0,0.0,0.0,0.0,0.0,0.0,0.0,0.0,0.0,0.0,0.0,0.0,0.0,0.0,0.0,0.0,0.0,0.0,0.0,0.0,0.0,0.0,0.0,0.0,0.0,0.0,0.0,0.0,0.0,0.0,0.0,0.0,0.0,0.0,0.0,0.0,0.0,0.0,0.0,0.0,0.0,0.0,0.0,0.0,0.0,0.0,0.0,0.0,0.0,0.0,1.2754,1.1786,1.0818,0.0,0.9294,0.903,0.926,0.866,0.9176,1.1265,0.0,0.0,0.0,0.0,0.0,0.0,0.0,0.0,0.0,0.0,0.0,0.0,0.0,0.0,0.0,0.0,0.0,0.0,0.0,0.0,0.0,0.0,0.0,0.0,0.0,0.0,0.0,0.0,0.0,0.0,0.0,0.0,0.0,0.0,0.0,0.0,0.0,0.0,0.0,0.0,0.0,0.0,0.0,0.0,0.0,0.0,0.0,0.0,0.0,0.0,0.0,0.0,0.0,0.0,0.0,0.0,0.0,0.0,0.0,0.0,0.0,0.0,0.0,0.0,0.0,0.0,0.0,0.0,0.0,0.0,0.0,0.0,0.0,0.0,0.0,0.0,0.0,0.0,0.0,0.0,0.0,0.0,0.0,0.0,0.0,0.0,0.0,0.0,0.0,0.0,0.0,0.0,0.0,0.0,0.0,0.0,0.0,0.0,0.0,0.0,0.0,0.0,1.2798,1.1283,0.9902,0.9093,0.8883,0.8456,0.7595,0.7446,0.8293,0.0,0.0,0.0,0.0,0.0,0.0,0.0,0.0,0.0,0.0,0.0,0.0,0.0,0.0,0.0,0.0,0.0,0.0,0.0,0.0,0.0,0.0,0.0,0.0,0.0,0.0,0.0,0.0,0.0,0.0,0.0,0.0,0.0,0.0,0.0,0.0,0.0,0.0,0.0,0.0,0.0,0.0,0.0,0.0,0.0,0.0,0.0,0.0,0.0,0.0,0.0,0.0,0.0,0.0,0.0,0.0,0.0,0.0,0.0,0.0,0.0,0.0,0.0,0.0,0.0,0.0,0.0,0.0,0.0,0.0,0.0,0.0,0.0,0.0,0.0,0.0,0.0,0.0,0.0,0.0,0.0,0.0,0.0,0.0,0.0,0.0,0.0,0.0,0.0,0.0,0.0,0.0,0.0,0.0,0.0,0.0,0.0,0.0,0.0,0.0,0.0,0.0,0.0,1.2878,1.1287,1.0112,0.9871,0.9211,0.8905,0.9179,0.839,0.8837,1.1058,0.0,0.0,0.0,0.0,0.0,0.0,0.0,0.0,0.0,0.0,0.0,0.0,0.0,0.0,0.0,0.0,0.0,0.0,0.0,0.0,0.0,0.0,0.0,0.0,0.0,0.0,0.0,0.0,0.0,0.0,0.0,0.0,0.0,0.0,0.0,0.0,0.0,0.0,0.0,0.0,0.0,0.0,0.0,0.0,0.0,0.0,0.0,0.0,0.0,0.0,0.0,0.0,0.0,0.0,0.0,0.0,0.0,0.0,0.0,0.0,0.0,0.0,0.0,0.0,0.0,0.0,0.0,0.0,0.0,0.0,0.0,0.0,0.0,0.0,0.0,0.0,0.0,0.0,0.0,0.0,0.0,0.0,0.0,0.0,0.0,0.0,0.0,0.0,0.0,0.0,0.0,0.0,0.0,0.0,0.0,0.0,0.0,0.0,0.0,0.0,0.0,0.0,1.2944,1.1283,1.0059,0.9691,0.9405,0.9265,0.9333,0.8894,0.9372,1.1158,0.0,0.0,0.0,0.0,0.0,0.0,0.0,0.0,0.0,0.0,0.0,0.0,0.0,0.0,0.0,0.0,0.0,0.0,0.0,0.0,0.0,0.0,0.0,0.0,0.0,0.0,0.0,0.0,0.0,0.0,0.0,0.0,0.0,0.0,0.0,0.0,0.0,0.0,0.0,0.0,0.0,0.0,0.0,0.0,0.0,0.0,0.0,0.0,0.0,0.0,0.0,0.0,0.0,0.0,0.0,0.0,0.0,0.0,0.0,0.0,0.0,0.0,0.0,0.0,0.0,0.0,0.0,0.0,0.0,0.0,0.0,0.0,0.0,0.0,0.0,0.0,0.0,0.0,0.0,0.0,0.0,0.0,0.0,0.0,0.0,0.0,0.0,0.0,0.0,0.0,0.0,0.0,0.0,0.0,0.0,0.0,0.0,0.0,0.0,0.0,0.0,0.0,1.3008,1.1322,0.9865,0.9019,0.9513,0.9551,0.8674,0.9099,0.9823,1.0806,0.0,0.0,0.0,0.0,0.0,0.0,0.0,0.0,0.0,0.0,0.0,0.0,0.0,0.0,0.0,0.0,0.0,0.0,0.0,0.0,0.0,0.0,0.0,0.0,0.0,0.0,0.0,0.0,0.0,0.0,0.0,0.0,0.0,0.0,0.0,0.0,0.0,0.0,0.0,0.0,0.0,0.0,0.0,0.0,0.0,0.0,0.0,0.0,0.0,0.0,0.0,0.0,0.0,0.0,0.0,0.0,0.0,0.0,0.0,0.0,1.0788,0.0,0.0,0.0,0.0,0.0,0.0,0.0,0.0,0.0,0.0,0.0,0.0,0.0,0.0,0.0,0.0,0.0,0.0,0.0,0.0,0.0,0.0,0.0,0.0,0.0,0.0,0.0,0.0,0.0,0.0,0.0,0.0,0.0,0.0,0.0,0.0,0.0,0.0,0.0,0.0,0.0,1.3086,1.1329,1.0103,0.984,0.9862,0.975,0.939,0.939,0.9765,1.0616,1.0756,0.0,0.0,0.0,0.0,0.0,0.0,0.0,0.0,0.0,0.0,0.0,0.0,0.0,0.0,0.0,0.0,0.0,0.0,0.0,0.0,0.0,0.0,0.0,0.0,0.0,0.0,0.0,0.0,0.0,0.0,0.0,0.0,0.0,0.0,0.0,0.0,0.0,0.0,0.0,0.0,0.0,0.0,0.0,0.0,0.0,0.0,0.0,0.0,0.0,0.0,0.0,0.0,0.0,0.0,0.0,0.0,0.0,0.0,0.0,0.0,1.0013,0.0,0.0,0.0,0.0,0.0,0.0,0.0,0.0,0.0,0.0,0.0,0.0,0.0,0.0,0.0,0.0,0.0,0.0,0.0,0.0,0.0,0.0,0.0,0.0,0.0,0.0,0.0,0.0,0.0,0.0,0.0,0.0,0.0,0.0,0.0,0.0,0.0,0.0,0.0,0.0,1.302,1.1307,1.0152,1.0018,0.9888,0.9729,0.9563,0.9368,0.9454,0.9902,1.0138,0.0,0.0,0.0,0.0,0.0,0.0,0.0,0.0,0.0,0.0,0.0,0.0,0.0,0.0,0.0,0.0,0.0,0.0,0.0,0.0,0.0,0.0,0.0,0.0,0.0,0.0,0.0,0.0,0.0,0.0,0.0,0.0,0.0,0.0,0.0,0.0,0.0,0.0,0.0,0.0,0.0,0.0,0.0,0.0,0.0,0.0,0.0,0.0,0.0,0.0,0.0,0.0,0.0,0.8715,0.9069,0.9687,0.9687,0.9399,0.8925,0.945,0.9382,0.9043,1.1043,0.0,0.0,0.0,0.0,0.0,0.0,0.0,0.0,0.0,0.0,0.0,0.0,0.0,0.0,0.0,0.0,0.0,0.0,0.0,0.0,0.0,0.0,0.0,0.0,1.5204,1.5804,1.6706,0.0,0.0,0.0,0.0,0.0,0.0,0.0,0.0,0.0,0.0,0.0,1.273,1.1163,1.0106,0.9919,0.9767,0.9618,0.9473,0.9237,0.9185,0.9394,0.9726,1.0365,0.0,0.0,0.0,0.0,0.0,0.0,0.0,0.0,0.0,0.0,0.0,0.0,0.0,0.0,0.0,0.0,0.0,0.0,0.0,0.0,0.0,0.0,0.0,0.0,0.0,0.0,0.0,0.0,0.0,0.0,0.0,0.0,1.0229,1.6073,0.0,0.0,0.0,0.0,0.0,0.0,0.0,0.0,0.0,0.0,0.0,0.0,0.0,0.9284,0.8706,0.8692,0.8463,0.804,0.804,0.9709,1.2803,1.2803,1.1381,0.9044,1.1669,0.0,0.8925,0.9244,0.0,0.0,0.0,0.0,0.0,0.0,0.0,0.0,0.0,0.0,0.0,0.0,0.0,0.0,0.0,0.0,0.0,0.0,0.0,0.0,0.0,0.0,1.4755,1.4585,1.4349,1.4311,0.0,1.6308,1.7593,1.7619,1.7848,0.0,0.0,0.0,0.0,0.0,0.0,0.0,1.1972,1.076,1.0055,0.9907,0.9731,0.9536,0.9349,0.9179,0.9433,1.0199,1.0284,1.1083,1.2784,1.4074,0.0,0.0,0.0,0.0,0.0,0.0,0.0,0.0,0.0,0.0,0.0,0.0,0.0,0.0,0.0,0.0,0.0,0.0,0.0,0.0,0.0,0.0,0.0,0.0,0.0,0.0,0.0,0.0,0.0,1.0013,0.994,1.5503,1.4632,1.4248,0.0,0.0,0.0,0.0,0.0,0.0,0.0,0.0,0.0,1.0287,1.0445,1.0395,1.0084,1.0084,1.0084,1.0084,1.0084,1.125,1.3396,1.3396,1.2685,1.1499,1.2837,1.2306,1.0409,0.8942,0.9827,1.2138,0.0,0.0,0.0,0.0,1.3329,1.3547,1.3989,1.4281,0.0,1.552,0.0,0.0,0.0,0.0,0.0,0.0,0.0,0.0,0.0,0.0,1.5337,1.4329,1.3997,1.3955,1.4123,1.4824,1.5658,0.0,1.7175,1.7953,1.8746,0.0,0.0,0.0,0.0,1.316,1.1537,1.0579,0.9957,0.9752,0.9583,0.9402,0.9199,0.9057,0.9333,1.0115,1.0183,1.0846,1.2372,1.3774,1.4555,0.0,0.0,0.0,0.0,0.0,0.0,0.0,0.0,0.0,0.0,0.0,0.0,0.0,0.0,0.0,0.0,0.0,0.0,0.0,0.0,0.0,0.0,0.0,0.0,0.0,0.0,0.0,0.0,1.1081,1.072,1.4003,1.2736,1.2701,0.0,0.0,0.0,0.0,0.0,0.0,1.0739,1.0207,0.9432,0.8444,1.0136,1.1298,1.1805,1.2478,1.2807,1.2807,1.2119,1.2215,1.298,1.298,1.298,1.298,1.298,1.2533,1.1655,0.9695,0.9635,1.0882,1.1816,1.2463,1.2931,1.3131,1.3423,1.3804,1.4529,1.4903,1.5166,1.5899,1.6245,1.6457,1.6816,0.0,0.0,0.0,0.0,1.8272,1.6863,1.6283,1.5702,1.4309,1.3861,1.3801,1.3885,1.3899,1.4181,0.0,1.6215,1.7102,1.7927,0.0,0.0,0.0,0.0,1.23,1.0986,1.0279,0.9869,0.9824,0.969,0.9612,0.9661,0.9532,0.9789,1.0541,1.0592,1.1081,1.214,1.3627,1.4652,1.5117,0.0,0.0,0.0,0.0,0.0,0.0,0.0,0.0,0.0,0.0,0.0,0.0,0.0,0.0,0.0,0.0,0.0,0.0,0.0,0.0,0.0,0.0,0.0,0.0,0.0,0.0,0.0,0.0,0.0,1.0619,1.1855,0.0,0.0,0.0,0.0,1.011,0.807,0.8702,1.281,1.1048,0.9868,0.9805,0.9316,0.9925,1.179,1.433,1.5604,1.5574,1.3026,1.1826,1.1876,1.1876,1.1876,1.1876,1.1876,1.1854,1.179,1.1655,1.0219,0.8349,1.0852,1.2606,1.3755,1.3955,1.4265,1.4574,1.4875,1.4822,1.4754,1.5495,1.6504,1.7507,1.7966,1.8223,0.0,0.0,1.7471,1.7188,1.599,1.5262,1.4813,1.4538,1.3939,1.351,1.3827,1.3856,1.3899,0.0,1.4441,1.487,1.5865,0.0,1.5571,1.3971,1.363,1.2621,1.0098,0.9691,0.9834,1.0383,1.028,1.044,1.1136,1.1073,1.1333,1.2128,1.2178,1.2405,1.2914,1.4295,1.5021,1.4924,1.6368,0.0,0.0,0.0,0.0,0.0,0.0,0.0,0.0,0.0,0.0,0.0,0.0,0.0,0.0,0.0,0.0,0.0,0.0,0.0,0.0,0.0,0.0,0.0,0.0,0.0,0.0,0.0,0.0,1.2697,1.285,0.0,1.3798,1.3008,1.1735,1.0033,0.9177,0.9416,1.0998,1.167,1.1387,0.9943,0.9664,1.056,1.2691,1.2237,1.2713,1.4122,1.2542,1.1805,1.1805,1.1805,1.1805,1.1895,1.3615,1.3376,1.1925,1.3645,1.2816,1.0668,1.334,1.3113,1.1527,1.3557,1.4374,1.4582,1.5531,1.5581,1.5376,1.5868,1.5987,1.6022,1.6397,1.6881,1.7247,1.6961,1.7096,1.7231,1.6742,1.6,1.5354,1.5277,1.4374,1.3598,1.3898,1.3616,1.3378,1.3754,1.4167,1.4726,1.5563,1.5431,1.4952,1.4227,1.3651,1.2694,1.1075,1.0885,1.0923,1.1012,1.0944,1.0994,1.1158,1.1138,1.1434,1.2246,1.2297,1.269,1.3618,1.4163,1.4749,1.5406,1.6524,1.6824,0.0,0.0,0.0,0.0,0.0,0.0,0.0,0.0,0.0,0.0,0.0,0.0,0.0,0.0,0.0,0.0,0.0,0.0,0.0,0.0,0.0,0.0,0.0,0.0,0.0,0.0,1.3432,1.414,1.3356,1.2683,1.2551,1.2146,1.137,1.0117,1.0034,1.0315,1.0994,1.2397,1.2522,1.1073,1.0295,1.0973,1.3173,1.1733,1.1357,1.209,1.145,1.185,1.3107,1.2209,1.1972,1.2378,1.4153,1.3912,1.242,1.4196,1.3869,1.2514,1.4872,1.4196,1.2156,1.4213,1.5125,1.5409,1.6176,1.6041,1.5573,1.607,1.5982,1.5746,1.6054,1.6512,1.6903,1.6847,1.6971,1.706,1.6747,1.6182,1.5597,1.5201,1.4491,1.3935,1.3967,1.3734,1.3625,1.3895,1.4076,1.4367,1.4935,1.4691,1.4299,1.3956,1.3371,1.2592,1.1494,1.1372,1.1369,1.1374,1.1451,1.161,1.1925,1.2136,1.252,1.3209,1.3225,1.3551,1.4214,1.4247,1.46,1.5281,1.6824,1.7228,1.6473,0.0,0.0,0.0,0.0,0.0,0.0,0.0,0.0,0.0,0.0,0.0,0.0,0.0,0.0,0.0,0.0,0.0,0.0,0.0,0.0,0.0,0.0,0.0,1.4956,1.4474,1.4199,1.4475,1.3227,1.2277,1.2105,1.0892,1.018,1.0292,1.0283,1.1153,1.3076,1.3119,1.3129,1.3129,1.1107,1.1048,1.3173,1.3198,1.2121,1.0006,1.0006,1.2021,1.5622,1.3019,1.2344,1.3198,1.3198,1.3198,1.3198,1.3198,1.3198,1.3357,1.5074,1.5712,1.5728,1.5951,1.6482,1.7086,1.6785,1.6019,1.5297,1.6098,1.6564,1.6905,1.724,1.7345,1.7305,1.7305,1.7043,1.6575,1.5762,1.5606,1.5374,1.4196,1.4251,1.446,1.4019,1.4241,1.456,1.4599,1.4084,1.3684,1.3877,1.3902,1.3683,1.2997,1.279,0.0,1.127,1.1045,1.1135,1.1516,1.1822,1.2445,1.353,1.4175,1.4666,1.5047,1.5075,1.4968,1.4735,1.4622,1.4576,1.4522,1.7138,1.8437,1.8389,0.0,0.0,0.0,0.0,0.0,0.0,0.0,0.0,0.0,0.0,0.0,0.0,0.0,0.0,0.0,0.0,0.0,0.0,0.0,0.0,0.0,0.0,1.3768,1.4259,1.4353,1.4488,1.4752,1.4031,1.3658,1.3941,1.2389,1.1039,1.0341,1.0283,1.1105,1.2882,1.1794,1.1094,1.1094,1.1858,1.2572,1.3185,1.3198,1.2885,1.2284,1.2284,1.2845,1.3875,1.3145,1.2955,1.3198,1.3198,1.3198,1.3198,1.3198,1.3198,1.3267,1.3735,1.3901,1.3908,1.3964,1.5386,1.7133,1.6487,1.6661,1.7127,1.7156,1.7456,1.7903,1.8263,1.8049,1.7551,1.6965,1.6384,1.5762,1.5002,1.4827,1.4758,1.441,1.4052,1.3909,1.4261,1.4045,1.3953,1.4491,1.4465,1.4231,1.3942,1.4213,1.4121,1.3058,1.2874,0.0,1.1899,1.2418,1.2854,1.2815,1.3524,1.4142,1.4427,1.4627,1.4708,1.4742,1.4742,1.4828,1.5052,1.4592,1.456,1.5059,1.5577,1.6439,0.0,0.0,0.0,0.0,0.0,0.0,0.0,0.0,0.0,0.0,0.0,0.0,0.0,0.0,0.0,0.0,0.0,0.0,0.0,0.0,0.0,0.0,1.3887,1.3661,1.3988,1.4147,1.4499,1.5143,1.4444,1.4082,1.4413,1.3119,1.2037,1.141,1.1377,1.1816,1.2832,1.1924,1.1377,1.1377,1.1778,1.1982,1.1982,1.1982,1.1982,1.1982,1.2791,1.3198,1.3198,1.3198,1.3198,1.3198,1.3198,1.3198,1.3198,1.3198,1.3749,0.0,0.0,0.0,0.0,0.0,1.5582,1.6911,1.6627,1.6665,1.6934,1.7161,1.756,1.7943,1.8161,1.7818,1.7221,1.6749,1.5927,1.5117,1.4943,1.4869,1.4812,1.4687,1.4634,1.4589,1.4581,1.4424,1.4371,1.4809,1.483,0.0,1.4146,1.4058,1.3752,1.2904,1.2542,1.2231,1.186,1.2289,1.2634,1.2643,1.3244,1.3728,1.3913,1.4514,0.0,0.0,0.0,1.5296,1.5211,1.474,0.0,0.0,0.0,1.6416,1.7716,0.0,0.0,0.0,2.0082,2.0488,0.0,0.0,0.0,0.0,0.0,0.0,0.0,0.0,0.0,0.0,0.0,0.0,0.0,0.0,0.0,0.0,1.4127,1.4006,1.405,1.3917,1.4205,1.5351,1.4503,1.392,1.4143,1.3382,1.2881,1.2881,1.2695,1.2676,1.2871,0.0,0.0,0.0,0.0,1.0576,1.0576,1.0576,1.0478,1.0322,1.2054,1.2978,1.321,1.3461,1.3436,1.321,1.3461,1.3574,1.3549,1.3298,1.4488,1.6278,1.4337,1.3574,1.3799,1.5793,1.6522,1.6574,1.6916,0.0,0.0,1.6683,1.7213,1.7571,1.7571,1.7146,1.6652,1.6659,1.5672,1.476,1.5283,1.5345,1.5197,1.4968,1.5447,1.5716,1.4809,1.494,1.5203,1.5148,1.5021,1.4783,1.4342,1.366,1.3039,1.2566,1.1993,1.1535,1.1314,1.1318,1.1485,1.1744,0.0,0.0,1.2955,1.4275,1.5015,1.4928,1.574,1.5968,1.535,1.5125,1.5371,1.6196,1.671,1.7351,1.8201,1.9169,1.9536,1.9349,1.8733,1.9087,0.0,0.0,0.0,0.0,0.0,0.0,0.0,0.0,0.0,0.0,0.0,0.0,0.0,0.0,0.0,1.5057,1.4049,1.3627,1.4857,1.3894,1.3564,1.4732,1.4236,1.4003,1.4514,1.3563,1.2881,1.2881,1.1582,1.1439,1.2803,1.2881,1.2881,1.2881,1.2549,1.2383,1.2383,1.2383,1.167,1.0283,0.0,0.0,1.3261,1.5039,1.4876,1.3298,1.5076,1.584,1.5702,1.3937,1.4488,1.6471,1.6045,1.584,1.589,1.6358,1.6522,1.6497,1.6596,1.676,1.6969,1.717,1.7552,1.7963,1.7963,1.753,0.0,1.6637,1.5955,1.527,1.5069,1.5006,1.4955,1.4916,1.5018,1.4954,1.4281,1.4448,1.462,1.4166,1.4312,1.4405,1.4033,1.3892,1.3375,1.2071,1.1757,1.1432,1.0681,1.1283,1.1913,1.2238,1.3053,1.3913,1.4805,1.5169,1.5401,1.5574,1.5794,1.595,1.6072,1.5786,1.5841,1.6271,1.613,1.6537,1.7494,1.7443,1.7971,1.9016,1.9658,2.0603,0.0,0.0,0.0,0.0,0.0,0.0,0.0,0.0,0.0,0.0,0.0,1.4976,0.0,0.0,1.4194,1.51,1.4131,1.3545,1.4364,1.357,1.3248,1.4143,1.3742,1.3467,1.3752,1.3248,1.2881,1.2881,1.207,1.1963,1.2832,1.2881,1.2881,1.2881,1.2881,1.2881,1.2881,1.2881,1.2441,1.1582,1.1582,1.1644,1.1796,1.289,1.28,1.1875,1.3846,1.4698,1.4722,1.4821,1.5477,1.6522,1.6522,1.6522,1.6522,1.6522,1.6522,1.6522,1.6522,1.6484,1.6532,1.7092,1.7286,1.7259,1.7259,1.6823,1.6218,1.5736,1.4943,1.4325,1.4684,1.4595,1.4464,1.4725,1.4784,1.4642,1.4085,1.4127,1.4109,1.3616,1.3447,1.3374,1.3264,1.3057,1.2615,1.1831,1.1077,1.06,1.06,1.0634,1.099,1.189,1.2186,1.2714,1.3724,1.4443,1.511,1.5755,1.5799,1.5885,1.6039,1.6067,1.6219,1.6528,1.6538,1.6885,1.7549,1.7732,1.8194,1.8934,2.0096,2.0947,0.0,0.0,0.0,0.0,0.0,0.0,0.0,0.0,1.4516,1.5126,1.4785,1.4623,1.5393,1.4508,1.3969,1.5081,1.4089,1.3346,1.3737,1.3271,1.3007,1.3188,1.3035,1.2881,1.2881,1.2881,1.2881,1.2881,1.2421,1.2116,1.2116,1.2618,1.2881,1.2881,1.2881,1.2881,1.2881,1.2881,1.2881,1.2881,1.2881,1.2148,1.0832,1.0832,1.0832,1.0869,1.2266,1.2881,1.3065,1.5017,1.5788,1.5832,1.6337,1.6522,1.6522,1.6522,1.6485,1.6461,1.6231,1.5888,1.5668,1.6532,1.6476,1.6077,1.6077,1.5782,1.5314,1.4857,1.4027,1.355,1.4451,1.4362,1.4161,1.4608,1.4698,1.4518,1.3895,1.3828,1.3718,1.3134,1.274,1.2527,1.2575,1.2139,1.1718,1.157,1.0544,1.001,1.0712,0.9979,0.9977,1.1445,1.1103,1.1264,1.2534,1.3755,1.4861,1.5839,1.5827,1.593,1.6194,1.6404,1.6741,1.7215,1.7483,1.7798,1.8141,1.8713,1.9133,1.9375,2.0578,2.1121,0.9004,1.0505,1.2406,1.3777,1.387,1.4069,0.0,0.0,1.5236,1.5777,1.5841,1.5825,1.5925,1.4728,1.4225,1.55,1.3782,1.2689,1.3883,1.3389,1.2461,1.1266,1.2197,1.2881,1.2881,1.2881,1.2881,1.2881,1.0643,0.9271,0.9271,1.1551,1.2881,1.2881,1.2881,1.2881,1.2881,1.2881,1.2881,1.2881,1.2881,1.2773,1.2588,1.2588,1.2588,1.2607,1.2793,1.2881,1.2929,1.32,1.3296,1.3525,1.5656,1.6522,1.6522,1.6522,1.6497,1.6363,1.5279,1.5097,1.5314,1.5051,1.4971,1.4869,1.4869,1.4835,1.4801,1.4732,1.4619,1.4563,1.4675,1.4664,1.4642,1.4687,1.4698,1.4427,1.3395,1.3538,1.3524,1.2594,1.2677,1.2839,1.249,1.2016,1.1527,1.1042,1.0854,1.0776,1.0806,1.0026,1.002,1.1452,1.121,1.1864,1.4042,1.4704,1.5374,1.6176,1.5955,1.6355,1.7613,1.7424,1.772,1.8736,1.8792,1.8974,1.9313,1.9396,1.9953,2.095,2.1645,2.1976,1.0157,1.0745,1.1562,0.0,1.4169,1.4275,1.5395,1.5601,1.5498,1.5367,1.4987,1.4631,1.4454,1.3645,1.3221,0.0,1.3307,1.2683,1.2931,1.294,1.2107,0.9917,1.0182,1.115,1.2725,1.1451,1.049,1.049,0.9472,0.8804,0.8804,0.988,1.125,1.2832,1.2881,1.2881,1.2881,1.2881,1.2881,1.2881,1.2881,1.2881,1.2881,1.2881,1.2881,1.2881,1.2881,1.2881,1.2881,1.2881,1.2881,1.3027,1.4025,1.4387,1.4571,1.5976,1.5629,1.4333,1.3852,1.4057,1.4592,1.4674,1.4468,1.419,1.419,1.419,1.3993,1.3215,1.3014,1.2918,1.2522,1.2715,1.3014,1.3014,1.3341,1.3511,1.3091,1.3155,1.3047,1.2368,1.2398,1.2418,1.2016,1.1787,1.149,1.0958,1.0489,1.0453,1.1274,1.0561,1.0383,1.149,1.1949,1.2677,1.3935,1.4677,1.5505,1.6471,1.6383,1.6759,1.773,1.8102,1.8489,1.892,1.9356,1.9641,1.9788,2.0267,2.0733,2.1204,2.2275,2.2734,1.0376,1.0576,0.0,1.3294,1.3931,1.4077,1.4736,1.5083,1.5094,1.4515,1.3968,1.3506,1.3178,1.2472,1.218,1.2684,1.2525,1.2052,1.1328,1.1541,1.1049,0.9061,0.8804,0.9577,1.1601,0.9984,0.8804,0.8804,0.8804,0.8804,0.8804,0.8804,0.9725,1.171,1.252,1.2881,1.2881,1.2881,1.2881,1.2881,1.2881,1.2881,1.2881,1.2881,1.2881,1.2881,1.2881,1.2881,1.2881,1.2881,1.2881,1.2881,1.2881,1.2881,1.3113,1.488,1.4387,1.2881,1.2881,1.3286,1.3836,1.4107,1.3931,1.3552,1.3552,1.3389,1.3034,1.2061,1.1665,1.1408,1.0914,1.1166,1.1516,1.1516,1.194,1.2314,1.2314,1.2314,1.222,1.1873,1.1959,1.1958,1.1583,1.1649,1.1592,1.1152,1.0459,1.0351,1.1446,1.1058,1.0929,1.1585,1.2347,1.3068,1.3703,1.4654,1.5581,1.6481,1.6814,1.7342,1.8132,1.8749,1.9233,1.9631,2.0174,2.0505,2.0627,2.1228,2.1498,2.1525,2.2571,2.3117,0.864,0.9557,1.0518,1.2055,1.2873,1.3391,1.4012,1.4022,1.3852,1.3498,1.3215,1.2929,1.2655,1.1717,1.1249,1.2081,1.1337,1.0262,0.9045,0.8917,0.891,0.8811,0.8804,0.8857,0.0,0.8857,0.8804,0.8804,0.8804,0.8804,0.8804,0.8804,0.8857,0.891,1.1501,1.2881,1.2881,1.2881,1.2881,1.2881,1.2881,1.2881,1.2881,1.2881,1.2881,1.2881,1.2881,1.2881,1.2881,1.2881,1.2881,1.2881,1.2881,1.2881,1.2929,1.2968,1.2968,1.2881,1.2881,1.2929,1.2929,1.2978,1.2929,1.2929,1.2929,1.2442,1.1864,1.1814,1.1316,1.0813,1.0813,1.0813,1.0813,1.0813,1.0864,1.0864,1.0864,1.0864,1.0864,1.0855,1.1349,1.167,1.1282,1.1761,1.2051,1.1655,1.1162,1.0884,1.0995,1.1385,1.17,1.1787,1.2152,1.28,1.3789,1.4861,1.5684,1.6102,1.7102,1.8165,1.9307,1.9355,2.0067,2.1469,2.1546,2.1774,2.2243,2.226,2.2276,2.2276,2.2573,2.2898,0.7622,0.8309,0.911,1.0561,1.129,1.1675,1.1845,1.2078,1.2035,1.1482,1.1034,1.0646,1.0364,1.0002,0.9953,1.0484,1.054,1.0483,1.0027,0.9299,0.8804,0.8804,0.8804,0.0,0.0,0.0,0.0,0.8804,0.8804,0.8804,0.8804,0.8804,0.8804,0.8804,0.9673,1.0182,1.0182,1.0182,1.1099,1.2881,1.2881,1.2881,1.2881,1.2881,1.2881,1.2881,1.2881,1.2881,1.2881,1.2881,1.2881,1.2871,1.2893,1.3561,1.4403,1.3293,1.2881,1.2881,1.2881,1.2881,1.2881,1.2881,1.3066,1.3242,1.2969,1.2601,1.2124,1.1344,1.0661,1.0012,0.9562,0.9814,1.0167,1.0167,1.0466,1.0813,1.0813,1.0813,1.0813,1.0813,1.0965,1.1223,1.1545,1.178,1.1939,1.1969,1.1963,1.1808,1.1571,1.2201,1.2707,1.2741,1.2855,1.334,1.4362,1.4746,1.5641,1.7196,1.7629,1.8352,1.9561,1.987,2.0396,2.1181,2.146,2.1823,2.231,2.231,2.231,2.231,2.259,2.2772,0.6663,0.7426,0.8218,0.9389,1.002,1.0301,1.0189,1.0272,1.03,0.9825,0.9392,0.9078,0.8944,0.8931,0.8991,0.9185,0.9619,1.008,1.0564,0.9187,0.8165,0.8165,0.8046,0.7985,0.0,0.0,0.0,0.8771,0.8804,0.8804,0.8804,0.8804,0.8804,0.8804,0.8804,0.8804,0.8804,0.8804,1.0182,1.2881,1.2881,1.2372,1.1451,1.1451,1.1959,1.2881,1.2881,1.29,1.2905,1.291,1.289,1.2888,1.292,1.3232,1.368,1.3789,1.3401,1.2881,1.2881,1.2881,1.29,1.3057,1.308,1.3067,1.2944,1.2355,1.1545,1.0825,1.006,0.9361,0.891,0.9106,0.9465,0.9465,0.9762,1.0064,1.0064,1.0064,1.0064,1.0064,1.0466,1.0965,1.1366,1.1873,1.2291,1.2497,1.2754,1.2758,1.2357,1.3018,1.3507,1.3511,1.3697,1.3981,1.4443,1.5,1.5945,1.7302,1.7939,1.8622,1.9391,1.9859,2.0296,2.0748,2.1181,2.1598,2.2032,2.2209,2.231,2.231,2.249,2.2625,0.5647,0.668,0.7731,0.8413,0.8983,0.9251,0.897,0.8745,0.8649,0.8657,0.8352,0.8118,0.0,0.0,0.8363,0.834,0.8599,0.9183,1.0279,0.8566,0.7151,0.0,0.0,0.0,0.0,0.0,0.0,0.8558,0.0,0.8778,0.8804,0.8804,0.8804,0.8804,0.8864,0.8898,0.8898,0.8838,1.0182,1.2881,1.2783,1.1301,0.8804,0.8804,1.0233,1.2676,1.2676,1.2673,1.2686,1.2688,1.2672,1.2712,1.2786,1.1911,1.0973,1.3988,1.4076,1.2803,1.2774,1.2793,1.2939,1.3268,1.2907,1.2369,1.2706,1.1688,1.0352,1.0322,0.9564,0.8824,0.8811,0.8804,0.8804,0.8804,0.8804,0.8804,0.8804,0.8804,0.8804,0.8804,0.9865,1.0813,1.0813,1.195,1.2964,1.309,1.3564,1.377,1.3286,1.3778,1.4152,1.4136,1.4601,1.4714,1.4211,1.5568,1.6493,1.6533,1.8019,1.8855,1.8893,1.9406,1.9874,2.028,2.0731,2.1181,2.1582,2.2049,2.2282,2.231,2.231,2.2453,0.3397,0.4445,0.5636,0.5723,0.6471,0.7069,0.6722,0.6317,0.6153,0.6698,0.6322,0.6147,0.0,0.0,0.0,0.7407,0.7999,0.0,0.8463,0.8388,0.0,0.6814,0.0,0.6678,0.6547,0.6549,0.0,0.0,0.7852,0.8815,0.8824,0.8804,0.8804,0.8804,0.9659,1.0114,1.0114,0.9245,1.0182,1.2881,1.0838,0.9472,0.8804,0.8804,0.9166,0.9829,0.9829,0.9836,0.9828,0.9821,0.9859,0.991,1.0857,1.0931,1.0576,1.0509,1.0849,1.1283,1.099,1.1532,1.2271,1.1956,1.2074,1.2337,1.2072,1.1574,1.0927,1.0449,0.9719,0.9024,0.8864,0.8804,0.8804,0.8804,0.8804,0.8804,0.8804,0.8804,0.8804,0.8804,0.9865,1.0813,1.0813,1.195,1.289,1.2954,1.3843,1.4326,1.3935,1.4359,1.4686,1.4714,1.4828,1.5016,1.5254,1.5691,1.6252,1.7061,1.7851,1.8496,1.8893,1.9406,1.9874,2.028,2.0416,2.0846,2.1582,2.1718,2.1974,2.231,2.231,2.2349,0.2192,0.3142,0.4303,0.4651,0.5129,0.56,0.5718,0.5439,0.5336,0.5791,0.5558,0.5533,0.6315,0.6695,0.0,0.0,0.0,0.0,0.7444,0.7456,0.724,0.0,0.6388,0.0,0.6057,0.599,0.5765,0.0,0.7438,0.8781,0.8778,0.9299,0.9579,0.9579,1.0282,1.0624,1.0624,0.9907,1.0075,1.1099,0.9524,0.8804,0.8804,0.8804,0.8804,0.8804,0.0,0.9098,0.9579,0.9579,0.9272,0.8864,0.9551,0.9821,0.9748,0.9034,0.9294,0.994,0.9954,1.0624,1.1477,1.1568,1.1704,1.1811,1.1756,1.1203,1.0537,1.0137,0.957,0.9011,0.8851,0.8804,0.8804,0.8804,0.8804,0.8804,0.8804,0.8804,0.891,0.9159,0.9865,1.0568,1.1166,1.1882,1.2598,1.319,1.3873,1.4395,1.4737,1.5229,1.5505,1.5266,1.5442,1.5618,1.568,1.5919,1.6309,1.6896,1.7463,1.7867,1.8185,1.893,1.9464,1.9671,2.0093,2.0534,2.1023,2.1244,2.1477,2.1721,2.1721,2.1811,0.1458,0.2195,0.327,0.4112,0.444,0.4745,0.5348,0.5314,0.5239,0.5458,0.5387,0.551,0.6177,0.6247,0.6294,0.639,0.0,0.6476,0.6957,0.6298,0.5996,0.665,0.6078,0.5589,0.5437,0.5671,0.562,0.5041,0.7086,0.8539,0.9017,1.0052,1.0624,1.0624,1.0624,1.0544,1.0327,1.0544,0.9967,0.8811,0.8965,0.8958,0.8804,0.8804,0.8804,0.8818,0.8971,0.9548,1.0345,1.0555,0.996,0.9002,0.8849,0.8789,0.8811,0.8808,0.8843,0.8991,0.9452,1.0052,1.0746,1.1406,1.136,1.1097,1.1505,1.0788,0.978,0.9706,0.9312,0.8905,0.8831,0.8804,0.8804,0.8804,0.8804,0.8804,0.8804,0.8804,0.8956,0.9562,0.9762,1.0182,1.1377,1.1651,1.212,1.3412,1.3658,1.4086,1.5231,1.5964,1.6248,1.5856,1.6233,1.6321,1.5844,1.6245,1.6522,1.6522,1.6993,1.7312,1.7312,1.8263,1.8817,1.8893,1.9707,2.0177,2.0314,2.0715,2.0926,2.0991,2.0991,2.1181,0.0256,0.1137,0.2114,0.2106,0.3192,0.4309,0.4246,0.4448,0.0,0.0,0.4852,0.4838,0.5208,0.567,0.5836,0.5496,0.5734,0.619,0.6718,0.6051,0.5804,0.0,0.0,0.0,0.0,0.0,0.0,0.0,0.0,0.7231,1.012,1.0464,1.0624,1.0624,1.0624,1.0094,0.9118,1.0074,0.9967,0.8818,0.9793,0.9746,0.8804,0.8804,0.8804,0.8864,0.9833,0.0,0.9214,1.0199,1.0504,1.018,0.9217,0.8803,0.8818,0.8798,0.9098,0.9542,0.9341,0.9663,1.0214,1.0387,1.0533,1.0676,1.0787,1.0613,1.0369,0.982,0.9613,0.9419,0.8938,0.8804,0.8804,0.8804,0.8804,0.8804,0.8804,0.8804,0.8857,0.8956,0.9413,0.9948,1.0485,1.0813,1.1327,1.2386,1.278,1.3263,1.3993,1.5084,1.5915,1.6341,1.6459,1.6471,1.6384,1.6459,1.6522,1.6522,1.6993,1.7312,1.7312,1.7907,1.8458,1.8893,1.9066,1.9528,2.0314,2.0382,2.0616,2.0991,2.0991,2.1023,0.0,0.0449,0.0979,0.1463,0.2489,0.3364,0.3744,0.0,0.0,0.0,0.4684,0.4748,0.5193,0.5325,0.0,0.5553,0.5446,0.5502,0.6046,0.5698,0.0,0.6177,0.0,0.0,0.0,0.0,0.0,0.0,0.0,0.7224,1.0418,1.0602,1.0624,1.0624,1.0624,1.0287,0.9726,0.9673,0.9365,0.8818,0.9379,0.9352,0.8831,0.9439,0.9719,0.9753,1.0376,1.0268,0.9775,1.0345,1.0624,1.0571,0.994,0.9719,0.9744,0.9757,0.9706,0.9693,0.9894,1.0151,1.035,1.0369,1.0448,1.0624,1.0624,1.0454,1.0267,0.9987,0.98,0.9586,0.9145,0.9031,0.8991,0.8844,0.8804,0.8844,0.8998,0.8918,0.8898,0.9205,0.9274,0.9513,1.0201,1.0294,1.0581,1.137,1.1931,1.2541,1.3168,1.4064,1.4915,1.5522,1.5567,1.57,1.6008,1.6051,1.6194,1.6466,1.6752,1.6879,1.6879,1.7394,1.7787,1.8066,1.8612,1.9103,1.9564,1.9844,2.0104,2.0311,2.0311,2.0431,0.0,0.0,0.0178,0.1035,0.1842,0.2602,0.3203,0.3999,0.0,0.4553,0.4574,0.4748,0.5226,0.5108,0.5076,0.0,0.5246,0.5102,0.5755,0.5628,0.5564,0.0,0.0,0.0,0.0,0.0,0.0,0.0,0.0,0.0,1.0487,1.0624,1.0624,1.0624,1.0624,1.058,1.0601,0.9647,0.9185,0.9185,0.9185,0.9185,0.9212,1.014,1.0624,1.0624,1.0624,1.0624,1.0624,1.0624,1.0624,1.0624,1.0624,1.0577,1.0594,1.0622,1.0324,0.9947,1.0363,1.0566,1.0602,1.062,1.0624,1.0624,1.0624,1.0401,1.02,1.0134,0.9953,0.9706,0.9412,0.9283,0.9279,0.9045,0.8991,0.9058,0.9285,0.9158,0.9112,0.9512,0.9212,0.9126,0.9944,0.9773,0.9836,1.0569,1.1217,1.1805,1.2483,1.3188,1.3779,1.4247,1.4571,1.488,1.5365,1.541,1.5676,1.6281,1.6293,1.638,1.6466,1.6909,1.7188,1.7312,1.8145,1.865,1.8893,1.9207,1.9406,1.953,1.9406,1.9522,0.0,0.0,0.0,0.0083,0.1159,0.2251,0.2255,0.0,0.4387,0.4349,0.4487,0.4618,0.4661,0.4863,0.5015,0.5176,0.5155,0.5475,0.6379,0.6062,0.6067,0.0,0.0,0.0,0.0,0.0,0.0,0.0,0.0,0.0,1.0538,1.0624,1.0624,1.0624,1.0624,1.0597,1.0601,1.0464,1.0401,1.0401,1.0401,1.0401,1.0463,1.0577,1.0624,1.0624,1.0624,1.0624,0.0,1.0624,1.0624,1.0624,1.0624,1.0616,1.0611,1.0574,1.0533,1.0457,1.0248,1.0362,1.0591,1.0618,1.0624,1.0624,1.0624,1.0604,1.0461,1.0194,1.01,1.0007,0.9719,0.9646,0.9633,0.9613,0.9606,0.9613,0.9633,0.9619,0.9539,0.9319,0.9183,0.9205,0.9287,0.9052,0.9203,1.0217,1.0673,1.1116,1.1814,1.255,1.3017,1.3065,1.4071,1.4698,1.4789,1.4789,1.5062,1.5632,1.5676,1.5908,1.6479,1.6552,1.6795,1.7312,1.7394,1.7947,1.8893,1.8458,1.8496,1.8968,1.8458,1.8249,0.0,0.0,0.0089,0.0673,0.1461,0.22,0.2598,0.0,0.4059,0.4058,0.4228,0.4447,0.4574,0.4801,0.5077,0.5344,0.5264,0.5388,0.5912,0.5837,0.0,0.0,0.0,0.0,0.0,0.0,0.0,0.0,0.0,0.0,1.0303,1.0536,1.0624,1.0624,1.0624,1.0609,1.0607,0.9884,0.986,1.0624,1.0624,1.0624,1.0624,1.0624,1.0624,1.0624,1.0624,1.0624,0.0,1.0624,1.0624,1.0624,1.0624,1.06,1.0622,1.0571,1.062,1.0588,1.045,1.0461,1.0624,1.0624,1.0624,1.0624,1.0624,1.0624,1.0598,1.0414,1.0381,1.0314,1.002,0.9813,0.9686,0.9686,0.9686,0.9733,0.9907,0.9806,0.9753,0.9987,0.9606,0.9236,0.9479,0.9118,0.9049,0.9888,1.0458,1.1065,1.1715,1.2452,1.2881,1.2881,1.3344,1.3742,1.4154,1.4143,1.4422,1.5017,1.541,1.572,1.5964,1.6293,1.6595,1.6795,1.7146,1.7504,1.7947,1.8066,1.8224,1.8419,1.8224,1.8106,0.0,0.0,0.0173,0.1063,0.1646,0.2209,0.0,0.0,0.3797,0.3828,0.4012,0.4228,0.4487,0.4714,0.5009,0.5453,0.542,0.5344,0.547,0.5703,0.0,0.0,0.0,0.0,0.0,0.0,0.0,0.0,0.0,0.0,1.0254,1.0683,1.0806,1.0631,1.0624,1.0624,1.0624,0.974,0.9758,1.059,1.0601,1.0624,1.0561,0.9518,0.9646,1.0624,1.0624,1.004,0.0,0.9064,0.9646,1.0498,0.9454,0.9518,1.0174,0.9709,0.9843,1.0238,1.0238,1.0364,1.0624,1.0624,1.0678,1.0675,1.0651,1.0624,1.0624,1.0624,1.0624,1.0528,1.0408,1.016,0.994,0.994,0.994,1.0,1.02,1.0087,1.0013,1.0315,0.98,0.9379,0.9419,0.9152,0.9058,0.9427,1.0355,1.109,1.1484,1.2304,1.2881,1.2881,1.2881,1.3065,1.3515,1.3552,1.3779,1.4376,1.4824,1.5219,1.5588,1.6008,1.6337,1.6522,1.6879,1.7146,1.7312,1.7504,1.7706,1.7867,1.7706,1.7706,0.0,0.0,0.016,0.0891,0.1538,0.2133,0.0,0.336,0.3751,0.3609,0.3755,0.3968,0.4272,0.4487,0.4772,0.5208,0.5472,0.5503,0.5307,0.5986,0.0,0.0,0.0,0.0,0.0,0.0,0.0,0.0,0.0,0.0,1.0419,1.1242,1.1376,1.0645,1.0624,1.0624,1.0624,1.0611,1.058,1.0621,1.0615,1.0624,1.0491,0.7055,0.7312,1.0624,1.0624,0.8608,0.0,0.5428,0.7507,1.0231,0.6793,0.706,0.9139,0.7697,0.8091,0.9338,0.9338,0.9849,1.0624,1.0624,1.0755,1.0935,1.0712,1.0624,1.0624,1.0624,1.0624,1.0692,1.0909,1.0768,1.0618,1.0618,1.0618,1.0618,1.0618,1.0618,1.0443,0.9806,0.9686,0.9492,0.8918,0.9051,0.9084,0.8851,1.0249,1.1173,1.0863,1.2049,1.2881,1.2881,1.2881,1.2881,1.2929,1.2929,1.3152,1.3768,1.3815,1.4365,1.5543,1.5588,1.5908,1.6479,1.6522,1.6752,1.7312,1.6752,1.6795,1.7312,1.6752,1.6795,0.0466,0.0699,0.106,0.1918,0.2301,0.2665,0.3456,0.3665,0.3636,0.3588,0.3755,0.3968,0.4228,0.4447,0.4817,0.54,0.5566,0.5599,0.0,0.0,0.0,0.0,0.0,0.0,0.0,0.0,0.0,0.0,0.0,0.0,1.0666,1.0719,1.0666,1.0581,1.0624,1.0624,1.0624,1.0624,1.0581,1.0615,1.0588,1.0624,1.0491,0.699,0.6013,0.7055,0.7055,0.6404,0.5428,0.5428,0.6079,0.6924,0.5818,0.6019,0.694,0.7078,0.7724,0.8506,0.8473,0.8613,0.8935,0.9524,0.9906,1.0236,1.0751,1.0855,1.0815,1.0678,1.0701,1.0828,1.0728,1.0775,1.0808,1.0672,1.0624,1.0624,1.0624,1.0624,1.051,1.0053,0.998,0.9793,0.915,0.9345,0.9534,0.9492,1.0151,1.082,1.141,1.1873,1.2344,1.2832,1.2881,1.2881,1.2881,1.2881,1.2968,1.3152,1.3552,1.3956,1.4365,1.4778,1.5287,1.5864,1.5864,1.617,1.6752,1.6595,1.6595,1.6752,1.6595,1.6595,0.1174,0.1304,0.1709,0.2525,0.2681,0.0,0.0,0.3751,0.3581,0.3581,0.3711,0.3884,0.4232,0.4403,0.4705,0.5348,0.5461,0.5566,0.0,0.0,0.0,0.0,0.0,0.0,0.0,0.0,0.0,0.0,0.0,0.0,1.1391,1.1058,1.1013,1.1229,1.0788,1.0624,1.0624,1.0624,1.0624,1.0624,1.0624,0.9907,0.8544,0.6404,0.5428,0.5428,0.5428,0.5428,0.0,0.5428,0.5624,0.6009,0.5557,0.5674,0.6157,0.6348,0.6933,0.7617,0.755,0.7756,0.8209,0.8905,0.9748,1.0517,1.0684,1.0966,1.1122,1.0942,1.0942,1.0949,1.0768,1.0775,1.0782,1.0665,1.0624,1.0624,1.0624,1.0624,1.0474,1.0174,1.0114,0.9967,0.9492,0.9559,0.969,0.961,1.0172,1.0865,1.1368,1.1882,1.2403,1.2832,1.2881,1.2881,1.2881,1.2881,1.2881,1.2881,1.3238,1.3552,1.3779,1.4143,1.4652,1.5231,1.5499,1.5676,1.5832,1.6051,1.6151,1.6194,1.638,1.6522,0.0,0.1928,0.2064,0.272,0.2848,0.2936,0.3649,0.3676,0.0,0.3581,0.3626,0.3759,0.4248,0.438,0.4591,0.5122,0.53,0.5555,0.0,0.0,0.0,0.0,0.0,0.0,0.0,0.0,0.0,0.0,0.0,1.2305,1.2305,1.2044,1.2004,1.2231,1.1256,1.0672,1.0624,1.0624,1.0624,1.0624,1.0624,0.8801,0.5428,0.5428,0.5428,0.0,0.5428,0.5428,0.5428,0.5428,0.6013,0.685,0.5818,0.5892,0.6552,0.5704,0.5903,0.663,0.663,0.7279,0.8088,0.8559,1.0043,1.1462,1.0695,1.0885,1.1423,1.1423,1.1243,1.1049,1.1029,1.0822,1.0678,1.0658,1.0638,1.0624,1.0624,1.0624,1.0474,1.0174,1.0134,1.0047,0.974,0.9699,0.9606,0.9341,1.0408,1.1129,1.0913,1.1999,1.2822,1.2881,1.2832,1.2822,1.2881,1.2881,1.2881,1.2881,1.2881,1.3152,1.3732,1.3732,1.4003,1.4606,1.5231,1.5276,1.4698,1.5276,1.5543,1.5543,1.6107,1.638,0.3104,0.0,0.2773,0.2937,0.3193,0.3438,0.0,0.0,0.0,0.0,0.0,0.3965,0.4463,0.4938,0.5349,0.5415,0.6029,0.6296,0.5707,0.0,0.0,0.0,0.0,0.0,0.0,0.0,0.0,0.0,0.0,1.2305,1.2305,1.2238,1.2024,1.1643,1.1826,1.1459,1.0631,1.0624,1.0624,1.0624,1.0624,0.8801,0.5428,0.5428,0.5428,0.5428,0.5428,0.5428,0.5428,0.5428,0.5557,0.5752,0.5491,0.5589,0.5924,0.5617,0.5741,0.6043,0.6043,0.6139,0.6537,0.7481,0.9098,1.0707,1.0704,1.1035,1.1423,1.1423,1.1543,1.161,1.1383,1.1276,1.1169,1.0942,1.0722,1.0624,1.0624,1.0624,1.0474,1.0174,1.0301,1.0294,0.9773,0.9866,1.001,1.0019,1.0307,1.0767,1.1469,1.1873,1.2295,1.2822,1.2393,1.2295,1.2832,1.2881,1.2881,1.2881,1.2881,1.2968,1.3104,1.3104,1.342,1.4003,1.4606,1.4835,1.4698,1.4835,1.4926,1.4926,1.5062,1.5107,0.3262,0.3306,0.3262,0.3262,0.3442,0.3581,0.3581,0.0,0.0,0.0,0.0,0.3935,0.452,0.4781,0.4996,0.5225,0.5659,0.0,0.0,0.0,0.0,0.0,0.0,0.0,0.0,0.0,0.0,0.0,1.2178,1.2164,1.2291,1.2131,1.1724,1.1049,1.1831,1.1759,1.0631,1.0624,1.0624,1.0561,0.9,0.7246,0.5428,0.5428,0.5428,0.5369,0.5433,0.5398,0.5433,0.5382,0.5464,0.5562,0.5562,0.5603,0.5727,0.5633,0.5698,0.58,0.58,0.5715,0.5863,0.7405,0.8807,1.0018,1.0593,1.1259,1.1797,1.1663,1.1744,1.177,1.1336,1.1323,1.1316,1.0895,1.0775,1.0722,1.0651,1.0624,1.0577,1.0354,1.0448,1.0524,1.014,0.9993,0.9924,0.9989,1.0068,1.0376,1.1242,1.1616,1.208,1.2822,1.2559,1.2452,1.2881,1.2881,1.2881,1.2881,1.2881,1.2881,1.2881,1.2881,1.32,1.3779,1.3836,1.4014,1.4283,1.4283,1.4283,1.4283,1.456,1.4698,0.3078,0.3366,0.3605,0.3585,0.3581,0.3581,0.3581,0.0,0.0,0.0,0.0,0.0,0.4459,0.4447,0.0,0.0,0.0,0.0,0.0,0.0,0.0,0.0,0.0,0.0,0.0,0.0,0.0,0.0,1.2011,1.1944,1.2118,1.181,1.1303,1.0645,1.156,1.1588,1.0631,1.0624,1.0624,1.0561,0.7572,0.621,0.6145,0.5675,0.5408,0.5425,0.0,0.0,0.557,0.5551,0.563,0.5704,0.5745,0.5711,0.5681,0.5681,0.5732,0.581,0.5854,0.5708,0.5786,0.7492,0.8609,0.9448,1.0115,1.1242,1.2251,1.1853,1.1832,1.1744,1.1202,1.1243,1.1289,1.0755,1.0848,1.0969,1.0698,1.0658,1.0678,1.0631,1.0624,1.0624,1.0744,1.0228,0.9863,1.0096,0.9995,1.0141,1.0802,1.1351,1.1882,1.251,1.2569,1.2618,1.2725,1.2715,1.2774,1.2881,1.2881,1.2881,1.2881,1.2881,1.3152,1.3637,1.3152,1.3152,1.3637,1.3637,1.3637,1.3684,1.4201,1.4433,0.3353,0.3621,0.3731,0.3609,0.3581,0.3581,0.3581,0.0,0.0,0.0,0.0,0.0,0.0,0.4959,0.5222,0.0,0.0,0.0,0.0,0.0,0.0,0.0,0.0,0.0,0.0,0.0,0.0,1.1879,1.1897,1.171,1.1336,1.1256,1.1022,1.0638,1.0782,1.0789,1.0624,1.0624,1.0624,1.0561,1.004,0.9779,0.9709,0.6772,0.539,0.5408,0.0,0.5694,0.6127,0.616,0.6021,0.5811,0.5777,0.5786,0.5779,0.5779,0.5789,0.5837,0.6101,0.6159,0.6211,0.6535,0.7859,0.9145,0.8461,1.0115,1.2137,1.1193,1.1386,1.179,1.145,1.1396,1.1343,1.1009,1.1149,1.1209,1.0739,1.0755,1.0855,1.0672,1.0624,1.0807,1.1531,1.0744,1.046,1.1807,1.0994,1.0493,1.1125,1.1063,1.1015,1.1124,1.1124,1.1375,1.1922,1.1972,1.2236,1.2871,1.2881,1.2881,1.2881,1.2881,1.2929,1.3065,1.2978,1.2978,1.3065,1.3065,1.3065,1.3065,1.3104,1.3152,0.3173,0.3305,0.3446,0.3644,0.3754,0.3819,0.3819,0.391,0.0,0.0,0.0,0.0,0.0,0.0,0.0,0.0,0.0,0.0,0.0,0.0,0.0,0.0,0.0,0.0,0.0,0.0,1.0965,1.129,1.1514,1.1207,1.0264,0.9994,1.0083,1.0561,1.0624,1.0624,1.0624,1.0624,1.0624,1.0624,1.0624,1.0601,1.0553,0.891,0.7352,0.5906,0.0,0.6018,0.6268,0.6297,0.6004,0.5616,0.5601,0.5803,0.6047,0.6047,0.6047,0.6071,0.621,0.6338,0.6338,0.6338,0.7399,0.8737,0.8552,0.9775,1.1112,1.039,1.1112,1.2037,1.1744,1.1663,1.159,1.1296,1.1209,1.1122,1.0855,1.0775,1.0722,1.0651,1.0624,1.0744,1.1108,1.0547,1.0356,1.1063,1.0343,0.9933,1.0678,1.0785,1.0813,1.0813,1.1116,1.1466,1.1765,1.1814,1.2129,1.2832,1.2881,1.2881,1.2881,1.2881,1.2881,1.2881,1.2881,1.2881,1.2881,1.2881,1.2881,1.2881,1.2881,1.2881,0.2857,0.2923,0.3013,0.3435,0.3614,0.3697,0.3999,0.4023,0.3999,0.0,0.0,0.0,0.0,0.471,0.0,0.0,0.0,0.0,0.0,0.0,0.0,0.0,0.0,0.0,0.0,0.913,1.0125,1.0227,1.0511,1.0196,0.912,0.8875,0.9198,0.997,1.0364,1.0624,1.0624,1.0624,1.0624,1.0624,1.0624,1.0621,1.0606,1.0606,0.938,0.7324,0.7603,0.7159,0.6328,0.7049,0.7062,0.6636,0.6925,0.6721,0.6338,0.6338,0.6338,0.6338,0.6338,0.6338,0.6338,0.6338,0.7169,0.8335,0.8582,0.9679,1.0598,0.9929,1.0918,1.2118,1.1757,1.1717,1.171,1.1483,1.1363,1.1243,1.1035,1.0868,1.0722,1.0651,1.0624,1.0681,1.087,1.0492,1.0282,1.0451,0.989,0.9581,1.0111,1.0341,1.0451,1.0576,1.1166,1.1715,1.203,1.1913,1.203,1.2618,1.2822,1.2881,1.2881,1.2881,1.2881,1.2881,1.2881,1.2881,1.2881,1.2881,1.2881,1.2881,1.2881,1.2881,0.2462,0.2624,0.2748,0.2758,0.2687,0.2881,0.393,0.4125,0.4158,0.4389,0.0,0.0,0.0,0.4697,0.0,0.0,0.0,0.0,0.0,0.0,0.0,0.0,0.0,0.0,0.7455,0.766,0.7943,0.8528,0.8602,0.8487,0.8132,0.856,0.8613,0.8221,0.9779,1.0624,1.0624,1.0624,1.0624,1.0624,1.0624,1.0631,1.0575,1.0575,1.0461,1.0354,1.1423,0.9766,0.6499,0.9186,1.0244,1.0297,1.1362,0.9581,0.6338,0.6338,0.6338,0.6338,0.6338,0.6338,0.6338,0.6338,0.7169,0.8183,0.7616,0.9456,1.1514,1.0281,1.0847,1.177,1.1202,1.1256,1.145,1.143,1.1824,1.1984,1.1169,1.1189,1.1209,1.0732,1.0624,1.0863,1.1593,1.1087,1.0836,1.1556,1.073,0.9953,0.9744,0.9498,0.9472,0.9844,1.0466,1.1384,1.2725,1.2187,1.1814,1.1864,1.251,1.2881,1.2881,1.2881,1.2881,1.2881,1.2881,1.2881,1.2881,1.2881,1.2881,1.2881,1.2881,1.2881,0.2462,0.2674,0.2842,0.2728,0.2587,0.2733,0.3926,0.4188,0.412,0.3968,0.4549,0.0,0.0,0.0,0.0,0.0,0.0,0.0,0.0,0.0,0.0,0.0,0.0,0.0,0.6548,0.7025,0.7472,0.7674,0.8643,0.8663,0.7511,0.7972,0.7702,0.6404,0.7019,0.7339,0.7377,0.7376,0.7376,0.7377,0.9582,1.0624,1.0624,1.0624,0.9608,0.7947,0.8398,0.7702,0.6409,0.7509,0.7956,0.7903,0.8004,0.7061,0.582,0.6197,0.6338,0.6338,0.6338,0.6338,0.6458,0.7286,0.7772,0.7928,0.7863,0.9195,1.0539,0.9929,1.0673,1.1583,1.155,1.1617,1.1744,1.1924,1.1724,1.145,1.1296,1.1062,1.0822,1.0665,1.0624,1.0681,1.0982,1.0807,1.0681,1.0989,1.0486,1.0074,0.9967,0.9924,0.9781,0.9451,1.0239,1.1023,1.1534,1.2147,1.2501,1.2501,1.2344,1.2236,1.2236,1.2666,1.2881,1.2881,1.2881,1.3008,1.3271,1.3008,1.3018,1.3271,1.3271,1.3271,0.2418,0.2562,0.2756,0.2769,0.2618,0.2763,0.4007,0.396,0.3641,0.3727,0.4235,0.4759,0.5132,0.0,0.0,0.0,0.0,0.0,0.0,0.0,0.0,0.0,0.0,0.6064,0.5966,0.6505,0.6812,0.6704,0.7673,0.7787,0.6654,0.6933,0.6666,0.5428,0.5397,0.5394,0.5428,0.5373,0.5373,0.5428,0.7832,0.9518,1.0624,1.0624,0.9001,0.6338,0.6338,0.7022,0.8228,0.8228,0.7343,0.6004,0.5588,0.5545,0.5765,0.6184,0.6338,0.6338,0.6338,0.6338,0.6454,0.74,0.8124,0.8581,0.8511,0.931,1.0189,1.0,1.059,1.1336,1.1543,1.173,1.1944,1.2231,1.1844,1.141,1.1423,1.1109,1.0782,1.0658,1.0624,1.0624,1.0624,1.0624,1.0624,1.0624,1.0388,1.0221,1.0127,1.0161,1.0051,0.9577,1.0408,1.0935,1.0935,1.1879,1.2507,1.2577,1.2364,1.2186,1.2147,1.2618,1.2881,1.2881,1.3008,1.3223,1.3506,1.335,1.3418,1.3711,1.3711,1.3711,0.2184,0.2186,0.2351,0.2837,0.0,0.0,0.4285,0.3388,0.2647,0.3773,0.3808,0.3955,0.5203,0.5428,0.0,0.0,0.0,0.0,0.0,0.0,0.0,0.0,0.0,0.6135,0.583,0.5796,0.5677,0.5449,0.5216,0.5196,0.5418,0.5425,0.5425,0.5425,0.5425,0.5428,0.5428,0.5428,0.5428,0.5428,0.5428,0.7181,1.0555,1.0561,0.8996,0.6328,0.6257,0.8604,1.2285,1.2285,0.9531,0.5428,0.5428,0.5796,0.6254,0.6335,0.6338,0.6338,0.6338,0.6338,0.6338,0.6338,0.823,1.0438,0.941,0.9983,1.0929,1.0641,1.0775,1.0995,1.0995,1.143,1.1937,1.2225,1.2291,1.2131,1.155,1.1416,1.1249,1.0739,1.0624,1.0624,1.0624,1.0624,1.0624,1.0624,1.0624,1.0454,1.0154,1.0114,1.0123,1.028,1.0893,1.1313,1.1313,1.1419,1.1622,1.1925,1.2685,1.306,1.293,1.2891,1.2891,1.2891,1.3301,1.3516,1.3516,1.3936,1.4077,1.4087,1.4087,1.4087,0.1187,0.1891,0.0,0.2423,0.0,0.0,0.0,0.3763,0.0,0.0,0.3664,0.3602,0.5219,0.0,0.0,0.0,0.0,0.0,0.0,0.0,0.0,0.0,0.585,0.5752,0.5661,0.5555,0.5457,0.5435,0.5792,0.578,0.5196,0.577,0.5818,0.5216,0.5353,0.5428,0.5428,0.5428,0.5428,0.5428,0.5428,0.5947,0.7055,0.9454,0.8766,0.5724,0.6153,0.8134,1.0936,0.8487,0.6662,0.5428,0.5428,0.5538,0.5748,0.618,0.6338,0.6338,0.6338,0.6338,0.6338,0.6338,0.8784,1.1611,1.0479,1.0444,1.0708,1.0607,1.0843,1.1073,1.1222,1.143,1.1583,1.1663,1.153,1.1336,1.1162,1.0962,1.0828,1.0862,1.0862,1.0862,1.0862,1.0862,1.0795,1.0658,1.0624,1.0454,1.0154,1.0114,1.0026,0.9873,1.0971,1.1738,1.1738,1.2726,1.339,1.3448,1.3683,1.3578,1.3069,1.3489,1.376,1.376,1.3887,1.4102,1.4404,1.4228,1.4297,1.459,1.459,1.4845,0.1051,0.1869,0.0,0.2728,0.36,0.4487,0.4546,0.0,0.0,0.0,0.3055,0.3279,0.4873,0.5383,0.0,0.0,0.0,0.0,0.0,0.0,0.58,0.58,0.5725,0.565,0.5596,0.545,0.5335,0.5274,0.5571,0.5532,0.5043,0.5497,0.5559,0.5123,0.5164,0.5264,0.5425,0.5243,0.5125,0.5064,0.5064,0.5195,0.5491,0.7572,0.7377,0.5449,0.5816,0.6941,0.835,0.6276,0.5428,0.5428,0.5428,0.5428,0.5473,0.584,0.5974,0.5974,0.5974,0.5974,0.5974,0.5974,0.8539,1.1482,1.079,1.0624,1.0595,1.0619,1.0725,1.0929,1.1082,1.1082,1.1142,1.1369,1.1289,1.1136,1.1015,1.0855,1.0782,1.0962,1.0995,1.1029,1.1142,1.1169,1.1102,1.0929,1.0808,1.0628,1.0327,1.0294,1.018,0.9886,1.0646,1.1318,1.1654,1.2802,1.3673,1.4119,1.4417,1.4417,1.4017,1.409,1.4077,1.4077,1.4307,1.4521,1.4785,1.4687,1.4775,1.5039,1.5039,1.5302,0.1343,0.1958,0.2761,0.329,0.4011,0.0,0.4253,0.3509,0.2732,0.2015,0.0,0.3081,0.4422,0.5135,0.5633,0.0,0.0,0.0,0.0,0.0,0.5762,0.5762,0.5762,0.5708,0.5583,0.543,0.5281,0.5142,0.4857,0.4752,0.4891,0.4809,0.4896,0.5064,0.4944,0.5027,0.5343,0.5013,0.4738,0.4519,0.4519,0.4807,0.5346,0.5404,0.5428,0.5428,0.5428,0.5428,0.5428,0.5752,0.5686,0.5428,0.5428,0.5428,0.5428,0.5428,0.5428,0.5428,0.5428,0.5428,0.5428,0.5428,0.7749,1.0629,1.0619,1.0698,1.0759,1.0651,1.0624,1.0624,1.0624,1.0624,1.0695,1.1223,1.1349,1.1276,1.1009,1.0955,1.0962,1.0989,1.1015,1.1116,1.1376,1.145,1.145,1.1396,1.1162,1.0889,1.0658,1.0624,1.0454,1.0187,1.0215,1.0565,1.1256,1.222,1.3134,1.4127,1.4932,1.541,1.541,1.4658,1.4194,1.4194,1.4639,1.4844,1.4844,1.5225,1.541,1.541,1.541,1.541,-0.0049,0.0675,0.0,0.0,0.3056,0.3918,0.2559,0.2582,0.3079,0.3845,0.3417,0.3446,0.5343,0.5643,0.5599,0.0,0.0,0.0,0.0,0.0,0.5457,0.5457,0.5457,0.5443,0.5413,0.527,0.5165,0.5131,0.4857,0.4704,0.4738,0.4755,0.4766,0.4652,0.5071,0.5109,0.4718,0.4649,0.4584,0.4519,0.4519,0.4587,0.4731,0.5209,0.5428,0.5428,0.5428,0.5428,0.5624,0.835,0.7897,0.5428,0.5428,0.5428,0.5428,0.5428,0.5428,0.5428,0.5428,0.5428,0.5428,0.5428,0.778,1.0626,1.0608,1.1196,1.1737,1.0815,1.0624,1.0624,1.0624,1.0624,1.0658,1.0715,1.0748,1.0728,1.0668,1.0719,1.0722,1.0949,1.1176,1.1356,1.1416,1.1617,1.1617,1.1156,1.1035,1.0889,1.0658,1.0624,1.0598,1.0474,1.1064,1.1483,1.166,1.2997,1.3945,1.4204,1.4932,1.541,1.541,1.5234,1.5137,1.5137,1.5225,1.5273,1.5273,1.5371,1.541,1.541,1.541,1.569,-0.0248,0.0,0.0,0.1901,0.0,0.3327,0.254,0.232,0.2731,0.4287,0.3702,0.3392,0.4972,0.5425,0.5589,0.0,0.0,0.0,0.0,0.5428,0.5335,0.526,0.523,0.5199,0.5155,0.5009,0.4918,0.4918,0.4711,0.4582,0.4582,0.4663,0.4625,0.4522,0.4828,0.4838,0.4522,0.4519,0.4519,0.4519,0.4519,0.4519,0.4539,0.515,0.5428,0.5428,0.5428,0.5428,0.5557,0.7377,0.7055,0.5428,0.5428,0.5428,0.5428,0.5428,0.5428,0.5428,0.5428,0.5428,0.5428,0.5428,0.7767,1.0624,1.0624,1.0982,1.1343,1.0792,1.0624,1.0624,1.0624,1.0624,1.0624,1.0624,1.0624,1.0624,1.0624,1.0624,1.0712,1.0935,1.1229,1.1423,1.1423,1.1557,1.1503,1.1062,1.0995,1.0889,1.0658,1.0624,1.0744,1.1108,1.1531,1.2135,1.2862,1.3717,1.4392,1.4746,1.5177,1.541,1.541,1.541,1.541,1.541,1.541,1.541,1.541,1.541,1.541,1.541,1.541,1.5751,-0.0102,0.0,0.128,0.2187,0.2496,0.0,0.2577,0.2151,0.2212,0.388,0.3518,0.3274,0.4461,0.5154,0.5542,0.5515,0.0,0.0,0.5287,0.5284,0.5237,0.5108,0.506,0.5016,0.4962,0.4796,0.4701,0.4728,0.4565,0.4519,0.4519,0.4519,0.4519,0.4519,0.4519,0.4519,0.4519,0.4519,0.4519,0.4519,0.4519,0.4519,0.4536,0.504,0.5329,0.5425,0.5308,0.538,0.5428,0.5428,0.5428,0.5428,0.5428,0.5428,0.5428,0.5428,0.5428,0.5428,0.5428,0.5428,0.5491,0.6079,0.8221,1.0624,1.0624,1.0624,1.0624,1.0624,1.0624,1.0624,1.0624,1.0624,1.0624,1.0624,1.0624,1.0624,1.0624,1.0624,1.0698,1.0868,1.1189,1.1456,1.1563,1.1577,1.1456,1.1122,1.1069,1.0949,1.0665,1.0665,1.0982,1.1717,1.1817,1.2382,1.3666,1.4025,1.4451,1.4932,1.5235,1.541,1.541,1.541,1.541,1.541,1.541,1.541,1.541,1.541,1.541,1.541,1.541,1.5644,-0.0529,0.0,0.0229,0.0,0.0956,0.1344,0.0,0.0,0.2454,0.0,0.2812,0.3315,0.5151,0.544,0.5348,0.5213,0.5176,0.5118,0.4996,0.4979,0.4969,0.4948,0.4942,0.4982,0.5091,0.4853,0.4745,0.4877,0.4623,0.4519,0.4519,0.4519,0.4519,0.4519,0.4519,0.4519,0.4519,0.4519,0.4519,0.4519,0.4519,0.4519,0.4522,0.4601,0.4927,0.5415,0.5087,0.5125,0.5428,0.5428,0.5428,0.5428,0.5428,0.5428,0.5428,0.5428,0.5428,0.5428,0.5428,0.5428,0.5885,0.8935,1.0231,1.0624,1.0624,1.0624,1.0624,1.0624,1.0624,1.0624,1.0624,1.0624,1.0624,1.0624,1.0624,1.0624,1.0624,1.0624,1.0631,1.0672,1.1056,1.159,1.2098,1.2184,1.1997,1.145,1.1369,1.1176,1.0628,1.0782,1.1152,1.174,1.2019,1.2134,1.2097,1.3416,1.3974,1.3373,1.4628,1.541,1.541,1.541,1.541,1.541,1.541,1.541,1.541,1.541,1.541,1.541,1.541,1.5644,-0.0621,-0.0312,0.0,0.0,0.0301,0.049,0.0064,0.0,0.1265,0.1815,0.1889,0.2486,0.4383,0.4683,0.4405,0.3838,0.3758,0.3866,0.4247,0.4623,0.4819,0.4796,0.4714,0.4687,0.4752,0.464,0.4589,0.4657,0.4594,0.4519,0.4519,0.4519,0.4519,0.4519,0.4519,0.4519,0.4519,0.4519,0.4519,0.4519,0.4519,0.4519,0.4519,0.4519,0.4852,0.5411,0.5241,0.5283,0.5401,0.5058,0.4917,0.4951,0.5294,0.5428,0.5428,0.5428,0.5428,0.5428,0.5428,0.5428,0.5624,0.7181,0.9,1.0624,1.0624,1.0624,1.0624,1.0624,1.0624,1.0624,1.0624,1.0624,1.0624,1.0624,1.0624,1.0624,1.0624,1.0624,1.0719,1.0982,1.1122,1.1369,1.1957,1.1917,1.1724,1.1463,1.1423,1.1276,1.0855,1.0915,1.1194,1.1747,1.1899,1.211,1.2466,1.3122,1.3364,1.3009,1.4094,1.4756,1.4756,1.5167,1.541,1.541,1.541,1.541,1.541,1.541,1.541,1.542,1.5664,1.6016,0.0,0.0,0.0,0.0,0.0,0.0,0.0,0.0,0.0543,0.0,0.1581,0.2015,0.3276,0.3641,0.3456,0.2747,0.2673,0.2847,0.3304,0.3963,0.4378,0.4346,0.4419,0.4532,0.4573,0.4539,0.4532,0.4573,0.4539,0.4519,0.4519,0.4519,0.4519,0.4519,0.4519,0.4519,0.4519,0.4519,0.4519,0.4519,0.4519,0.4519,0.4519,0.4519,0.4766,0.5185,0.515,0.5179,0.5161,0.4704,0.4608,0.4793,0.525,0.5428,0.5428,0.5428,0.5428,0.5428,0.5428,0.5428,0.5428,0.5428,0.7186,0.9454,1.0364,1.0624,1.0428,0.9518,0.9907,1.0624,1.0624,1.0624,1.0624,1.0624,1.0624,1.0624,1.0624,1.0624,1.0735,1.1316,1.1189,1.1176,1.177,1.1623,1.1403,1.1329,1.1316,1.1209,1.0922,1.0949,1.1194,1.1747,1.1839,1.2173,1.2956,1.3191,1.3312,1.3312,1.4085,1.451,1.451,1.505,1.541,1.541,1.541,1.541,1.541,1.541,1.5469,1.5586,1.5908,1.6357,0.0,-0.0694,0.0,0.0,0.0,0.0,0.0,0.0,0.0,0.0,0.2292,0.2388,0.2317,0.2545,0.2684,0.2541,0.2528,0.2443,0.231,0.2912,0.3355,0.3352,0.4018,0.4573,0.4663,0.4604,0.4577,0.4667,0.4545,0.4519,0.4519,0.4519,0.4519,0.4519,0.4519,0.4519,0.4519,0.4519,0.4519,0.4519,0.4519,0.4519,0.4519,0.4519,0.4536,0.4563,0.4549,0.4549,0.4563,0.4529,0.4858,0.5384,0.5415,0.5428,0.5428,0.5428,0.5428,0.5428,0.5428,0.5428,0.5428,0.5428,0.5491,0.6272,0.9582,1.0624,0.9907,0.6601,0.8027,1.0624,1.0624,1.0624,1.0624,1.0624,1.0624,1.0624,1.0624,1.0624,1.0735,1.1316,1.1189,1.1176,1.177,1.1623,1.1329,1.1056,1.1015,1.0909,1.0685,1.0822,1.1194,1.1747,1.2041,1.2419,1.2972,1.3726,1.4145,1.4145,1.4864,1.5352,1.5352,1.5352,1.541,1.541,1.541,1.541,1.541,1.541,1.5625,1.6086,1.6115,1.6523,0.0,0.0,0.0,-0.0097,-0.0205,-0.0374,-0.0053,0.0217,0.0447,0.0718,0.0842,0.1021,0.1399,0.1681,0.1596,0.0973,0.0911,0.1021,0.1454,0.212,0.2788,0.3234,0.4015,0.4539,0.4538,0.4549,0.4539,0.4594,0.4549,0.4519,0.4519,0.4519,0.4519,0.4519,0.4519,0.4519,0.4519,0.4519,0.4519,0.4519,0.4519,0.4519,0.4519,0.4519,0.4519,0.4519,0.4519,0.4519,0.4519,0.4519,0.4876,0.5387,0.4996,0.5082,0.5428,0.5428,0.5428,0.5428,0.5428,0.5428,0.5428,0.5428,0.5428,0.5624,0.6859,0.7246,0.699,0.5756,0.6276,0.7767,1.004,1.0624,1.0624,1.0624,1.0624,1.0624,1.0624,1.0708,1.0955,1.1349,1.1496,1.1683,1.2078,1.1904,1.1677,1.157,1.139,1.1169,1.0875,1.0929,1.1005,1.1017,1.157,1.2017,1.2212,1.3207,1.3836,1.3836,1.4583,1.5088,1.5088,1.5321,1.541,1.541,1.541,1.541,1.541,1.541,1.5635,1.6135,1.6357,1.6816,-0.1524,0.0,0.0,0.0,0.0,-0.0408,-0.005,0.0,0.0055,0.0325,0.0165,0.0224,0.095,0.0968,0.0747,0.045,0.0168,0.0168,0.0671,0.1341,0.212,0.2843,0.3622,0.4236,0.446,0.4519,0.4519,0.4519,0.4519,0.0,0.4519,0.4519,0.4519,0.4519,0.4519,0.4519,0.4519,0.4519,0.4519,0.4519,0.4519,0.4519,0.4519,0.4519,0.4519,0.4519,0.4519,0.4519,0.4519,0.4519,0.4755,0.5102,0.49,0.5071,0.5428,0.5428,0.5428,0.5428,0.5428,0.5428,0.5428,0.5428,0.5428,0.5428,0.5428,0.5428,0.5428,0.5428,0.5428,0.621,0.9709,1.0624,1.0624,1.0624,1.0624,1.0624,1.0624,1.0715,1.0935,1.1223,1.1443,1.167,1.1957,1.185,1.1724,1.1724,1.147,1.1209,1.1015,1.0909,1.0775,1.0645,1.1445,1.2087,1.2212,1.3438,1.4305,1.4426,1.5122,1.5526,1.5526,1.5693,1.5781,1.5635,1.5781,1.5713,1.541,1.5557,1.5859,1.6299,1.6738,1.7307,0.0,0.0,0.0,0.0,0.0,0.0,0.0,0.0,0.0215,0.0941,0.0503,0.0224,0.095,0.0504,0.0224,0.1006,0.0504,0.0,0.0,0.0615,0.1397,0.212,0.2899,0.368,0.4408,0.4519,0.4519,0.4519,0.4519,0.4519,0.4519,0.4519,0.4519,0.4519,0.4519,0.4519,0.4519,0.4519,0.4519,0.4519,0.4519,0.4519,0.4519,0.4519,0.4519,0.4519,0.4519,0.4519,0.4519,0.4519,0.4519,0.4577,0.5188,0.5428,0.5428,0.5428,0.5428,0.5428,0.5428,0.5428,0.5428,0.5428,0.5428,0.5428,0.5428,0.5428,0.5428,0.5428,0.5495,0.6338,0.9716,1.0624,1.0624,1.0624,1.0624,1.0624,1.0624,1.0624,1.0712,1.0949,1.1009,1.1109,1.1403,1.1443,1.1436,1.1436,1.1189,1.1002,1.0995,1.0748,1.0638,1.0638,1.171,1.2584,1.3005,1.4504,1.5614,1.6043,1.6441,1.6612,1.6665,1.6665,1.6461,1.6154,1.6514,1.6309,1.5449,1.5879,1.6309,1.6685,1.7197,1.8061,-0.0224,0.0,0.0,0.0,0.0,0.0,0.0,0.0,0.0,0.0261,0.0163,0.0224,0.095,0.0504,0.0224,0.1006,0.0504,0.0,0.0,0.0615,0.1397,0.212,0.2843,0.3622,0.4408,0.4519,0.4519,0.0,0.4519,0.4519,0.4519,0.4519,0.4519,0.4519,0.4519,0.4519,0.4519,0.4519,0.4519,0.4519,0.4519,0.4519,0.4519,0.4519,0.4519,0.4519,0.4519,0.4519,0.4519,0.4519,0.4519,0.4577,0.5188,0.5428,0.5428,0.5428,0.5428,0.5428,0.5428,0.5428,0.5428,0.5428,0.5428,0.5428,0.5428,0.5428,0.5428,0.5428,0.7246,0.939,1.0364,1.0624,1.0624,1.0624,1.0624,1.0624,1.0624,1.0624,1.0708,1.1209,1.1483,1.1717,1.2011,1.1884,1.175,1.175,1.1496,1.1229,1.1015,1.0922,1.1129,1.1832,1.194,1.2444,1.3687,1.4227,1.4564,1.4655,1.4936,1.5362,1.5799,1.5725,1.5935,1.6553,1.667,1.6548,1.6367,1.6484,1.6611,1.6748,1.749,1.8026,0.0,0.0,0.0,0.0,0.0,0.0,-0.0047,0.0,0.0,0.0,0.0,0.0112,0.056,0.028,0.0168,0.056,0.028,0.0,0.0,0.0392,0.1006,0.2063,0.2565,0.3287,0.4405,0.4519,0.4519,0.4519,0.4519,0.4519,0.4519,0.4519,0.4519,0.4519,0.4519,0.4519,0.4519,0.4519,0.4519,0.4519,0.4519,0.4519,0.4519,0.4519,0.4519,0.4519,0.4519,0.4519,0.4519,0.4519,0.4519,0.4577,0.5188,0.5428,0.5428,0.5428,0.5428,0.5428,0.5428,0.5428,0.5384,0.5133,0.5178,0.5417,0.5418,0.525,0.5047,0.5047,0.7736,1.0624,1.0624,1.0624,1.0624,1.0624,1.0624,1.0624,1.0624,1.0624,1.0661,1.1002,1.1303,1.1557,1.173,1.1824,1.187,1.187,1.1724,1.1503,1.1209,1.1069,1.1138,1.1589,1.1899,1.2393,1.3233,1.3933,1.4305,1.4238,1.4985,1.5565,1.5957,1.6289,1.6627,1.7002,1.7178,1.7266,1.7266,1.709,1.71,1.7275,1.7773,1.8008,0.0,0.0,0.0,0.0,0.0,0.0,0.0,0.0,0.0,0.0,0.0,0.0,0.0,0.0,0.0,0.0,0.0056,0.0112,0.0,0.0056,0.0615,0.2009,0.2286,0.2899,0.4349,0.4519,0.4519,0.4519,0.4519,0.4519,0.4519,0.4519,0.4519,0.4519,0.4405,0.4349,0.4349,0.4125,0.4181,0.4519,0.4519,0.4519,0.4519,0.4519,0.4519,0.4519,0.4519,0.4519,0.4519,0.4519,0.4519,0.4577,0.5188,0.5387,0.5325,0.5325,0.537,0.5428,0.5428,0.5384,0.525,0.4773,0.4919,0.5321,0.5294,0.4996,0.4674,0.5061,0.7828,1.0624,1.0624,1.0624,1.0624,1.0624,1.0624,1.0624,1.0624,1.0624,1.0624,1.0624,1.0822,1.1049,1.1082,1.155,1.1904,1.187,1.187,1.175,1.1416,1.1149,1.096,1.0826,1.1639,1.2201,1.229,1.3538,1.4296,1.4199,1.5506,1.6332,1.6356,1.7335,1.7765,1.7461,1.7822,1.8008,1.8008,1.7588,1.7598,1.8008,1.8008,1.8008,0.0,0.0,0.0,0.0,0.0,0.0,0.0,0.0,0.0,0.0,0.0,0.0,0.0,0.0,0.0,0.0,0.0474,0.0705,0.0056,0.0504,0.1229,0.212,0.2788,0.3511,0.4405,0.4519,0.4519,0.4519,0.4519,0.4519,0.4519,0.4519,0.4519,0.4519,0.3738,0.3294,0.3294,0.1676,0.212,0.4519,0.4519,0.4519,0.4519,0.4519,0.4519,0.4519,0.4519,0.4519,0.4519,0.4519,0.4519,0.4577,0.5188,0.5126,0.4697,0.4697,0.5006,0.5428,0.5428,0.5106,0.4755,0.513,0.498,0.4653,0.4659,0.4955,0.5818,0.864,0.9994,1.0624,1.0624,1.0624,1.0624,1.0624,1.0624,1.0624,1.0624,1.0624,1.0624,1.0624,1.0982,1.1416,1.1657,1.1984,1.2138,1.1904,1.187,1.1677,1.1142,1.1029,1.1297,1.1998,1.1383,1.1509,1.2929,1.2459,1.2151,1.2403,1.3558,1.4537,1.5078,1.6258,1.7179,1.7891,1.7969,1.8008,1.8008,1.7588,1.7598,1.8008,1.8008,1.8008,0.0,0.0,0.0,0.0,0.0,0.0,0.0,0.0094,0.0192,0.0196,0.0199,0.0252,0.0353,0.0,0.0051,0.0202,0.0416,0.0478,0.0213,0.0712,0.1229,0.1619,0.2009,0.2676,0.379,0.3956,0.4125,0.446,0.4519,0.4519,0.4519,0.4519,0.4519,0.4519,0.3516,0.2738,0.2235,0.123,0.1229,0.2287,0.301,0.2954,0.2286,0.379,0.4519,0.4519,0.4519,0.4519,0.4519,0.4519,0.4519,0.4549,0.4855,0.4786,0.4556,0.4858,0.5164,0.5428,0.5428,0.5027,0.4567,0.4876,0.4972,0.4917,0.4611,0.613,0.8255,0.9366,1.0167,1.0624,1.0624,1.0624,1.0624,1.0624,1.0624,1.0624,1.0624,1.0624,1.0624,1.0624,1.0915,1.1256,1.1403,1.1557,1.165,1.165,1.165,1.149,1.1049,1.0995,1.1132,1.1489,1.096,1.1108,1.2268,1.1785,1.161,1.2058,1.3085,1.4094,1.4891,1.6044,1.707,1.8008,1.8008,1.8008,1.8008,1.7803,1.7803,1.8008,1.8008,1.8008,0.0,0.0,0.0,0.0,0.0,0.0,0.0,0.0,0.0,0.0344,0.0345,0.0,0.0,0.0,0.0,0.0,0.0,0.0,0.0,0.0949,0.0,0.1261,0.1274,0.1781,0.3039,0.3202,0.3542,0.4236,0.4323,0.432,0.4291,0.4294,0.4239,0.407,0.3125,0.2235,0.1454,0.1286,0.0784,0.0,0.1229,0.1174,0.0056,0.251,0.3624,0.3677,0.4239,0.4519,0.4519,0.4519,0.4519,0.4519,0.4519,0.4519,0.4577,0.5071,0.5253,0.5253,0.5253,0.4931,0.4519,0.4519,0.4852,0.5161,0.4666,0.6784,0.9388,0.9177,0.9826,1.0624,1.0624,1.0624,1.0624,1.0624,1.0624,1.0624,1.0624,1.0624,1.0624,1.0624,1.0748,1.0929,1.0982,1.1042,1.1136,1.1316,1.1343,1.1236,1.0949,1.0909,1.0822,1.0651,1.0624,1.0795,1.1376,1.1423,1.1677,1.2265,1.3164,1.4171,1.5163,1.6289,1.7217,1.8008,1.8008,1.8008,1.8008,1.8008,1.8008,1.8008,1.8008,1.8008,0.0,0.0,0.0,0.0,0.0,0.0,0.0,0.0,0.0047,0.0046,0.0,0.0,0.0,0.0,0.0,0.0,0.0,0.0,0.0911,0.1341,0.1731,0.1731,0.1937,0.2259,0.262,0.2666,0.2915,0.3392,0.3633,0.3726,0.3506,0.3511,0.3178,0.251,0.173,0.1285,0.1174,0.0504,0.0112,0.0,0.0168,0.0168,0.0,0.0336,0.0504,0.0671,0.3345,0.4519,0.4519,0.4519,0.4519,0.4519,0.4519,0.4519,0.4525,0.4597,0.4622,0.4622,0.4622,0.4577,0.4519,0.4519,0.4563,0.4608,0.4539,0.4842,0.5905,0.9419,1.0517,1.0624,1.0624,1.0624,1.0624,1.0624,1.0624,1.0624,1.0624,1.0624,1.0624,1.0624,1.0651,1.0688,1.0949,1.1209,1.1296,1.1076,1.1042,1.0942,1.0712,1.0672,1.0658,1.0624,1.0624,1.0795,1.1376,1.1423,1.1677,1.2265,1.3164,1.4171,1.5163,1.6872,1.7872,1.8008,1.8008,1.8008,1.8008,1.8008,1.8008,1.8008,1.8008,1.8008,0.0,0.0,0.0,0.0,0.0,0.0,0.0425,0.0,0.066,0.0,0.0,0.0,0.0,0.0,0.0,0.0,0.1067,0.0,0.0,0.0,0.1709,0.0,0.0,0.0,0.1908,0.2214,0.2636,0.3229,0.3411,0.346,0.3398,0.3345,0.301,0.2232,0.1507,0.1118,0.1118,0.0392,0.0,0.0,0.0,0.0,0.0,0.0,0.0,0.0056,0.134,0.1898,0.2009,0.379,0.4519,0.4519,0.4519,0.4519,0.4519,0.4519,0.4519,0.4519,0.4519,0.4519,0.4519,0.4519,0.4519,0.4584,0.4937,0.4797,0.4922,0.7016,0.9064,1.0581,1.0604,1.0621,1.0575,1.0621,1.0072,0.9588,0.9786,0.9849,0.9849,0.9849,1.0238,1.0665,1.0722,1.0842,1.0942,1.0982,1.0848,1.0759,1.0638,1.0624,1.0624,1.0624,1.0624,1.0728,1.1142,1.1176,1.1423,1.2011,1.3064,1.4171,1.5163,1.6507,1.7432,1.8008,1.8008,1.8008,1.8008,1.8008,1.8008,1.8008,1.8008,1.8008,-0.1233,0.0,0.0,0.0,0.0,0.0,0.0,0.0,0.0,0.0,0.0,0.0,0.0,0.0,0.0,0.0,0.0,0.1389,0.0,0.0,0.0,0.0,0.0,0.0,0.0,0.1766,0.2396,0.3078,0.3299,0.3312,0.3065,0.301,0.2565,0.1619,0.1062,0.0783,0.0783,0.028,0.0,0.0,0.0,0.0,0.0,0.0,0.0,0.0,0.0,0.0,0.0168,0.2343,0.3735,0.4519,0.4519,0.4519,0.4519,0.4519,0.4519,0.4519,0.4519,0.4519,0.4519,0.4519,0.4519,0.4601,0.5044,0.4985,0.4862,0.5301,0.7897,1.0391,0.9444,0.9203,0.9198,0.9163,0.8958,0.8812,0.8941,0.8941,0.8941,0.8941,0.9652,1.0238,1.0238,1.0428,1.0698,1.0842,1.0695,1.0624,1.0624,1.0624,1.0624,1.0624,1.0624,1.0681,1.0969,1.0995,1.1243,1.183,1.2999,1.4171,1.5163,1.607,1.707,1.8008,1.8008,1.8008,1.8008,1.8008,1.8008,1.8008,1.8008,1.8008,0.0,0.0,0.0,-0.0268,0.0,0.0,0.0,0.0,0.0797,0.0,0.0,0.0,0.0,0.0,0.0,0.0,0.0,0.0,0.0,0.0,0.0,0.0,0.0,0.0,0.0,0.1363,0.2048,0.0,0.329,0.3286,0.2282,0.2232,0.1563,0.0112,0.0056,0.0056,0.0056,0.0,0.0,0.0,0.0,0.0,0.0,0.0,0.0,0.0,0.0,0.0,0.0,0.0112,0.1842,0.4519,0.4519,0.4519,0.4519,0.4519,0.4519,0.4519,0.4519,0.4519,0.4519,0.4519,0.4519,0.4522,0.4539,0.4944,0.5404,0.5422,0.7897,0.9843,0.6474,0.5561,0.5543,0.5552,0.7196,0.8678,0.8156,0.8027,0.8027,0.8027,0.8748,0.9338,0.9338,1.004,1.0624,1.0631,1.0631,1.0624,1.0624,1.0624,1.0624,1.0624,1.0624,1.0681,1.0969,1.0995,1.1243,1.183,1.2999,1.4171,1.5163,1.607,1.707,1.8008,1.8008,1.8008,1.8008,1.8008,1.8008,1.8008,1.8008,1.8008,0.0,0.0,-0.0548,0.0058,0.0,0.0,0.0,0.0,0.0,0.0,0.0,0.0,0.0,0.0,0.0,0.0,0.0,0.0,0.0,0.0,0.0,0.0,0.0,0.0,0.0,0.0,0.0,0.0,0.3248,0.0,0.223,0.2174,0.1507,0.0056,0.0,0.0,0.0,0.0,0.0,0.0,0.0,0.0,0.0,0.0,0.0,0.0,0.0,0.0,0.0,0.0,0.0616,0.173,0.3735,0.4519,0.4519,0.4519,0.4519,0.4519,0.4519,0.4519,0.4519,0.4519,0.4519,0.4519,0.4519,0.4663,0.491,0.5315,0.7897,0.9779,0.6276,0.5428,0.5422,0.5404,0.5997,0.6662,0.7046,0.7111,0.7307,0.7897,0.8683,0.9466,1.0047,1.0428,1.0624,1.0624,1.0624,1.0624,1.0624,1.0624,1.0624,1.0624,1.0624,1.0665,1.0759,1.1056,1.1363,1.1563,1.2312,1.3164,1.4171,1.4522,1.5438,1.707,1.707,1.7364,1.8008,1.8008,1.8008,1.8008,1.8008,1.8008,-0.0719,-0.055,0.0,0.006,0.0482,0.0,0.1235,0.0,0.0,0.0,0.0,0.0,0.0,0.0,0.0,0.0,0.0,0.0,0.0,0.3612,0.0,0.0,0.0,0.0,0.0,0.0,0.0,0.3282,0.3517,0.3194,0.0,0.2174,0.1507,0.0056,0.0,0.0,0.0,0.0,0.0,0.0,0.0,0.0,0.0,0.0,0.0,0.0,0.0,0.0,0.0,0.0,0.0,0.0168,0.212,0.3566,0.4519,0.4519,0.4519,0.4519,0.4519,0.4519,0.4519,0.4519,0.4519,0.4519,0.4519,0.4519,0.4646,0.5257,0.6985,0.8221,0.6013,0.5428,0.5428,0.5428,0.5428,0.5557,0.6141,0.6268,0.6465,0.7372,0.8221,0.9134,0.9977,1.0364,1.0624,1.0624,1.0624,1.0624,1.0624,1.0624,1.0624,1.0624,1.0624,1.0665,1.0701,1.1149,1.147,1.1577,1.2037,1.2732,1.3673,1.3673,1.4568,1.6321,1.621,1.6641,1.7816,1.7584,1.7724,1.8242,1.8389,1.8379]},{"header":{"parameterUnit":"m.s-1","parameterCategory":1,"la1":30.6,"la2":29.2853,"lo1":-89.7004,"lo2":-87.6739,"dy":0.0162,"dx":0.0183,"nx":112,"ny":82,"refTime":"2023-05-13T06:00:00:Z","depth":0,"parameterNumber":3,"parameterNumberName":"V-component_of_WINDS"},"data":[0.0,0.0,0.0,0.0,0.0,0.0,0.0,0.0,0.0,0.0,0.0,0.0,0.0,0.0,0.0,0.0,0.0,0.0,0.0,0.0,0.0,0.0,0.0,0.0,0.0,0.0,0.0,0.0,0.0,0.0,0.0,0.0,0.0,0.0,0.0,0.0,0.0,0.0,0.0,0.0,0.0,0.0,0.0,0.0,0.0,0.0,0.0,0.0,0.0,0.0,0.0,0.0,0.0,0.0,0.0,0.0,0.0,0.0,0.0,0.0,0.0,0.0,0.0,0.0,0.0,0.0,0.0,0.0,0.0,0.0,0.0,0.0,0.0,0.0,0.0,0.0,0.0,0.0,0.0,0.0,0.0,0.0,0.0,0.0,0.0,0.0,0.0,0.0,0.0,0.0,-0.176,-0.1834,-0.2047,-0.1604,-0.018,0.1413,0.2923,0.4274,0.0,0.0,0.0,0.0,0.0,0.0,0.0,0.0,0.0,0.0,0.0,0.0,0.0,0.0,0.0,0.0,0.0,0.0,0.0,0.0,0.0,0.0,0.0,0.0,0.0,0.0,0.0,0.0,0.0,0.0,0.0,0.0,0.0,0.0,0.0,0.0,0.0,0.0,0.0,0.0,0.0,0.0,0.0,0.0,0.0,0.0,0.0,0.0,0.0,0.0,0.0,0.0,0.0,0.0,0.0,0.0,0.0,0.0,0.0,0.0,0.0,0.0,0.0,0.0,0.0,0.0,0.0,0.0,0.0,0.0,0.0,0.0,0.0,0.0,0.0,0.0,0.0,0.0,0.0,0.0,0.0,0.0,0.0,0.0,0.0,0.0,0.0,0.0,0.0,0.0,0.0,0.0,0.0,0.0,0.0,0.0,0.0,0.0,0.0,0.0,0.0,0.0,0.0,0.0,-0.199,-0.205,-0.213,-0.166,-0.0366,0.1734,0.3309,0.4081,0.0,0.0,0.0,0.0,0.0,0.0,0.0,0.0,0.0,0.0,0.0,0.0,0.0,0.0,0.0,0.0,0.0,0.0,0.0,0.0,0.0,0.0,0.0,0.0,0.0,0.0,0.0,0.0,0.0,0.0,0.0,0.0,0.0,0.0,0.0,0.0,0.0,0.0,0.0,0.0,0.0,0.0,0.0,0.0,0.0,0.0,0.0,0.0,0.0,0.0,0.0,0.0,0.0,0.0,0.0,0.0,0.0,0.0,0.0,0.0,0.0,0.0,0.0,0.0,0.0,0.0,0.0,0.0,0.0,0.0,0.0,0.0,0.0,0.0,0.0,0.0,0.0,0.0,0.0,0.0,0.0,0.0,0.0,0.0,0.0,0.0,0.0,0.0,0.0,0.0,0.0,0.0,0.0,0.0,0.0,0.0,0.0,0.0,0.0,0.0,0.0,0.0,0.0,-0.1916,-0.1778,-0.1913,-0.1959,-0.1483,-0.0236,0.1713,0.3288,0.4245,0.4118,0.0,0.0,0.0,0.0,0.0,0.0,0.0,0.0,0.0,0.0,0.0,0.0,0.0,0.0,0.0,0.0,0.0,0.0,0.0,0.0,0.0,0.0,0.0,0.0,0.0,0.0,0.0,0.0,0.0,0.0,0.0,0.0,0.0,0.0,0.0,0.0,0.0,0.0,0.0,0.0,0.0,0.0,0.0,0.0,0.0,0.0,0.0,0.0,0.0,0.0,0.0,0.0,0.0,0.0,0.0,0.0,0.0,0.0,0.0,0.0,0.0,0.0,0.0,0.0,0.0,0.0,0.0,0.0,0.0,0.0,0.0,0.0,0.0,0.0,0.0,0.0,0.0,0.0,0.0,0.0,0.0,0.0,0.0,0.0,0.0,0.0,0.0,0.0,0.0,0.0,0.0,0.0,0.0,0.0,0.0,0.0,0.0,0.0,0.0,0.0,0.0,0.0,-0.1908,-0.1634,-0.1789,-0.1803,-0.1288,-0.0024,0.1558,0.3042,0.4337,0.4596,0.0,0.0,0.0,0.0,0.0,0.0,0.0,0.0,0.0,0.0,0.0,0.0,0.0,0.0,0.0,0.0,0.0,0.0,0.0,0.0,0.0,0.0,0.0,0.0,0.0,0.0,0.0,0.0,0.0,0.0,0.0,0.0,0.0,0.0,0.0,0.0,0.0,0.0,0.0,0.0,0.0,0.0,0.0,0.0,0.0,0.0,0.0,0.0,0.0,0.0,0.0,0.0,0.0,0.0,0.0,0.0,0.0,0.0,0.0,0.0,0.0,0.0,0.0,0.0,0.0,0.0,0.0,0.0,0.0,0.0,0.0,0.0,0.0,0.0,0.0,0.0,0.0,0.0,0.0,0.0,0.0,0.0,0.0,0.0,0.0,0.0,0.0,0.0,0.0,0.0,0.0,0.0,0.0,0.0,0.0,0.0,0.0,0.0,0.0,0.0,0.0,0.0,-0.2033,-0.1789,-0.1801,-0.1797,-0.1203,0.0258,0.1294,0.2502,0.4036,0.5235,0.0,0.0,0.0,0.0,0.0,0.0,0.0,0.0,0.0,0.0,0.0,0.0,0.0,0.0,0.0,0.0,0.0,0.0,0.0,0.0,0.0,0.0,0.0,0.0,0.0,0.0,0.0,0.0,0.0,0.0,0.0,0.0,0.0,0.0,0.0,0.0,0.0,0.0,0.0,0.0,0.0,0.0,0.0,0.0,0.0,0.0,0.0,0.0,0.0,0.0,0.0,0.0,0.0,0.0,0.0,0.0,0.0,0.0,0.0,0.0,0.0,0.0,0.0,0.0,0.0,0.0,0.0,0.0,0.0,0.0,0.0,0.0,0.0,0.0,0.0,0.0,0.0,0.0,0.0,0.0,0.0,0.0,0.0,0.0,0.0,0.0,0.0,0.0,0.0,0.0,0.0,0.0,0.0,0.0,0.0,0.0,0.0,0.0,0.0,0.0,0.0,0.0,-0.204,-0.1717,0.0,-0.0788,0.026,0.1202,0.1913,0.296,0.4494,0.0,0.0,0.0,0.0,0.0,0.0,0.0,0.0,0.0,0.0,0.0,0.0,0.0,0.0,0.0,0.0,0.0,0.0,0.0,0.0,0.0,0.0,0.0,0.0,0.0,0.0,0.0,0.0,0.0,0.0,0.0,0.0,0.0,0.0,0.0,0.0,0.0,0.0,0.0,0.0,0.0,0.0,0.0,0.0,0.0,0.0,0.0,0.0,0.0,0.0,0.0,0.0,0.0,0.0,0.0,0.0,0.0,0.0,0.0,0.0,0.0,0.0,0.0,0.0,0.0,0.0,0.0,0.0,0.0,0.0,0.0,0.0,0.0,0.0,0.0,0.0,0.0,0.0,0.0,0.0,0.0,0.0,0.0,0.0,0.0,0.0,0.0,0.0,0.0,0.0,0.0,0.0,0.0,0.0,0.0,0.0,0.0,0.0,0.0,0.0,0.0,0.0,-0.2653,-0.2105,-0.1472,0.0,0.065,0.1755,0.18,0.2463,0.3454,0.4753,0.0,0.0,0.0,0.0,0.0,0.0,0.0,0.0,0.0,0.0,0.0,0.0,0.0,0.0,0.0,0.0,0.0,0.0,0.0,0.0,0.0,0.0,0.0,0.0,0.0,0.0,0.0,0.0,0.0,0.0,0.0,0.0,0.0,0.0,0.0,0.0,0.0,0.0,0.0,0.0,0.0,0.0,0.0,0.0,0.0,0.0,0.0,0.0,0.0,0.0,0.0,0.0,0.0,0.0,0.0,0.0,0.0,0.0,0.0,0.0,0.0,0.0,0.0,0.0,0.0,0.0,0.0,0.0,0.0,0.0,0.0,0.0,0.0,0.0,0.0,0.0,0.0,0.0,0.0,0.0,0.0,0.0,0.0,0.0,0.0,0.0,0.0,0.0,0.0,0.0,0.0,0.0,0.0,0.0,0.0,0.0,0.0,0.0,0.0,0.0,0.0,0.0,-0.2633,-0.2142,-0.1084,0.0716,0.2464,0.3036,0.1911,0.284,0.3845,0.0,0.0,0.0,0.0,0.0,0.0,0.0,0.0,0.0,0.0,0.0,0.0,0.0,0.0,0.0,0.0,0.0,0.0,0.0,0.0,0.0,0.0,0.0,0.0,0.0,0.0,0.0,0.0,0.0,0.0,0.0,0.0,0.0,0.0,0.0,0.0,0.0,0.0,0.0,0.0,0.0,0.0,0.0,0.0,0.0,0.0,0.0,0.0,0.0,0.0,0.0,0.0,0.0,0.0,0.0,0.0,0.0,0.0,0.0,0.0,0.0,0.0,0.0,0.0,0.0,0.0,0.0,0.0,0.0,0.0,0.0,0.0,0.0,0.0,0.0,0.0,0.0,0.0,0.0,0.0,0.0,0.0,0.0,0.0,0.0,0.0,0.0,0.0,0.0,0.0,0.0,0.0,0.0,0.0,0.0,0.0,0.0,0.0,0.0,0.0,0.0,0.0,0.0,-0.2532,-0.069,0.0951,0.1475,0.2126,0.2532,0.2567,0.2746,0.357,0.5215,0.0,0.0,0.0,0.0,0.0,0.0,0.0,0.0,0.0,0.0,0.0,0.0,0.0,0.0,0.0,0.0,0.0,0.0,0.0,0.0,0.0,0.0,0.0,0.0,0.0,0.0,0.0,0.0,0.0,0.0,0.0,0.0,0.0,0.0,0.0,0.0,0.0,0.0,0.0,0.0,0.0,0.0,0.0,0.0,0.0,0.0,0.0,0.0,0.0,0.0,0.0,0.0,0.0,0.0,0.0,0.0,0.0,0.0,0.0,0.0,0.0,0.0,0.0,0.0,0.0,0.0,0.0,0.0,0.0,0.0,0.0,0.0,0.0,0.0,0.0,0.0,0.0,0.0,0.0,0.0,0.0,0.0,0.0,0.0,0.0,0.0,0.0,0.0,0.0,0.0,0.0,0.0,0.0,0.0,0.0,0.0,0.0,0.0,0.0,0.0,0.0,0.0,-0.1475,0.0369,0.1887,0.2126,0.2323,0.2548,0.2876,0.3084,0.381,0.5233,0.0,0.0,0.0,0.0,0.0,0.0,0.0,0.0,0.0,0.0,0.0,0.0,0.0,0.0,0.0,0.0,0.0,0.0,0.0,0.0,0.0,0.0,0.0,0.0,0.0,0.0,0.0,0.0,0.0,0.0,0.0,0.0,0.0,0.0,0.0,0.0,0.0,0.0,0.0,0.0,0.0,0.0,0.0,0.0,0.0,0.0,0.0,0.0,0.0,0.0,0.0,0.0,0.0,0.0,0.0,0.0,0.0,0.0,0.0,0.0,0.0,0.0,0.0,0.0,0.0,0.0,0.0,0.0,0.0,0.0,0.0,0.0,0.0,0.0,0.0,0.0,0.0,0.0,0.0,0.0,0.0,0.0,0.0,0.0,0.0,0.0,0.0,0.0,0.0,0.0,0.0,0.0,0.0,0.0,0.0,0.0,0.0,0.0,0.0,0.0,0.0,0.0,0.0,0.1015,0.1962,0.2629,0.2818,0.2897,0.2944,0.3653,0.4348,0.4924,0.0,0.0,0.0,0.0,0.0,0.0,0.0,0.0,0.0,0.0,0.0,0.0,0.0,0.0,0.0,0.0,0.0,0.0,0.0,0.0,0.0,0.0,0.0,0.0,0.0,0.0,0.0,0.0,0.0,0.0,0.0,0.0,0.0,0.0,0.0,0.0,0.0,0.0,0.0,0.0,0.0,0.0,0.0,0.0,0.0,0.0,0.0,0.0,0.0,0.0,0.0,0.0,0.0,0.0,0.0,0.0,0.0,0.0,0.0,0.0,0.4916,0.0,0.0,0.0,0.0,0.0,0.0,0.0,0.0,0.0,0.0,0.0,0.0,0.0,0.0,0.0,0.0,0.0,0.0,0.0,0.0,0.0,0.0,0.0,0.0,0.0,0.0,0.0,0.0,0.0,0.0,0.0,0.0,0.0,0.0,0.0,0.0,0.0,0.0,0.0,0.0,0.0,0.0,0.0643,0.151,0.2591,0.2735,0.2911,0.3325,0.3818,0.4476,0.5322,0.6559,0.0,0.0,0.0,0.0,0.0,0.0,0.0,0.0,0.0,0.0,0.0,0.0,0.0,0.0,0.0,0.0,0.0,0.0,0.0,0.0,0.0,0.0,0.0,0.0,0.0,0.0,0.0,0.0,0.0,0.0,0.0,0.0,0.0,0.0,0.0,0.0,0.0,0.0,0.0,0.0,0.0,0.0,0.0,0.0,0.0,0.0,0.0,0.0,0.0,0.0,0.0,0.0,0.0,0.0,0.0,0.0,0.0,0.0,0.0,0.0,0.5129,0.0,0.0,0.0,0.0,0.0,0.0,0.0,0.0,0.0,0.0,0.0,0.0,0.0,0.0,0.0,0.0,0.0,0.0,0.0,0.0,0.0,0.0,0.0,0.0,0.0,0.0,0.0,0.0,0.0,0.0,0.0,0.0,0.0,0.0,0.0,0.0,0.0,0.0,0.0,0.0,0.0426,0.0964,0.1699,0.2684,0.2859,0.3114,0.3647,0.4122,0.4586,0.5045,0.6032,0.0,0.0,0.0,0.0,0.0,0.0,0.0,0.0,0.0,0.0,0.0,0.0,0.0,0.0,0.0,0.0,0.0,0.0,0.0,0.0,0.0,0.0,0.0,0.0,0.0,0.0,0.0,0.0,0.0,0.0,0.0,0.0,0.0,0.0,0.0,0.0,0.0,0.0,0.0,0.0,0.0,0.0,0.0,0.0,0.0,0.0,0.0,0.0,0.0,0.0,0.0,0.0,0.0,0.5366,0.5422,0.5565,0.5565,0.5399,0.5127,0.5429,0.539,0.5274,0.7484,0.0,0.0,0.0,0.0,0.0,0.0,0.0,0.0,0.0,0.0,0.0,0.0,0.0,0.0,0.0,0.0,0.0,0.0,0.0,0.0,0.0,0.0,0.0,0.0,0.4648,0.5021,0.4437,0.0,0.0,0.0,0.0,0.0,0.0,0.0,0.0,0.0,0.0,0.0,0.1058,0.1544,0.2148,0.2821,0.3056,0.3382,0.3924,0.4406,0.4731,0.4838,0.5615,0.6667,0.0,0.0,0.0,0.0,0.0,0.0,0.0,0.0,0.0,0.0,0.0,0.0,0.0,0.0,0.0,0.0,0.0,0.0,0.0,0.0,0.0,0.0,0.0,0.0,0.0,0.0,0.0,0.0,0.0,0.0,0.0,0.0,0.913,1.1571,0.0,0.0,0.0,0.0,0.0,0.0,0.0,0.0,0.0,0.0,0.0,0.0,0.0,0.5745,0.662,0.6639,0.6553,0.6395,0.6395,0.6735,0.7355,0.7355,0.6538,0.5195,0.6703,0.0,0.5127,0.5472,0.0,0.0,0.0,0.0,0.0,0.0,0.0,0.0,0.0,0.0,0.0,0.0,0.0,0.0,0.0,0.0,0.0,0.0,0.0,0.0,0.0,0.0,0.5081,0.5093,0.5725,0.6075,0.0,0.4561,0.4021,0.3906,0.3268,0.0,0.0,0.0,0.0,0.0,0.0,0.0,0.1683,0.2067,0.246,0.2864,0.3232,0.3661,0.4211,0.4527,0.5016,0.5771,0.5937,0.6659,0.8105,0.8582,0.0,0.0,0.0,0.0,0.0,0.0,0.0,0.0,0.0,0.0,0.0,0.0,0.0,0.0,0.0,0.0,0.0,0.0,0.0,0.0,0.0,0.0,0.0,0.0,0.0,0.0,0.0,0.0,0.0,0.9136,0.9641,1.2387,1.1849,1.1641,0.0,0.0,0.0,0.0,0.0,0.0,0.0,0.0,0.0,0.7136,0.7554,0.8013,0.8462,0.8462,0.8462,0.8462,0.8462,0.8174,0.7695,0.7695,0.7287,0.6606,0.7374,0.7727,0.7702,0.6467,0.7372,0.9526,0.0,0.0,0.0,0.0,0.7734,0.7548,0.7996,0.7916,0.0,0.7654,0.0,0.0,0.0,0.0,0.0,0.0,0.0,0.0,0.0,0.0,0.6042,0.6082,0.6305,0.6397,0.6068,0.569,0.5277,0.0,0.3651,0.3004,0.3348,0.0,0.0,0.0,0.0,0.2409,0.2269,0.2273,0.2529,0.3169,0.3536,0.3943,0.4486,0.4765,0.52,0.584,0.5879,0.6485,0.7806,0.8399,0.8919,0.0,0.0,0.0,0.0,0.0,0.0,0.0,0.0,0.0,0.0,0.0,0.0,0.0,0.0,0.0,0.0,0.0,0.0,0.0,0.0,0.0,0.0,0.0,0.0,0.0,0.0,0.0,0.0,0.9847,1.0352,1.2498,1.1773,1.1638,0.0,0.0,0.0,0.0,0.0,0.0,1.2686,1.2164,1.0614,0.8013,0.9087,0.9778,0.9905,1.047,1.0747,1.0747,1.0169,0.9331,0.8269,0.8269,0.8269,0.8269,0.8269,0.8899,0.978,0.8135,0.8085,0.9091,0.9398,0.952,0.9482,0.9237,0.8843,0.85,0.9035,0.891,0.8494,0.8498,0.8638,0.8613,0.7797,0.0,0.0,0.0,0.0,0.7382,0.6856,0.6828,0.6991,0.7018,0.6911,0.6768,0.6548,0.6518,0.6277,0.0,0.4307,0.3713,0.4139,0.0,0.0,0.0,0.0,0.2981,0.2764,0.2611,0.2853,0.3673,0.4063,0.4482,0.5002,0.5284,0.5623,0.6117,0.6146,0.6625,0.7734,0.8598,0.9244,0.9677,0.0,0.0,0.0,0.0,0.0,0.0,0.0,0.0,0.0,0.0,0.0,0.0,0.0,0.0,0.0,0.0,0.0,0.0,0.0,0.0,0.0,0.0,0.0,0.0,0.0,0.0,0.0,0.0,0.0,1.1488,1.2064,0.0,0.0,0.0,0.0,1.1579,0.9366,1.0188,1.5334,1.3166,1.1709,1.1531,1.0034,0.946,0.9893,1.1971,1.3035,1.301,1.0881,0.988,0.979,0.979,0.979,0.979,0.979,0.9816,0.9893,0.978,0.8575,0.6975,0.9066,1.0531,1.144,1.1101,1.07,1.0444,1.1058,1.0868,1.0427,1.0799,1.0769,1.0416,0.9603,0.9235,0.0,0.0,0.8101,0.8198,0.8324,0.8072,0.7752,0.7812,0.7727,0.7412,0.6669,0.6609,0.6518,0.0,0.5435,0.5048,0.4888,0.0,0.3991,0.3548,0.3462,0.3382,0.3111,0.329,0.3701,0.4381,0.4986,0.5493,0.589,0.6169,0.6543,0.7002,0.7031,0.7417,0.8227,0.9151,0.9755,0.9972,1.0834,0.0,0.0,0.0,0.0,0.0,0.0,0.0,0.0,0.0,0.0,0.0,0.0,0.0,0.0,0.0,0.0,0.0,0.0,0.0,0.0,0.0,0.0,0.0,0.0,0.0,0.0,0.0,0.0,1.3557,1.36,0.0,1.2811,1.2025,1.1633,1.1799,1.0937,1.1221,1.3107,1.397,1.357,1.185,1.1215,1.178,1.3669,1.2782,1.3164,1.4817,1.1493,0.9905,0.9905,0.9905,0.9905,0.9981,1.1425,1.1224,1.0006,1.145,1.0706,0.8951,1.1144,1.1911,1.173,1.1733,1.164,1.1599,1.1971,1.1582,1.0867,1.0703,1.0382,0.9963,0.9372,0.9309,0.9413,0.9161,0.9525,0.9999,1.0059,0.9998,0.9923,0.9969,0.9424,0.8789,0.8269,0.794,0.753,0.682,0.576,0.5106,0.5435,0.4903,0.4536,0.4691,0.4567,0.4526,0.4701,0.4648,0.4806,0.5401,0.5667,0.5907,0.6217,0.6333,0.6602,0.707,0.71,0.7625,0.8759,0.9066,0.967,1.0687,1.1093,1.1242,0.0,0.0,0.0,0.0,0.0,0.0,0.0,0.0,0.0,0.0,0.0,0.0,0.0,0.0,0.0,0.0,0.0,0.0,0.0,0.0,0.0,0.0,0.0,0.0,0.0,0.0,1.3909,1.5229,1.5096,1.4335,1.294,1.3082,1.3431,1.3798,1.381,1.3626,1.316,1.4839,1.4989,1.3196,1.2269,1.3077,1.5769,1.4045,1.3595,1.4408,1.1805,1.0716,1.0998,1.0244,1.0638,1.1953,1.3431,1.326,1.1994,1.3471,1.3219,1.198,1.2871,1.2839,1.237,1.3254,1.3264,1.2872,1.2983,1.2589,1.1949,1.1305,1.078,1.0323,0.9838,0.9872,1.0056,1.0073,1.0656,1.1345,1.1564,1.1384,1.1229,1.1664,1.0821,0.9894,0.978,0.9395,0.8891,0.8349,0.6827,0.5732,0.5996,0.5602,0.5311,0.5498,0.5436,0.5475,0.5793,0.5732,0.595,0.6666,0.6611,0.6805,0.7416,0.722,0.7338,0.7937,0.7986,0.8426,0.9453,0.9474,0.9894,1.0899,1.1348,1.1621,1.175,0.0,0.0,0.0,0.0,0.0,0.0,0.0,0.0,0.0,0.0,0.0,0.0,0.0,0.0,0.0,0.0,0.0,0.0,0.0,0.0,0.0,0.0,0.0,1.3946,1.4474,1.5227,1.6218,1.6407,1.5714,1.3803,1.4389,1.5676,1.7648,1.7811,1.7256,1.6076,1.5915,1.5856,1.5856,1.3295,1.3166,1.5769,1.5799,1.4509,1.1925,1.1925,1.2394,1.3225,1.1071,1.2183,1.5799,1.5799,1.5799,1.5799,1.5799,1.5799,1.5639,1.3934,1.3301,1.3552,1.5675,1.5573,1.4337,1.421,1.411,1.3834,1.2862,1.2257,1.1782,1.125,1.105,1.1078,1.1078,1.1442,1.2043,1.2936,1.2193,1.1533,1.2839,1.1852,1.07,1.1052,1.0829,1.053,1.051,0.8715,0.7086,0.6656,0.6557,0.6381,0.5957,0.6032,0.0,0.6376,0.6571,0.7094,0.8139,0.7899,0.8198,0.9518,0.8901,0.8812,0.9678,0.9743,0.9907,1.0318,1.0478,1.0541,1.0648,1.1614,1.2203,1.2345,0.0,0.0,0.0,0.0,0.0,0.0,0.0,0.0,0.0,0.0,0.0,0.0,0.0,0.0,0.0,0.0,0.0,0.0,0.0,0.0,0.0,0.0,1.6263,1.4766,1.5324,1.6233,1.7196,1.7639,1.8125,1.884,1.7289,1.6678,1.7732,1.7811,1.8574,2.0416,1.8423,1.7248,1.7248,1.5594,1.5049,1.5784,1.5799,1.5424,1.4704,1.4704,1.4842,1.5075,1.4472,1.4772,1.5799,1.5799,1.5799,1.5799,1.5799,1.5799,1.5741,1.5255,1.5104,1.5178,1.5784,1.5932,1.5907,1.5852,1.5811,1.5625,1.4588,1.3885,1.3369,1.2907,1.2463,1.2289,1.2959,1.2974,1.2936,1.3868,1.3826,1.3642,1.4038,1.3452,1.269,1.2234,1.1733,1.1198,1.0625,0.9988,0.9286,0.846,0.7797,0.739,0.7539,0.7583,0.0,0.8409,0.8655,0.8917,0.931,0.9426,0.9629,1.0008,0.9819,0.9874,1.0274,1.0274,1.0626,1.1343,1.1046,1.1022,1.1399,1.2007,1.1998,0.0,0.0,0.0,0.0,0.0,0.0,0.0,0.0,0.0,0.0,0.0,0.0,0.0,0.0,0.0,0.0,0.0,0.0,0.0,0.0,0.0,0.0,1.8098,1.8803,1.7197,1.7471,1.8065,1.87,1.9343,2.0111,2.1069,1.9915,1.9263,1.9664,1.9705,2.0467,2.2226,2.0653,1.9705,1.9705,1.7711,1.6644,1.6644,1.6644,1.6644,1.6644,1.608,1.5799,1.5799,1.5799,1.5799,1.5799,1.5799,1.5799,1.5799,1.5799,1.6458,0.0,0.0,0.0,0.0,0.0,1.7612,1.7743,1.7068,1.6811,1.6569,1.5588,1.4866,1.4401,1.4125,1.3611,1.3394,1.4432,1.4215,1.3974,1.5273,1.5263,1.5073,1.5681,1.5354,1.4717,1.4142,1.3628,1.3169,1.2704,1.2225,0.0,1.1456,0.9889,0.8803,0.9119,0.8987,0.905,0.9561,0.9775,1.0095,1.0608,1.0677,1.0822,1.1216,1.0987,0.0,0.0,0.0,1.1474,1.1778,1.162,0.0,0.0,0.0,1.1763,1.1341,0.0,0.0,0.0,1.0904,0.9717,0.0,0.0,0.0,0.0,0.0,0.0,0.0,0.0,0.0,0.0,0.0,0.0,0.0,0.0,0.0,0.0,2.046,2.1061,2.0347,2.0249,2.0287,2.0371,2.1102,2.1538,2.1368,2.1945,2.231,2.231,2.1989,2.1955,2.2293,0.0,0.0,0.0,0.0,1.8318,1.8318,1.8318,1.8149,1.7789,1.6591,1.5955,1.5814,1.6113,1.6083,1.5814,1.6113,1.6248,1.6218,1.5918,1.7342,1.9486,1.7163,1.6248,1.6518,1.8822,1.969,1.9492,1.8061,0.0,0.0,1.6323,1.5704,1.5274,1.5274,1.4839,1.4603,1.5671,1.5401,1.5151,1.6752,1.6455,1.6085,1.7371,1.7156,1.6562,1.6232,1.5951,1.5674,1.5482,1.4697,1.4214,1.4658,1.2354,1.0465,1.0638,1.0288,1.0071,1.0232,1.0371,1.0851,1.1899,0.0,0.0,1.2731,1.2246,1.1997,1.2197,1.2465,1.2364,1.1886,1.2139,1.1795,1.0669,1.1271,1.1648,1.1707,1.1632,1.1855,1.2267,1.0599,0.9517,0.0,0.0,0.0,0.0,0.0,0.0,0.0,0.0,0.0,0.0,0.0,0.0,0.0,0.0,0.0,1.9981,2.0537,2.0983,2.1617,2.181,2.1602,2.0943,2.1306,2.146,2.1118,2.1811,2.231,2.231,2.0061,1.9714,2.2175,2.231,2.231,2.231,2.1735,2.1448,2.1448,2.1448,2.0213,1.7811,0.0,0.0,1.5873,1.8002,1.7807,1.5918,1.8047,1.8961,1.8796,1.6683,1.7342,1.963,1.9121,1.8961,1.9021,1.9495,1.969,1.966,1.9345,1.8943,1.8518,1.8332,1.7939,1.7499,1.7499,1.7077,0.0,1.7303,1.7035,1.6737,1.7412,1.7415,1.7356,1.762,1.7584,1.7279,1.6647,1.6916,1.6819,1.5391,1.5415,1.5516,1.5115,1.3533,1.2203,1.1708,1.1554,1.1383,1.1108,1.1283,1.1758,1.2618,1.2771,1.2974,1.3389,1.3303,1.3154,1.301,1.302,1.2859,1.2389,1.2783,1.2714,1.2095,1.2602,1.2293,1.1145,1.1545,1.1559,1.1202,1.0785,1.0328,0.0,0.0,0.0,0.0,0.0,0.0,0.0,0.0,0.0,0.0,0.0,1.7927,0.0,0.0,2.0461,2.1971,2.2075,2.2212,2.2876,2.2584,2.2049,2.1368,2.1675,2.1869,2.1691,2.2049,2.231,2.231,2.0906,2.072,2.2226,2.231,2.231,2.231,2.231,2.231,2.231,2.231,2.1549,2.0061,2.0061,1.8909,1.6847,1.8155,1.8028,1.6959,1.9775,2.0991,2.0831,1.8633,1.8527,1.969,1.969,1.969,1.969,1.969,1.969,1.969,1.969,1.9645,1.9528,1.9066,1.8864,1.8835,1.8835,1.844,1.8171,1.9174,1.8786,1.8253,1.9137,1.9106,1.8936,1.9277,1.9355,1.9168,1.8439,1.8579,1.847,1.7195,1.6981,1.6889,1.6527,1.556,1.4576,1.3731,1.3142,1.2802,1.2802,1.2287,1.2313,1.3263,1.3125,1.3109,1.337,1.3293,1.3251,1.322,1.3198,1.3094,1.2873,1.2838,1.2615,1.2174,1.2126,1.1605,1.0649,1.1134,1.1204,1.0877,1.0461,1.016,0.0,0.0,0.0,0.0,0.0,0.0,0.0,0.0,1.7926,1.8513,1.9009,1.9672,2.0803,2.1712,2.2684,2.3786,2.3799,2.3709,2.3913,2.2987,2.2192,2.1948,2.213,2.231,2.231,2.231,2.231,2.231,2.2525,2.2668,2.2668,2.2415,2.231,2.231,2.231,2.231,2.231,2.231,2.231,2.231,2.231,2.1042,1.8667,1.8667,1.8667,1.8826,2.1245,2.231,2.218,2.0764,2.0208,2.0174,1.9818,1.969,1.969,1.969,1.9822,1.9969,1.9955,2.0154,2.0326,1.9528,1.9549,1.9854,1.9854,1.9489,1.9339,2.0638,2.022,1.9624,2.0734,2.0606,2.0318,2.0863,2.0991,2.083,2.0217,2.0215,2.0054,1.9199,1.8711,1.8313,1.7876,1.7417,1.6735,1.5565,1.4646,1.4164,1.428,1.3243,1.2827,1.37,1.335,1.3188,1.3441,1.3225,1.3091,1.3057,1.3163,1.3132,1.3055,1.2758,1.2444,1.2054,1.1627,1.1175,1.0686,1.1023,1.1158,1.113,1.0204,0.9793,1.5595,1.6812,1.8135,1.8035,1.8917,2.0,0.0,0.0,2.1759,2.2428,2.2623,2.2705,2.2849,2.357,2.4149,2.433,2.436,2.4375,2.4414,2.319,2.248,2.2972,2.2581,2.231,2.231,2.231,2.231,2.231,2.3353,2.3994,2.3994,2.2917,2.231,2.231,2.231,2.231,2.231,2.231,2.231,2.231,2.231,2.2124,2.1803,2.1803,2.1803,2.1837,2.2158,2.231,2.2282,2.2077,2.202,2.1857,2.0311,1.969,1.969,1.969,2.0192,2.085,2.0838,2.0875,2.0886,2.0811,2.0797,2.0846,2.0846,2.0798,2.075,2.0943,2.0879,2.0799,2.0959,2.0943,2.0911,2.0975,2.0991,2.0894,2.0528,2.0947,2.1026,1.9674,1.9899,1.9771,1.8173,1.8068,1.7666,1.5992,1.5647,1.5248,1.4405,1.3864,1.3603,1.377,1.3968,1.4139,1.4351,1.4014,1.3424,1.2638,1.2978,1.301,1.2506,1.2834,1.2993,1.2877,1.2795,1.2559,1.2068,1.212,1.2108,1.2034,1.0733,1.0131,1.7771,1.8424,1.896,0.0,2.081,2.1773,2.1885,2.2385,2.2977,2.3439,2.3753,2.4111,2.4785,2.5394,2.5947,0.0,2.5837,2.53,2.5108,2.3465,2.2651,2.3649,2.3558,2.3116,2.2377,2.2968,2.3422,2.3422,2.3894,2.419,2.419,2.3707,2.3067,2.2338,2.231,2.231,2.231,2.231,2.231,2.231,2.231,2.231,2.231,2.231,2.231,2.231,2.231,2.231,2.231,2.231,2.231,2.2225,2.1493,2.1229,2.1103,2.0085,2.0553,2.1758,2.1744,2.1542,2.1231,2.1055,2.115,2.1337,2.1337,2.1337,2.1444,2.1886,2.1984,2.204,2.2245,2.2135,2.1984,2.1984,2.1878,2.1728,2.1573,2.1786,2.1714,2.0686,2.0736,2.0565,1.9323,1.9234,1.8935,1.7795,1.6868,1.6174,1.5805,1.4874,1.416,1.3815,1.399,1.4079,1.3935,1.3928,1.3778,1.3457,1.3626,1.3753,1.3852,1.3395,1.3128,1.3125,1.251,1.2095,1.189,1.2118,1.2213,1.218,1.1045,1.0541,1.9413,2.0102,0.0,2.1907,2.3415,2.4506,2.4047,2.4613,2.5246,2.5268,2.533,2.5535,2.6144,2.6445,2.6881,2.7832,2.7325,2.6446,2.5294,2.3794,2.3164,2.4074,2.419,2.3852,2.2892,2.3664,2.419,2.419,2.419,2.419,2.419,2.419,2.3771,2.2859,2.247,2.231,2.231,2.231,2.231,2.231,2.231,2.231,2.231,2.231,2.231,2.231,2.231,2.231,2.231,2.231,2.231,2.231,2.231,2.231,2.2152,2.0862,2.1229,2.231,2.231,2.2003,2.1615,2.1415,2.1554,2.1794,2.1794,2.1849,2.2017,2.2565,2.2772,2.288,2.3141,2.3021,2.2848,2.2848,2.2695,2.2561,2.2561,2.2561,2.239,2.1867,2.1687,2.1352,2.0577,2.0382,2.0078,1.9316,1.8115,1.7227,1.6969,1.5719,1.4703,1.4243,1.4266,1.4199,1.3945,1.4151,1.4277,1.4264,1.4297,1.4488,1.4881,1.4064,1.353,1.3367,1.2606,1.2138,1.1969,1.2256,1.2412,1.2365,1.15,1.0965,1.9521,2.1593,2.3624,2.4717,2.6989,2.8882,2.8413,2.9233,2.9875,2.9113,2.834,2.7568,2.6833,2.6318,2.65,2.795,2.8597,2.7816,2.4684,2.4169,2.4151,2.4208,2.419,2.417,0.0,2.417,2.419,2.419,2.419,2.419,2.419,2.419,2.417,2.4151,2.2943,2.231,2.231,2.231,2.231,2.231,2.231,2.231,2.231,2.231,2.231,2.231,2.231,2.231,2.231,2.231,2.231,2.231,2.231,2.231,2.2282,2.2237,2.2237,2.231,2.231,2.2282,2.2282,2.2254,2.2282,2.2282,2.2282,2.2446,2.2669,2.2695,2.2947,2.3189,2.3189,2.3189,2.3189,2.3189,2.3165,2.3165,2.3165,2.3165,2.3165,2.3147,2.2888,2.2418,2.1673,2.1327,2.0873,2.0086,1.9333,1.8478,1.7427,1.6109,1.5247,1.5155,1.494,1.4855,1.5048,1.5189,1.508,1.4691,1.4801,1.4841,1.4815,1.4784,1.4446,1.381,1.3726,1.3474,1.2842,1.2852,1.2861,1.2861,1.2129,1.1416,2.2453,2.4653,2.6836,2.8059,2.9411,3.0414,3.0264,3.0467,3.0358,2.9148,2.7834,2.6685,2.5978,2.5721,2.5929,2.6959,2.8192,2.8608,2.7548,2.5548,2.419,2.419,2.419,0.0,0.0,0.0,0.0,2.419,2.419,2.419,2.419,2.419,2.419,2.419,2.3792,2.3558,2.3558,2.3558,2.314,2.231,2.231,2.231,2.231,2.231,2.231,2.231,2.231,2.231,2.231,2.231,2.231,2.2406,2.338,2.3969,2.4089,2.2794,2.231,2.231,2.231,2.231,2.231,2.231,2.2632,2.2936,2.2462,2.285,2.3414,2.313,2.3259,2.3588,2.3816,2.3692,2.3522,2.3522,2.3369,2.3189,2.3189,2.3189,2.3189,2.3189,2.3117,2.2884,2.2416,2.2272,2.1876,2.0942,1.9332,1.7925,1.7074,1.6191,1.5621,1.5594,1.5525,1.555,1.5742,1.5813,1.5847,1.5896,1.5943,1.5953,1.5911,1.5524,1.5024,1.4422,1.4003,1.3505,1.2881,1.2881,1.2881,1.2881,1.2138,1.1665,2.5309,2.7714,2.9887,3.0951,3.2024,3.2672,3.2073,3.1615,3.0783,2.8944,2.7276,2.5814,2.4742,2.4538,2.4704,2.5236,2.6429,2.7695,2.8828,2.6871,2.5317,2.5317,2.5519,2.5518,0.0,0.0,0.0,2.4264,2.419,2.419,2.419,2.419,2.419,2.419,2.419,2.419,2.419,2.419,2.3558,2.231,2.231,2.2552,2.2968,2.2968,2.273,2.231,2.231,2.257,2.2926,2.2474,2.244,2.2779,2.4298,2.5017,2.5065,2.3883,2.2979,2.231,2.231,2.231,2.2344,2.2615,2.3119,2.3574,2.3352,2.3734,2.4204,2.3892,2.3844,2.3917,2.4151,2.4036,2.3876,2.3876,2.3714,2.3566,2.3566,2.3566,2.3566,2.3566,2.3369,2.3117,2.2923,2.2686,2.2173,2.111,1.964,1.8391,1.7647,1.7042,1.6531,1.6173,1.6323,1.6442,1.6325,1.6586,1.6803,1.7002,1.6875,1.6767,1.6782,1.6225,1.5644,1.5005,1.4422,1.3826,1.3238,1.3017,1.2881,1.2881,1.2403,1.203,2.807,3.0767,3.2832,3.343,3.4736,3.5453,3.377,3.2638,3.1186,2.854,2.6692,2.4984,0.0,0.0,2.2978,2.307,2.3786,2.5403,2.8433,2.8017,2.7403,0.0,0.0,0.0,0.0,0.0,0.0,2.4506,0.0,2.4282,2.419,2.419,2.419,2.419,2.4355,2.4447,2.4447,2.4281,2.3558,2.231,2.2366,2.3042,2.419,2.419,2.3535,2.2405,2.2405,2.31,2.4112,2.289,2.2743,2.3412,2.5094,2.5543,2.5237,2.5497,2.4259,2.24,2.2349,2.2383,2.2525,2.3214,2.3773,2.4276,2.4938,2.5065,2.4992,2.4919,2.4593,2.4245,2.4208,2.419,2.419,2.419,2.419,2.419,2.419,2.419,2.419,2.419,2.3671,2.3189,2.3189,2.2712,2.19,2.0747,2.03,1.9757,1.8975,1.8451,1.7792,1.6847,1.7324,1.7458,1.6861,1.752,1.7921,1.7964,1.7554,1.7353,1.7312,1.6795,1.6238,1.5632,1.5062,1.4422,1.3815,1.3248,1.2929,1.2881,1.2881,1.251,3.1654,3.4342,3.6619,3.6132,3.5787,3.5136,3.3412,3.1402,2.9262,2.7115,2.4893,2.2941,0.0,0.0,0.0,2.4041,2.537,0.0,2.6842,2.8091,0.0,2.8112,0.0,2.8927,2.7272,2.7813,0.0,0.0,2.5886,2.5243,2.4245,2.419,2.419,2.419,2.6539,2.7787,2.7787,2.5401,2.3558,2.231,2.3242,2.3894,2.419,2.419,2.4034,2.3728,2.3728,2.3894,2.4172,2.3858,2.3801,2.4223,2.7042,2.7055,2.5533,2.5687,2.495,2.3788,2.317,2.3385,2.3954,2.4112,2.5033,2.6012,2.5597,2.5997,2.6381,2.5226,2.4993,2.4962,2.4355,2.419,2.419,2.419,2.419,2.419,2.419,2.419,2.419,2.419,2.3671,2.3189,2.3189,2.2712,2.2215,2.1883,2.1215,2.0177,1.8577,1.8052,1.7736,1.7458,1.7593,1.7817,1.8179,1.8371,1.8532,1.8619,1.8166,1.7706,1.7312,1.6795,1.6238,1.5632,1.5454,1.4869,1.3815,1.3637,1.3334,1.2881,1.2881,1.2774,3.4599,3.6839,3.851,3.721,3.6497,3.536,3.2429,3.0079,2.7773,2.5082,2.3151,2.1587,2.0494,2.1235,0.0,0.0,0.0,0.0,2.6615,2.7827,2.8771,0.0,3.0051,0.0,2.8804,2.9774,2.966,0.0,2.6597,2.5503,2.4282,2.5548,2.6319,2.6319,2.8058,2.8994,2.8994,2.7218,2.5252,2.314,2.3873,2.419,2.419,2.419,2.419,2.419,0.0,2.4997,2.6319,2.6319,2.5474,2.4521,2.7738,2.7353,2.5066,2.587,2.5362,2.4295,2.4332,2.4728,2.5184,2.4949,2.5831,2.7002,2.6877,2.688,2.6749,2.5899,2.526,2.4759,2.4318,2.419,2.419,2.419,2.419,2.419,2.419,2.419,2.4151,2.4016,2.3671,2.3323,2.3021,2.2704,2.2381,2.2061,2.1568,2.075,1.9293,1.8806,1.8478,1.8194,1.8403,1.8612,1.8687,1.8972,1.9179,1.9266,1.8727,1.8341,1.8027,1.7271,1.6697,1.6361,1.584,1.5264,1.4584,1.4329,1.4014,1.3705,1.3705,1.3563,3.712,3.8649,3.9356,3.7549,3.6823,3.5445,3.1126,2.8672,2.6339,2.2954,2.1604,2.0745,1.974,2.0923,2.213,2.2468,0.0,2.5499,2.7392,2.7831,2.8517,2.9994,3.127,3.1698,3.0833,3.216,3.1872,2.8959,2.7399,2.5894,2.4278,2.7248,2.8994,2.8994,2.8994,2.8773,2.8374,2.8773,2.7383,2.4208,2.463,2.4612,2.419,2.419,2.419,2.4226,2.4649,2.6413,2.9012,2.8998,2.7365,2.5073,2.7436,2.6655,2.4374,2.5762,2.5502,2.4537,2.545,2.6016,2.6266,2.5922,2.6602,2.7641,2.8297,2.7742,2.6869,2.6667,2.5585,2.4465,2.4263,2.419,2.419,2.419,2.419,2.419,2.419,2.419,2.4113,2.3816,2.3714,2.3558,2.307,2.2867,2.2556,2.1995,2.1751,2.1383,2.0583,2.007,1.9536,1.8897,1.9346,1.945,1.8882,1.9361,1.969,1.969,1.9207,1.8893,1.8893,1.7947,1.7394,1.7312,1.6318,1.5764,1.5588,1.505,1.4789,1.4698,1.4698,1.4422,3.9159,4.0081,4.0335,3.8575,3.6482,3.3868,3.0211,2.694,0.0,0.0,2.0809,2.015,1.9957,2.0621,2.1972,2.4288,2.4835,2.6032,2.9098,2.9742,3.0209,0.0,0.0,0.0,0.0,0.0,0.0,0.0,0.0,2.8733,2.4432,2.726,2.8994,2.8994,2.8994,2.7732,2.5052,2.7677,2.7383,2.4226,2.6906,2.6778,2.419,2.419,2.419,2.4355,2.7016,0.0,2.9001,2.9001,2.8663,2.797,2.5847,2.4688,2.4226,2.4504,2.4997,2.5521,2.5491,2.6371,2.75,2.7415,2.7986,2.8745,2.885,2.8769,2.8297,2.6979,2.641,2.5878,2.4557,2.419,2.419,2.419,2.419,2.419,2.419,2.419,2.417,2.4113,2.3896,2.3869,2.4405,2.3726,2.3225,2.3542,2.2705,2.1857,2.1444,2.0667,2.0008,1.9561,1.9615,1.963,1.9525,1.9615,1.969,1.969,1.9207,1.8893,1.8893,1.8302,1.7747,1.7312,1.7092,1.6532,1.5588,1.5499,1.5186,1.4698,1.4698,1.4652,4.0859,4.115,4.0789,3.9426,3.6752,3.3405,2.9431,0.0,0.0,0.0,2.0287,1.9971,1.99,2.0592,0.0,2.4055,2.482,2.6166,2.9065,3.0011,0.0,3.141,0.0,0.0,0.0,0.0,0.0,0.0,0.0,3.1607,2.6964,2.8169,2.8994,2.8994,2.8994,2.8264,2.6722,2.6576,2.5731,2.4226,2.5768,2.5695,2.4263,2.5933,2.6704,2.6796,2.8315,2.8997,2.9003,2.9012,2.8994,2.8847,2.731,2.6704,2.6591,2.5753,2.596,2.6631,2.664,2.7149,2.7867,2.8297,2.8705,2.8994,2.8994,2.8723,2.8209,2.7438,2.6924,2.6337,2.5126,2.4814,2.4704,2.43,2.419,2.43,2.4722,2.4502,2.4447,2.5291,2.4641,2.4151,2.4779,2.4105,2.3489,2.3573,2.292,2.2279,2.1915,2.135,2.0813,2.0413,2.0379,2.0277,2.0035,2.0,1.9909,1.9711,1.9442,1.9332,1.9332,1.8817,1.8419,1.8145,1.7585,1.705,1.6489,1.6213,1.592,1.5656,1.5656,1.5466,4.168,4.168,4.0878,3.9518,3.6672,3.3062,2.8669,2.5608,0.0,2.0536,2.0011,1.9971,1.9851,2.0486,2.1559,0.0,2.4164,2.565,2.8288,2.9646,3.077,0.0,0.0,0.0,0.0,0.0,0.0,0.0,0.0,0.0,2.9209,2.8994,2.8994,2.8994,2.8994,2.8677,2.7981,2.6148,2.5236,2.5236,2.5236,2.5236,2.5309,2.786,2.8994,2.8994,2.8994,2.8994,2.8994,2.8994,2.8994,2.8994,2.8994,2.8865,2.8526,2.7492,2.725,2.7515,2.7716,2.789,2.8169,2.8787,2.8994,2.8994,2.8994,2.8576,2.8026,2.7842,2.7346,2.6667,2.586,2.5678,2.5493,2.485,2.4704,2.4887,2.5511,2.5162,2.5034,2.6135,2.5309,2.4571,2.4925,2.4342,2.3747,2.3601,2.3126,2.2678,2.2289,2.1948,2.1628,2.1323,2.1103,2.0862,2.0483,2.0449,2.0246,1.9839,1.9854,1.9782,1.9711,1.9281,1.9006,1.8893,1.8066,1.7544,1.7312,1.6993,1.6795,1.668,1.6795,1.66,4.084,4.1269,4.0605,3.8144,3.5411,3.2187,2.7878,0.0,2.2307,2.0461,2.0031,2.0001,1.9991,2.0064,2.069,2.2418,2.2783,2.3953,2.7091,2.9142,3.0854,0.0,0.0,0.0,0.0,0.0,0.0,0.0,0.0,0.0,2.915,2.8994,2.8994,2.8994,2.8994,2.7606,2.4675,2.726,2.8576,2.8576,2.8576,2.8576,2.8553,2.8865,2.8994,2.8994,2.8994,2.8994,0.0,2.8994,2.8994,2.8994,2.8994,2.8393,2.7643,2.8471,2.8361,2.7785,2.7779,2.8278,2.8902,2.8975,2.8994,2.8994,2.8994,2.8938,2.8741,2.8007,2.775,2.7493,2.6704,2.6502,2.6465,2.641,2.6392,2.641,2.6465,2.6429,2.6209,2.5603,2.5403,2.5291,2.5344,2.4702,2.4292,2.4667,2.3832,2.3045,2.2695,2.2409,2.2209,2.218,2.1462,2.0991,2.0926,2.0926,2.0731,2.028,2.0246,2.0089,1.9726,1.9639,1.9406,1.8893,1.8817,1.8263,1.7312,1.7747,1.7706,1.7229,1.7747,1.7933,4.0293,4.1191,4.0683,3.8549,3.5224,3.1466,2.7612,0.0,2.1634,2.0401,2.0107,2.006,2.0011,1.9998,2.0554,2.2258,2.2578,2.3572,2.6397,2.8371,0.0,0.0,0.0,0.0,0.0,0.0,0.0,0.0,0.0,0.0,3.1708,2.9959,2.8994,2.8994,2.8994,2.8375,2.71,2.6435,2.709,2.8994,2.8994,2.8994,2.8994,2.8994,2.8994,2.8994,2.8994,2.8994,0.0,2.8994,2.8994,2.8994,2.8994,2.8732,2.8411,2.8847,2.8787,2.8507,2.8517,2.8741,2.8994,2.8994,2.8994,2.8994,2.8994,2.8994,2.892,2.8613,2.8521,2.8338,2.753,2.6961,2.6612,2.6612,2.6612,2.6741,2.7218,2.6943,2.6796,2.7438,2.6392,2.555,2.6043,2.5052,2.4203,2.4169,2.3629,2.3069,2.2746,2.2463,2.231,2.231,2.1991,2.1675,2.1385,2.1368,2.1181,2.0764,2.0449,2.0212,2.007,1.9854,1.9603,1.9406,1.9043,1.8688,1.8263,1.8145,1.7987,1.7787,1.7987,1.8106,3.8242,3.9648,3.955,3.7485,3.4277,3.0624,0.0,0.0,2.1265,2.0406,2.0171,2.0107,2.0031,2.0019,2.047,2.187,2.236,2.3381,2.5734,2.772,0.0,0.0,0.0,0.0,0.0,0.0,0.0,0.0,0.0,0.0,3.328,3.1025,2.9489,2.9012,2.8994,2.8994,2.8994,2.6759,2.6274,2.7588,2.8544,2.8994,2.9017,2.9293,2.9251,2.8994,2.8994,2.916,0.0,2.9416,2.9251,2.904,2.9314,2.9293,2.9134,2.923,2.9206,2.9112,2.9112,2.9067,2.8994,2.8994,2.914,2.9329,2.9067,2.8994,2.8994,2.8994,2.8994,2.8925,2.8594,2.7915,2.731,2.731,2.731,2.7475,2.8026,2.7714,2.7512,2.815,2.6924,2.5768,2.5878,2.5144,2.4388,2.3933,2.3674,2.3382,2.2908,2.2544,2.231,2.231,2.231,2.218,2.184,2.1794,2.1628,2.1213,2.0878,2.0567,2.0314,2.0035,1.9818,1.969,1.9332,1.9043,1.8893,1.8688,1.8496,1.8341,1.8496,1.8496,3.4062,3.6035,3.6699,3.4012,3.2014,2.9572,0.0,2.282,2.1273,2.0465,2.026,2.018,2.0098,2.0031,2.0266,2.1085,2.1945,2.3144,2.4969,2.7281,0.0,0.0,0.0,0.0,0.0,0.0,0.0,0.0,0.0,0.0,3.3045,3.1968,3.0631,2.9049,2.8994,2.8994,2.8994,2.8957,2.7383,2.4283,2.7474,2.8994,2.9021,2.9962,2.988,2.8994,2.8994,2.9533,0.0,3.0398,2.9832,2.9093,3.0022,2.9981,2.9434,2.9763,2.9678,2.9392,2.9392,2.9225,2.8994,2.8994,2.9549,3.0044,2.9232,2.8994,2.8994,2.8994,2.8994,2.9177,2.9971,2.9586,2.8975,2.8975,2.8975,2.8975,2.8975,2.8975,2.8498,2.6943,2.6612,2.608,2.4502,2.4869,2.5127,2.4318,2.4293,2.4098,2.3295,2.266,2.231,2.231,2.231,2.231,2.2282,2.2282,2.2106,2.1612,2.1582,2.1197,2.0348,2.0314,2.0089,1.9726,1.969,1.9442,1.8893,1.9442,1.9406,1.8893,1.9442,1.9406,3.0504,3.2024,3.2365,3.0271,2.8442,2.6468,2.3833,2.1902,2.0619,2.035,2.026,2.018,2.0107,2.006,2.0456,2.1862,2.2324,2.3322,0.0,0.0,0.0,0.0,0.0,0.0,0.0,0.0,0.0,0.0,0.0,0.0,3.3827,3.299,3.1422,2.9072,2.8994,2.8994,2.8994,2.8994,2.8489,2.7474,2.8507,2.8994,2.9021,2.9977,3.0228,2.9962,2.9962,3.0128,3.0398,3.0398,3.0215,2.9992,3.0286,3.0963,3.163,3.0358,3.0139,3.0415,2.9795,2.9551,2.9456,2.9312,2.9823,3.0372,2.9945,2.9824,2.9714,2.914,2.9402,2.9751,2.9475,2.9604,2.9696,2.9122,2.8994,2.8994,2.8994,2.8994,2.8682,2.7622,2.742,2.6906,2.5311,2.5676,2.567,2.4096,2.4356,2.4302,2.301,2.2686,2.25,2.2338,2.231,2.231,2.231,2.231,2.2237,2.2106,2.1794,2.1491,2.1197,2.091,2.0565,2.0124,2.0124,1.9879,1.9442,1.9603,1.9603,1.9442,1.9603,1.9603,2.6888,2.8447,2.8973,2.7482,2.6054,0.0,0.0,2.1273,2.0312,2.0312,2.0269,2.0216,2.0126,2.0069,2.0582,2.2277,2.2531,2.341,0.0,0.0,0.0,0.0,0.0,0.0,0.0,0.0,0.0,0.0,0.0,0.0,3.4043,3.329,3.2212,3.0852,2.9641,2.8994,2.8994,2.8994,2.8994,2.8994,2.8994,2.9185,2.9551,3.0128,3.0398,3.0398,3.0398,3.0398,0.0,3.0398,3.0343,3.0209,3.0355,3.0989,3.1673,3.0519,3.0331,3.0549,3.0002,2.999,3.0112,2.9587,3.0225,3.1205,3.1251,3.0967,3.0558,3.0063,3.0063,3.0081,2.9586,2.9604,2.9622,2.9104,2.8994,2.8994,2.8994,2.8994,2.8778,2.7952,2.7787,2.7383,2.608,2.6264,2.6091,2.4553,2.4559,2.426,2.3052,2.2704,2.249,2.2338,2.231,2.231,2.231,2.231,2.231,2.231,2.2032,2.1794,2.1628,2.1368,2.1023,2.0583,2.0382,2.0246,2.0174,2.0,1.9945,1.9909,1.9782,1.969,0.0,2.52,2.6227,2.5343,2.4523,2.3489,2.1806,2.085,0.0,2.0312,2.0304,2.028,2.0203,2.0174,2.0708,2.241,2.273,2.3593,0.0,0.0,0.0,0.0,0.0,0.0,0.0,0.0,0.0,0.0,0.0,3.3807,3.3807,3.3091,3.2981,3.3605,3.0717,2.9122,2.8994,2.8994,2.8994,2.8994,2.8994,2.9476,3.0398,3.0398,3.0398,0.0,3.0398,3.0398,3.0398,3.0398,3.0228,2.9969,3.0286,3.0312,3.0176,3.0407,3.0369,3.0219,3.0219,3.0611,3.0993,3.0096,3.0909,3.2366,3.2915,3.2297,3.1384,3.1384,3.0889,3.0356,3.0301,2.9732,2.914,2.9085,2.903,2.8994,2.8994,2.8994,2.8778,2.7952,2.7842,2.7603,2.6759,2.6649,2.6392,2.5491,2.482,2.414,2.3271,2.2686,2.2321,2.231,2.2338,2.2321,2.231,2.231,2.231,2.231,2.231,2.2106,2.1658,2.1658,2.146,2.1055,2.0583,2.055,2.0991,2.055,2.0348,2.0348,1.998,1.9782,2.1081,0.0,2.1797,2.1578,2.1364,2.1109,0.0,0.0,0.0,0.0,0.0,2.0399,2.0996,2.0969,2.1453,2.3225,2.396,2.5021,2.7141,0.0,0.0,0.0,0.0,0.0,0.0,0.0,0.0,0.0,0.0,3.3807,3.3807,3.3623,3.3036,3.199,3.1214,3.0246,2.9012,2.8994,2.8994,2.8994,2.8994,2.9476,3.0398,3.0398,3.0398,3.0398,3.0398,3.0398,3.0398,3.0398,3.0355,3.0299,3.0367,3.0905,3.1578,3.1455,3.1751,3.2211,3.2211,3.2333,3.2493,3.273,3.2805,3.2953,3.3692,3.2741,3.1384,3.1384,3.1715,3.1898,3.1274,3.098,3.0687,3.0063,2.9457,2.8994,2.8994,2.8994,2.8778,2.7952,2.8301,2.8282,2.6851,2.7108,2.6951,2.5274,2.4883,2.4325,2.3003,2.2686,2.2527,2.2321,2.2473,2.2527,2.2338,2.231,2.231,2.231,2.231,2.2237,2.2135,2.2135,2.1899,2.146,2.1055,2.0894,2.0991,2.0894,2.0829,2.0829,2.0731,2.0698,2.0306,2.0299,2.0306,2.0306,2.0296,2.0312,2.0312,0.0,0.0,0.0,0.0,2.0485,2.1263,2.1346,2.1858,2.3568,2.4511,0.0,0.0,0.0,0.0,0.0,0.0,0.0,0.0,0.0,0.0,0.0,3.3458,3.3421,3.377,3.333,3.221,3.0356,3.1024,3.0633,2.9012,2.8994,2.8994,2.9017,2.9436,2.9896,3.0398,3.0398,3.0398,3.0448,3.121,3.1415,3.121,3.1734,3.18,3.1545,3.1545,3.1775,3.2071,3.1948,3.2314,3.2891,3.2891,3.241,3.2026,3.3748,3.4055,3.3821,3.4116,3.3408,3.2412,3.2045,3.2265,3.2339,3.1146,3.1109,3.1091,2.9934,2.9604,2.9457,2.9067,2.8994,2.8865,2.8448,2.8705,2.8718,2.786,2.7457,2.69,2.5852,2.4918,2.4006,2.3049,2.2797,2.2599,2.2321,2.2426,2.2463,2.231,2.231,2.231,2.231,2.231,2.231,2.231,2.231,2.2077,2.1628,2.1615,2.1477,2.1275,2.1275,2.1275,2.1275,2.1086,2.0991,2.0295,2.0388,2.0446,2.0331,2.0312,2.0312,2.0312,0.0,0.0,0.0,0.0,0.0,2.1436,2.1618,0.0,0.0,0.0,0.0,0.0,0.0,0.0,0.0,0.0,0.0,0.0,0.0,0.0,0.0,3.2999,3.2816,3.3293,3.2449,3.1054,2.9049,3.0312,3.0385,2.9012,2.8994,2.8994,2.9017,2.9815,3.0188,3.0202,3.0253,3.0283,3.0379,0.0,0.0,3.2415,3.3171,3.3198,3.2769,3.2583,3.2391,3.2218,3.2218,3.2506,3.2949,3.3199,3.2372,3.1604,3.4149,3.4851,3.4653,3.4423,3.4093,3.366,3.3015,3.2732,3.2265,3.0779,3.0889,3.1017,2.9549,2.9806,3.0136,2.9195,2.9085,2.914,2.9012,2.8994,2.8994,2.8929,2.7724,2.6735,2.6648,2.5052,2.3746,2.3431,2.3017,2.2704,2.2453,2.2443,2.2415,2.2377,2.236,2.2349,2.231,2.231,2.231,2.231,2.231,2.2106,2.1718,2.2106,2.2106,2.1718,2.1718,2.1718,2.1688,2.1354,2.1197,2.0311,2.08,2.1158,2.0465,2.0312,2.0312,2.0312,0.0,0.0,0.0,0.0,0.0,0.0,2.2367,2.2848,0.0,0.0,0.0,0.0,0.0,0.0,0.0,0.0,0.0,0.0,0.0,0.0,3.286,3.2687,3.2173,3.1146,3.0925,3.0283,2.903,2.9227,2.9245,2.8994,2.8994,2.8994,2.9017,2.916,2.9228,2.923,2.9626,2.9809,2.9906,0.0,3.2711,3.3467,3.2448,3.2096,3.2135,3.1168,3.1604,3.2776,3.2776,3.2833,3.3103,3.4603,3.493,3.4782,3.5259,3.5088,3.4734,3.4907,3.4423,3.3805,3.3944,3.3303,3.2394,3.1458,3.1311,3.1164,3.0246,3.0632,3.0797,2.9305,2.9549,2.9824,2.9122,2.8994,2.8905,2.854,2.7989,2.7429,2.6834,2.559,2.4572,2.4271,2.3589,2.3093,2.3063,2.3063,2.294,2.266,2.2634,2.2537,2.2293,2.231,2.231,2.231,2.231,2.2282,2.218,2.2254,2.2254,2.218,2.218,2.218,2.218,2.2135,2.2106,2.032,2.0576,2.087,2.0935,2.1293,2.1658,2.1658,2.1622,0.0,0.0,0.0,0.0,0.0,0.0,0.0,0.0,0.0,0.0,0.0,0.0,0.0,0.0,0.0,0.0,0.0,0.0,3.3998,3.35,3.2514,3.1648,3.0898,3.0309,2.9702,2.9017,2.8994,2.8994,2.8994,2.8994,2.8994,2.8994,2.8994,2.9127,2.9393,2.9606,3.0333,3.1482,0.0,3.2872,3.2626,3.2779,3.2795,3.2685,3.2172,3.291,3.4295,3.4295,3.4295,3.443,3.5218,3.5493,3.5493,3.5493,3.5187,3.4718,3.4301,3.3811,3.321,3.246,3.2736,3.3073,3.2265,3.2045,3.1843,3.1035,3.0797,3.0558,2.9824,2.9604,2.9457,2.9067,2.8994,2.8929,2.8749,2.821,2.7698,2.7381,2.6091,2.5056,2.4705,2.3803,2.3189,2.3189,2.3045,2.2873,2.2721,2.2695,2.2573,2.2338,2.231,2.231,2.231,2.231,2.231,2.231,2.231,2.231,2.231,2.231,2.231,2.231,2.231,2.231,2.0328,2.0476,2.0779,2.1386,2.1891,2.2392,2.2975,2.3109,2.2975,0.0,0.0,0.0,0.0,2.5725,0.0,0.0,0.0,0.0,0.0,0.0,0.0,0.0,0.0,0.0,0.0,3.4374,3.3911,3.3452,3.2112,3.1147,3.0787,2.9963,2.9395,2.9163,2.9067,2.8994,2.8994,2.8994,2.8994,2.8994,2.8994,2.9182,2.954,2.954,3.0443,3.2045,3.3263,3.3322,3.2555,3.3165,3.3582,3.3748,3.2932,3.3791,3.5493,3.5493,3.5493,3.5493,3.5493,3.5493,3.5493,3.5493,3.5235,3.4717,3.379,3.3208,3.2618,3.1254,3.2162,3.3293,3.2302,3.2192,3.2173,3.1549,3.1219,3.0889,3.032,2.9861,2.9457,2.9067,2.8994,2.8952,2.8881,2.8439,2.8058,2.7954,2.6808,2.5798,2.5343,2.4361,2.3611,2.3341,2.3021,2.2746,2.2625,2.2643,2.2625,2.2415,2.2321,2.231,2.231,2.231,2.231,2.231,2.231,2.231,2.231,2.231,2.231,2.231,2.231,2.231,2.0418,2.0989,2.1603,2.1681,2.1119,2.1172,2.3482,2.4004,2.4196,2.4889,0.0,0.0,0.0,2.664,0.0,0.0,0.0,0.0,0.0,0.0,0.0,0.0,0.0,0.0,3.3977,3.3851,3.3083,3.128,3.1017,3.0603,2.9829,2.9608,2.9551,2.9643,2.9228,2.8994,2.8994,2.8994,2.8994,2.8994,2.8994,2.9012,2.9053,2.9053,2.9136,2.9443,3.2483,3.4341,3.5067,3.3125,3.3508,3.5042,3.1863,3.2606,3.5493,3.5493,3.5493,3.5493,3.5493,3.5493,3.5493,3.5493,3.5235,3.4753,3.4001,3.3252,3.2514,3.1879,3.2186,3.2339,3.0779,3.0925,3.1458,3.1403,3.2485,3.2926,3.0687,3.0742,3.0797,2.9287,2.8994,2.8863,2.8515,2.8694,2.879,2.8424,2.7953,2.7346,2.6591,2.5745,2.4837,2.3765,2.3369,2.2958,2.2377,2.2563,2.2695,2.2669,2.2453,2.231,2.231,2.231,2.231,2.231,2.231,2.231,2.231,2.231,2.231,2.231,2.231,2.231,2.0418,2.1396,2.2339,2.1822,2.1859,2.2668,2.5144,2.5716,2.5648,2.5415,2.6824,0.0,0.0,0.0,0.0,0.0,0.0,0.0,0.0,0.0,0.0,0.0,0.0,0.0,3.4084,3.341,3.2692,3.1963,3.1167,3.0716,3.0696,3.0014,2.9782,3.0128,2.981,2.9712,2.9864,2.9583,2.9583,2.9864,2.9272,2.8994,2.8994,2.8994,3.0474,3.3102,3.4319,3.5102,3.5441,3.4585,3.314,3.1404,3.0672,3.1203,3.259,3.4705,3.5493,3.5493,3.5493,3.5493,3.5273,3.3914,3.3665,3.3669,3.2439,3.2067,3.196,3.1254,3.1441,3.1825,3.1733,3.1916,3.2265,3.2761,3.221,3.1458,3.1035,3.0393,2.9732,2.9104,2.8994,2.8952,2.8797,2.8905,2.8952,2.8815,2.8233,2.7677,2.7383,2.6023,2.499,2.4782,2.3831,2.3111,2.2883,2.2607,2.2436,2.2436,2.25,2.2537,2.2537,2.2388,2.231,2.231,2.231,2.253,2.2987,2.253,2.2547,2.2987,2.2987,2.2987,2.0817,2.1646,2.2449,2.2152,2.2544,2.3785,2.6812,2.7312,2.7199,2.7384,2.8338,2.9224,2.9478,0.0,0.0,0.0,0.0,0.0,0.0,0.0,0.0,0.0,0.0,3.4391,3.3833,3.3077,3.2397,3.1881,3.0776,3.0385,3.0973,3.0331,3.0071,3.0398,3.0225,3.0206,3.0398,3.009,3.009,3.0398,2.9748,2.9293,2.8994,2.8994,3.1391,3.5493,3.5493,3.5304,3.4943,3.4943,3.2781,2.9513,3.0151,3.1052,3.2282,3.4628,3.5493,3.5493,3.5493,3.5493,3.5254,3.3729,3.32,3.2883,3.1487,3.1179,3.1129,3.0327,3.054,3.1146,3.1715,3.2228,3.2816,3.3605,3.254,3.1347,3.1384,3.0522,2.9622,2.9085,2.8994,2.8994,2.8994,2.8994,2.8994,2.8994,2.8539,2.8081,2.7824,2.6644,2.5681,2.5278,2.4226,2.3584,2.3584,2.3189,2.3035,2.3285,2.3377,2.3162,2.2607,2.2415,2.231,2.231,2.253,2.2902,2.3393,2.3122,2.3241,2.3748,2.3748,2.3748,2.1687,2.1707,2.1905,2.2694,0.0,0.0,2.8251,2.8628,2.8804,3.1297,3.0466,2.9541,3.0279,3.0398,0.0,0.0,0.0,0.0,0.0,0.0,0.0,0.0,0.0,3.4795,3.3064,3.2872,3.2199,3.0513,2.9583,2.9467,3.034,3.0379,3.0379,3.0379,3.0379,3.0398,3.0398,3.0398,3.0398,3.0398,3.0398,2.9912,2.8998,2.9017,3.1372,3.5435,3.5488,3.4832,3.3752,3.3752,3.2437,3.0398,3.0398,3.2455,3.5468,3.5474,3.5493,3.5493,3.5493,3.5493,3.5493,3.5493,3.428,3.2608,3.1516,3.0724,3.0026,2.9237,2.9604,3.021,3.021,3.1403,3.2797,3.3587,3.377,3.333,3.1733,3.1366,3.0907,2.9305,2.8994,2.8994,2.8994,2.8994,2.8994,2.8994,2.8994,2.8723,2.7897,2.7787,2.7076,2.5127,2.4611,2.4399,2.4399,2.435,2.4643,2.5428,2.5167,2.4179,2.2395,2.2327,2.2327,2.2327,2.3038,2.341,2.341,2.4137,2.4506,2.4523,2.4523,2.4523,2.0904,2.2166,0.0,2.3057,0.0,0.0,0.0,2.8581,0.0,0.0,3.0956,3.0432,3.1187,0.0,0.0,0.0,0.0,0.0,0.0,0.0,0.0,0.0,3.3179,3.2622,3.2102,3.1506,3.0948,3.0436,2.9455,2.906,2.9467,2.934,2.9251,2.9206,2.9975,3.0398,3.0398,3.0398,3.0398,3.0398,3.0398,3.0241,2.9962,2.9314,3.0076,3.2051,3.4455,3.3559,3.0459,3.1129,3.1011,3.0398,3.0398,3.1013,3.2186,3.4609,3.5493,3.5493,3.5493,3.5493,3.5493,3.5493,3.4586,3.3018,3.0434,2.9494,2.942,2.9747,3.041,3.1054,3.1042,3.1403,3.1825,3.2045,3.1678,3.1146,3.0668,3.0118,2.9751,2.9843,2.9843,2.9843,2.9843,2.9843,2.9659,2.9085,2.8994,2.8723,2.7897,2.7787,2.7361,2.6231,2.5536,2.5171,2.5171,2.4708,2.4533,2.4768,2.4684,2.4496,2.4196,2.3964,2.3833,2.3833,2.4052,2.4425,2.4949,2.4644,2.4763,2.527,2.527,2.5076,2.1889,2.3108,0.0,2.4418,2.6455,2.8734,2.997,0.0,0.0,0.0,3.2474,3.1863,3.2607,3.217,0.0,0.0,0.0,0.0,0.0,0.0,3.2891,3.2891,3.2468,3.2045,3.1737,3.091,3.0256,2.991,2.8663,2.8133,2.8602,2.8279,2.8267,2.8687,2.8917,2.9475,3.0379,2.9737,2.9063,2.836,2.836,2.9091,3.0367,2.9815,2.9864,3.0513,3.2571,3.197,2.9607,3.0174,3.0398,3.0398,3.0398,3.0398,3.0648,3.2705,3.3455,3.3455,3.3455,3.3455,3.3455,3.3455,3.3318,3.2649,2.9848,2.8994,2.9108,2.9577,3.0079,3.0441,3.0448,3.0448,3.0613,3.1237,3.1017,3.0595,3.0265,2.9824,2.9622,3.0118,3.021,3.0301,3.0613,3.0687,3.0503,3.0026,2.9696,2.92,2.8374,2.8282,2.797,2.7163,2.6685,2.6343,2.6175,2.5677,2.5446,2.5603,2.5482,2.5482,2.5682,2.4904,2.4506,2.4506,2.478,2.5152,2.5609,2.5439,2.5592,2.6048,2.6048,2.5849,2.3653,2.4198,2.4709,2.6319,2.8094,0.0,3.1767,3.339,3.4717,3.549,0.0,3.3531,3.4168,3.2883,3.1948,0.0,0.0,0.0,0.0,0.0,3.2679,3.2679,3.2679,3.2372,3.166,3.0794,2.9948,2.9159,2.7544,2.6948,2.7736,2.7274,2.7418,2.836,2.7687,2.8148,2.9917,2.8429,2.6871,2.5303,2.5303,2.6918,2.9936,3.0263,3.0398,3.0398,3.0398,3.0398,3.0398,3.0299,3.0311,3.0398,3.0398,3.0398,3.0398,3.0398,3.0398,3.0398,3.0398,3.0398,3.0398,3.0398,3.108,3.1538,2.9577,2.9195,2.936,2.9067,2.8994,2.8994,2.8994,2.8994,2.9384,3.0834,3.1182,3.098,3.0246,3.0099,3.0118,3.0191,3.0265,3.054,3.1256,3.1458,3.1458,3.1311,3.0668,2.9916,2.9085,2.8994,2.8723,2.7989,2.7875,2.7702,2.7344,2.697,2.6929,2.7282,2.6939,2.6691,2.6691,2.5389,2.4709,2.4709,2.5355,2.571,2.571,2.637,2.6691,2.6691,2.6691,2.6691,2.2246,2.3799,0.0,0.0,2.9078,3.1909,3.4436,3.4748,3.4335,3.3746,3.393,3.4221,3.4214,3.2839,3.1756,0.0,0.0,0.0,0.0,0.0,3.0948,3.0948,3.0948,3.0871,3.0698,2.989,2.9294,2.9102,2.7544,2.6678,2.6871,2.6967,2.6687,2.6053,2.8398,2.861,2.6418,2.6033,2.5668,2.5303,2.5303,2.5687,2.6495,2.9167,3.0398,3.0398,3.0398,3.0398,3.0343,2.9607,2.9731,3.0398,3.0398,3.0398,3.0398,3.0398,3.0398,3.0398,3.0398,3.0398,3.0398,3.0398,3.0084,2.9596,2.9145,3.076,3.2247,2.9714,2.8994,2.8994,2.8994,2.8994,2.9085,2.9439,2.9531,2.9475,2.931,2.925,2.9457,3.0081,3.0705,3.1201,3.1366,3.1916,3.1916,3.065,3.032,2.9916,2.9085,2.8994,2.892,2.8778,2.8452,2.8243,2.8149,2.7558,2.7222,2.7286,2.6939,2.6691,2.6691,2.6387,2.6218,2.6218,2.637,2.6454,2.6454,2.6623,2.6691,2.6691,2.6691,2.6505,2.2713,0.0,0.0,2.8061,0.0,3.2329,3.4183,3.4257,3.3757,3.3122,3.3802,3.4443,3.429,3.2856,3.1698,0.0,0.0,0.0,0.0,3.0398,3.0256,2.9833,2.966,2.9486,2.9236,2.8409,2.789,2.789,2.6717,2.5986,2.5986,2.611,2.5899,2.5322,2.7033,2.7091,2.5322,2.5303,2.5303,2.5303,2.5303,2.5303,2.5418,2.8841,3.0398,3.0398,3.0398,3.0398,3.0355,2.9864,2.9962,3.0398,3.0398,3.0398,3.0398,3.0398,3.0398,3.0398,3.0398,3.0398,3.0398,3.0398,2.9765,2.8994,2.8994,3.0173,3.1164,2.9452,2.8994,2.8994,2.8994,2.8994,2.8994,2.8994,2.8994,2.8994,2.8994,2.8994,2.9232,3.0044,3.0852,3.1384,3.1384,3.1751,3.1604,3.0393,3.021,2.9916,2.9085,2.8994,2.8929,2.8749,2.854,2.8246,2.7901,2.7512,2.721,2.7019,2.6825,2.6691,2.6691,2.6691,2.6691,2.6691,2.6691,2.6691,2.6691,2.6691,2.6691,2.6691,2.6691,2.6741,2.3379,0.0,2.5495,2.943,3.0856,0.0,3.275,3.282,3.2659,3.2779,3.3468,3.4003,3.3887,3.2543,3.1429,3.1275,0.0,0.0,2.9987,2.9967,2.9698,2.8967,2.8698,2.8448,2.814,2.7198,2.6659,2.6813,2.589,2.5303,2.5303,2.5303,2.5303,2.5303,2.5303,2.5303,2.5303,2.5303,2.5303,2.5303,2.5303,2.5303,2.5399,2.8225,2.984,3.0379,3.0102,3.0129,3.0398,3.0398,3.0398,3.0398,3.0398,3.0398,3.0398,3.0398,3.0398,3.0398,3.0398,3.0398,3.0367,3.0215,2.9643,2.8994,2.8994,2.8994,2.8994,2.8994,2.8994,2.8994,2.8994,2.8994,2.8994,2.8994,2.8994,2.8994,2.8994,2.8994,2.9195,2.9861,3.0742,3.1476,3.177,3.1806,3.1476,3.0558,3.0411,3.0081,2.9104,2.9104,2.8985,2.8464,2.8528,2.8309,2.756,2.7378,2.7178,2.6939,2.6791,2.6691,2.6691,2.6691,2.6691,2.6691,2.6691,2.6691,2.6691,2.6691,2.6691,2.6691,2.6691,2.7097,2.2044,0.0,2.619,0.0,2.9203,2.9325,0.0,0.0,3.0331,0.0,3.2143,3.2213,3.2069,3.1249,3.0333,2.9563,2.9352,2.9025,2.8332,2.8236,2.8179,2.8063,2.8025,2.8255,2.8871,2.7525,2.6909,2.7659,2.6217,2.5303,2.5303,2.5303,2.5303,2.5303,2.5303,2.5303,2.5303,2.5303,2.5303,2.5303,2.5303,2.5303,2.5322,2.5764,2.7591,3.0321,2.8852,2.9063,3.0398,3.0398,3.0398,3.0398,3.0398,3.0398,3.0398,3.0398,3.0398,3.0398,3.0398,3.0398,3.0273,2.9456,2.9093,2.8994,2.8994,2.8994,2.8994,2.8994,2.8994,2.8994,2.8994,2.8994,2.8994,2.8994,2.8994,2.8994,2.8994,2.8994,2.9012,2.9122,3.0375,3.1843,3.3238,3.3476,3.2963,3.1458,3.1237,3.0705,2.92,2.9622,2.9631,2.8518,2.9016,2.9115,2.8326,2.766,2.7426,2.7725,2.7083,2.6691,2.6691,2.6691,2.6691,2.6691,2.6691,2.6691,2.6691,2.6691,2.6691,2.6691,2.6691,2.7097,2.1905,2.3846,2.5977,0.0,2.7576,2.8062,2.9238,0.0,2.8976,2.9671,2.9823,2.9916,3.0231,2.9988,2.9477,2.867,2.8543,2.841,2.8,2.7624,2.7332,2.7198,2.6736,2.6582,2.6948,2.6313,2.6024,2.6409,2.5726,2.5303,2.5303,2.5303,2.5303,2.5303,2.5303,2.5303,2.5303,2.5303,2.5303,2.5303,2.5303,2.5303,2.5303,2.5303,2.7168,3.0302,2.8626,2.8856,3.0244,2.8321,2.7533,2.7725,2.9648,3.0398,3.0398,3.0398,3.0398,3.0398,3.0398,3.0398,3.0343,2.9912,2.9436,2.8994,2.8994,2.8994,2.8994,2.8994,2.8994,2.8994,2.8994,2.8994,2.8994,2.8994,2.8994,2.8994,2.8994,2.8994,2.925,3.0173,3.0558,3.1237,3.2852,3.2742,3.221,3.1494,3.1384,3.098,2.9824,2.9989,2.9741,2.8536,2.8727,2.8702,2.8165,2.7823,2.7707,2.7897,2.7365,2.7036,2.7036,2.6808,2.6691,2.6691,2.6691,2.6691,2.6691,2.6691,2.6691,2.6708,2.7131,2.774,0.0,0.0,2.5156,2.5586,2.6348,2.7031,0.0,0.0,2.7651,0.0,2.7846,2.7935,2.8209,2.8617,2.866,2.7892,2.7762,2.7666,2.7399,2.6917,2.6516,2.6323,2.5717,2.538,2.561,2.5418,2.538,2.561,2.5418,2.5303,2.5303,2.5303,2.5303,2.5303,2.5303,2.5303,2.5303,2.5303,2.5303,2.5303,2.5303,2.5303,2.5303,2.5303,2.6687,2.9033,2.7788,2.7942,2.8898,2.6341,2.5803,2.6841,2.9398,3.0398,3.0398,3.0398,3.0398,3.0398,3.0398,3.0398,3.0398,3.0398,2.9931,2.9314,2.9067,2.8994,2.9044,2.9293,2.9185,2.8994,2.8994,2.8994,2.8994,2.8994,2.8994,2.8994,2.8994,2.8994,2.9494,3.1091,3.0742,3.0705,3.2339,3.1935,3.1329,3.1127,3.1091,3.0797,3.0008,3.0081,2.9741,2.8536,2.8582,2.8505,2.7943,2.7811,2.7754,2.7754,2.7348,2.7147,2.7147,2.6873,2.6691,2.6691,2.6691,2.6691,2.6691,2.6691,2.6793,2.6996,2.7554,2.8332,0.0,2.2704,0.0,2.5293,2.5742,0.0,0.0,0.0,0.0,0.0,2.6875,2.6631,2.5834,2.7048,2.7879,2.701,2.6873,2.6587,2.5756,2.5557,2.5483,2.5464,2.5367,2.561,2.6447,2.5783,2.563,2.6467,2.5774,2.5303,2.5303,2.5303,2.5303,2.5303,2.5303,2.5303,2.5303,2.5303,2.5303,2.5303,2.5303,2.5303,2.5303,2.5303,2.5399,2.5553,2.5476,2.5476,2.5553,2.536,2.7206,3.0148,3.0321,3.0398,3.0398,3.0398,3.0398,3.0398,3.0398,3.0398,3.0398,3.0398,3.0367,3.0155,2.9272,2.8994,2.9185,3.0085,2.9696,2.8994,2.8994,2.8994,2.8994,2.8994,2.8994,2.8994,2.8994,2.8994,2.9494,3.1091,3.0742,3.0705,3.2339,3.1935,3.1127,3.0375,3.0265,2.9971,2.9159,2.9732,2.9741,2.8536,2.907,2.908,2.7979,2.753,2.7317,2.7317,2.6954,2.6725,2.6725,2.6725,2.6691,2.6691,2.6691,2.6691,2.6691,2.6691,2.7063,2.7722,2.7772,2.8619,0.0,0.0,0.0,2.2265,2.3534,2.4509,2.4082,2.4862,2.5582,2.5322,2.5709,2.5996,2.5626,2.6529,2.7062,2.6232,2.6097,2.5976,2.5603,2.5517,2.5453,2.542,2.5348,2.5418,2.5736,2.5476,2.5418,2.5726,2.5476,2.5303,2.5303,2.5303,2.5303,2.5303,2.5303,2.5303,2.5303,2.5303,2.5303,2.5303,2.5303,2.5303,2.5303,2.5303,2.5303,2.5303,2.5303,2.5303,2.5303,2.5303,2.7302,3.0167,2.7975,2.8456,3.0398,3.0398,3.0398,3.0398,3.0398,3.0398,3.0398,3.0398,3.0398,3.0343,3.0007,2.9896,2.9977,3.0318,3.0174,2.9765,2.916,2.8994,2.8994,2.8994,2.8994,2.8994,2.8994,2.942,3.0099,3.1182,3.1586,3.21,3.3183,3.2706,3.2082,3.1788,3.1292,3.0687,2.9879,3.0026,2.9831,2.8888,2.8819,2.8657,2.8255,2.8322,2.8368,2.8368,2.8014,2.7789,2.7789,2.708,2.6691,2.6691,2.6691,2.6691,2.6691,2.6691,2.708,2.7806,2.8332,2.9127,2.051,0.0,0.0,0.0,0.0,2.3356,2.3066,0.0,2.5176,2.4861,2.5273,2.5683,2.5607,2.6095,2.6317,2.5758,2.5683,2.5683,2.5636,2.559,2.5517,2.5447,2.5368,2.5312,2.5293,2.5303,2.5303,2.5303,2.5303,0.0,2.5303,2.5303,2.5303,2.5303,2.5303,2.5303,2.5303,2.5303,2.5303,2.5303,2.5303,2.5303,2.5303,2.5303,2.5303,2.5303,2.5303,2.5303,2.5303,2.5303,2.6629,2.8571,2.7437,2.8398,3.0398,3.0398,3.0398,3.0398,3.0398,3.0398,3.0398,3.0398,3.0398,3.0398,3.0398,3.0398,3.0398,3.0398,3.0398,3.0188,2.923,2.8994,2.8994,2.8994,2.8994,2.8994,2.8994,2.9439,3.0044,3.0834,3.1439,3.2063,3.2852,3.2559,3.221,3.221,3.1513,3.0797,3.0265,2.9971,2.9604,2.9049,2.8869,2.8648,2.8255,2.8818,2.9008,2.8621,2.8591,2.8596,2.8596,2.7879,2.7334,2.708,2.7334,2.7215,2.6691,2.6945,2.7469,2.823,2.8991,2.9677,0.0,0.0,0.0,0.0,0.0,0.0,2.3984,0.0,2.4608,2.5373,2.562,2.5683,2.5607,2.5659,2.5683,2.5605,2.5659,2.5703,2.5703,2.5637,2.5587,2.5517,2.5441,2.5379,2.5322,2.5303,2.5303,2.5303,2.5303,2.5303,2.5303,2.5303,2.5303,2.5303,2.5303,2.5303,2.5303,2.5303,2.5303,2.5303,2.5303,2.5303,2.5303,2.5303,2.5303,2.5303,2.5303,2.5303,2.5303,2.5303,2.5303,2.563,2.9052,3.0398,3.0398,3.0398,3.0398,3.0398,3.0398,3.0398,3.0398,3.0398,3.0398,3.0398,3.0398,3.0398,3.0398,3.0398,3.0386,3.0142,2.9249,2.8994,2.8994,2.8994,2.8994,2.8994,2.8994,2.8994,2.9232,3.0081,3.0246,3.0522,3.1329,3.1439,3.1421,3.1421,3.0742,3.0228,3.021,2.9531,2.903,2.903,2.9352,2.9115,2.805,2.8931,2.9059,2.7927,2.8621,2.9064,2.9011,2.9011,2.8655,2.784,2.8602,2.8247,2.6759,2.7503,2.8247,2.9045,2.9786,3.0208,2.0565,0.0,0.0,0.0,0.0,0.0,0.0,0.0,0.0,2.3944,2.4843,2.5683,2.5607,2.5659,2.5683,2.5605,2.5659,2.5703,2.5703,2.5637,2.5587,2.5517,2.5447,2.5368,2.5322,2.5303,2.5303,0.0,2.5303,2.5303,2.5303,2.5303,2.5303,2.5303,2.5303,2.5303,2.5303,2.5303,2.5303,2.5303,2.5303,2.5303,2.5303,2.5303,2.5303,2.5303,2.5303,2.5303,2.5303,2.5303,2.5303,2.563,2.9052,3.0398,3.0398,3.0398,3.0398,3.0398,3.0398,3.0398,3.0398,3.0398,3.0398,3.0398,3.0398,3.0398,3.0398,3.0398,2.9896,2.9334,2.9067,2.8994,2.8994,2.8994,2.8994,2.8994,2.8994,2.8994,2.942,3.0797,3.1549,3.2192,3.2999,3.2651,3.2284,3.2284,3.1586,3.0852,3.0265,3.0008,2.9765,2.9471,2.9006,2.8963,2.952,2.9828,2.986,2.9554,3.0287,3.0314,2.9403,2.942,2.9196,2.867,2.8873,2.8808,2.8349,2.8552,2.8772,2.9008,3.0294,3.0909,0.0,0.0,0.0,0.0,0.0,0.0,2.1582,2.2793,2.3926,0.0,2.5019,2.5683,2.5658,2.5662,2.5683,2.5658,2.5662,2.5703,2.5703,2.5661,2.5605,2.5503,2.5477,2.5394,2.5303,2.5303,2.5303,2.5303,2.5303,2.5303,2.5303,2.5303,2.5303,2.5303,2.5303,2.5303,2.5303,2.5303,2.5303,2.5303,2.5303,2.5303,2.5303,2.5303,2.5303,2.5303,2.5303,2.5303,2.5303,2.5303,2.5303,2.563,2.9052,3.0398,3.0398,3.0398,3.0398,3.0398,3.0398,3.0398,3.0148,2.8744,2.828,2.8533,2.9963,2.9398,2.8264,2.8264,2.8621,2.8994,2.8994,2.8994,2.8994,2.8994,2.8994,2.8994,2.8994,2.8994,2.9292,3.0228,3.1054,3.1751,3.2228,3.2485,3.2614,3.2614,3.221,3.1604,3.0797,3.0411,2.999,2.9421,2.9086,2.9197,2.9898,3.0396,3.0676,3.0707,3.124,3.1218,3.0491,3.0315,2.9997,2.9448,2.9753,2.9905,2.9905,2.96,2.9617,2.9922,3.0784,3.119,0.0,0.0,0.0,0.0,0.0,0.0,2.248,2.2891,2.3418,0.0,0.0,2.541,2.541,2.543,2.543,2.541,2.5488,2.5586,2.5684,2.5683,2.5637,2.5526,2.5484,2.5441,2.5313,2.5303,2.5303,2.5303,2.5303,2.5303,2.5303,2.5303,2.5303,2.5303,2.5303,2.5313,2.5313,2.533,2.5321,2.5303,2.5303,2.5303,2.5303,2.5303,2.5303,2.5303,2.5303,2.5303,2.5303,2.5303,2.5303,2.563,2.9052,3.0167,2.9821,2.9821,3.0071,3.0398,3.0398,3.0148,2.9398,2.6726,2.5606,2.5865,2.8914,2.7975,2.585,2.5738,2.7298,2.8994,2.8994,2.8994,2.8994,2.8994,2.8994,2.8994,2.8994,2.8994,2.8994,2.8994,2.9732,3.0356,3.0448,3.1733,3.2706,3.2614,3.2614,3.2284,3.1366,3.0632,2.991,2.9148,2.9359,2.9638,2.9854,3.0767,3.1369,3.152,3.1791,3.1881,3.1758,3.1435,3.0925,3.0243,3.0869,3.119,3.119,3.0463,3.048,3.119,3.119,3.119,0.0,0.0,0.0,0.0,0.0,0.0,2.1016,2.1621,2.2227,0.0,2.3164,2.3613,2.3613,2.3652,2.3672,2.3613,2.4155,2.4834,2.5586,2.5659,2.5595,2.5517,2.5453,2.5383,2.5303,2.5303,2.5303,2.5303,2.5303,2.5303,2.5303,2.5303,2.5303,2.5303,2.539,2.5452,2.5452,2.557,2.5517,2.5303,2.5303,2.5303,2.5303,2.5303,2.5303,2.5303,2.5303,2.5303,2.5303,2.5303,2.5303,2.563,2.9052,2.8706,2.6303,2.6303,2.8033,3.0398,3.0398,2.8591,2.6629,2.8725,2.7542,2.5417,2.6091,2.7745,2.9251,2.8484,2.8618,2.8994,2.8994,2.8994,2.8994,2.8994,2.8994,2.8994,2.8994,2.8994,2.8994,2.8994,3.0173,3.1366,3.2027,3.2926,3.3348,3.2706,3.2614,3.2082,3.0613,3.0301,3.0015,2.951,2.9271,2.9787,3.1408,3.1429,3.1654,3.2311,3.2733,3.246,3.1434,3.1567,3.1476,3.0987,3.1123,3.119,3.119,3.0463,3.048,3.119,3.119,3.119,0.0,0.0,0.0,2.0703,0.0,0.0,0.0,2.1582,2.2011,2.2421,2.2812,2.3104,2.3103,0.0,2.3183,2.3105,2.3805,2.4351,2.4394,2.5088,2.5595,2.5554,2.5526,2.5465,2.5363,2.5337,2.533,2.5293,2.5303,2.5303,2.5303,2.5303,2.5303,2.5303,2.5422,2.5517,2.5547,2.5615,2.5595,2.5503,2.5428,2.5434,2.5484,2.5363,2.5303,2.5303,2.5303,2.5303,2.5303,2.5303,2.5303,2.5476,2.7187,2.6802,2.5514,2.7206,2.8917,3.0398,3.0398,2.8148,2.5572,2.7302,2.7841,2.7533,2.5822,2.7369,2.9268,2.7202,2.7746,2.8994,2.8994,2.8994,2.8994,2.8994,2.8994,2.8994,2.8994,2.8994,2.8994,2.8994,2.9989,3.0925,3.1329,3.1751,3.2008,3.2008,3.2008,3.1568,3.0356,3.021,2.9972,2.9355,2.9119,2.971,3.1546,3.1521,3.1898,3.3128,3.3219,3.2804,3.1933,3.183,3.1603,3.119,3.119,3.119,3.119,3.0835,3.0835,3.119,3.119,3.119,0.0,0.0,0.0,0.0,0.0,2.0996,0.0,0.0,0.0,2.2517,2.2614,0.0,0.0,0.0,0.0,0.0,0.0,0.0,0.0,2.4141,0.0,2.5105,2.5378,2.5465,2.5208,2.5168,2.5201,2.5312,2.5159,2.5139,2.5303,2.5322,2.5331,2.5339,2.5453,2.5547,2.5603,2.5612,2.5652,2.5703,2.5595,2.5598,2.5683,2.5482,2.5387,2.536,2.5331,2.5303,2.5303,2.5303,2.5303,2.5303,2.5303,2.5303,2.563,2.8398,2.9417,2.9417,2.9417,2.761,2.5303,2.5303,2.7168,2.8898,2.613,2.6711,2.7855,2.5737,2.6998,2.8994,2.8994,2.8994,2.8994,2.8994,2.8994,2.8994,2.8994,2.8994,2.8994,2.8994,2.9531,3.0026,3.0173,3.0338,3.0595,3.1091,3.1164,3.087,3.0081,2.9971,2.9732,2.9067,2.8994,2.9659,3.1256,3.1384,3.2082,3.3697,3.3419,3.2983,3.2517,3.1968,3.1545,3.119,3.119,3.119,3.119,3.119,3.119,3.119,3.119,3.119,0.0,0.0,0.0,0.0,2.1758,0.0,0.0,0.0,2.1719,2.1016,0.0,0.0,0.0,0.0,0.0,0.0,0.0,0.0,2.1954,2.2734,2.3295,2.3295,2.4611,2.5192,2.4411,2.4347,2.4633,2.534,2.4675,2.4563,2.5345,2.5383,2.5427,2.5482,2.5547,2.5593,2.5598,2.5659,2.5683,2.5703,2.5683,2.5683,2.5703,2.5662,2.5659,2.5636,2.5406,2.5303,2.5303,2.5303,2.5303,2.5303,2.5303,2.5303,2.5341,2.5745,2.588,2.588,2.588,2.563,2.5303,2.5303,2.5553,2.5803,2.5418,2.5501,2.6098,2.7948,2.87,2.8994,2.8994,2.8994,2.8994,2.8994,2.8994,2.8994,2.8994,2.8994,2.8994,2.8994,2.9067,2.9365,3.0081,3.0797,3.1035,3.043,3.0338,3.0063,2.9232,2.9122,2.9085,2.8994,2.8994,2.9659,3.1256,3.1384,3.2082,3.3697,3.3419,3.2983,3.2517,3.1731,3.1269,3.119,3.119,3.119,3.119,3.119,3.119,3.119,3.119,3.119,0.0,0.0,0.0,0.0,0.0,0.0,2.1617,0.0,2.1611,0.0,0.0,0.0,0.0,0.0,0.0,0.0,2.1243,0.0,0.0,0.0,2.3003,0.0,0.0,0.0,2.4241,2.4686,2.5077,2.5381,2.5062,2.5016,2.5379,2.5406,2.5428,2.5508,2.5561,2.5601,2.5601,2.5661,2.5703,2.5703,2.5703,2.5703,2.5703,2.5703,2.5703,2.5683,2.557,2.5535,2.5526,2.5363,2.5303,2.5303,2.5303,2.5303,2.5303,2.5303,2.5303,2.5303,2.5303,2.5303,2.5303,2.5303,2.5303,2.5668,2.7648,2.686,2.5924,2.8947,2.9416,2.9072,2.9333,2.9182,2.9053,2.9182,2.9252,2.9291,2.9246,2.9225,2.9225,2.9225,2.9112,2.9104,2.9457,2.9787,3.0063,3.0173,2.9806,2.936,2.903,2.8994,2.8994,2.8994,2.8994,2.9475,3.0613,3.0705,3.1384,3.2999,3.3164,3.2983,3.2517,3.1878,3.1449,3.119,3.119,3.119,3.119,3.119,3.119,3.119,3.119,3.119,2.4559,0.0,0.0,0.0,0.0,0.0,0.0,0.0,0.0,0.0,0.0,0.0,0.0,0.0,0.0,0.0,0.0,2.1185,0.0,0.0,0.0,0.0,0.0,0.0,0.0,2.4487,2.4885,2.5066,2.5057,2.5154,2.5421,2.5428,2.5477,2.5554,2.5603,2.5633,2.5633,2.5682,2.5703,2.5703,2.5703,2.5703,2.5703,2.5703,2.5703,2.5703,2.5703,2.5703,2.5683,2.5498,2.5371,2.5303,2.5303,2.5303,2.5303,2.5303,2.5303,2.5303,2.5303,2.5303,2.5303,2.5303,2.5303,2.5764,2.8245,2.7918,2.7225,2.9687,2.9731,2.914,2.9727,2.9639,2.9395,2.9509,2.9531,2.9513,2.9474,2.9474,2.9474,2.9474,2.927,2.9112,2.9112,2.9044,2.9195,2.9787,2.9384,2.8994,2.8994,2.8994,2.8994,2.8994,2.8994,2.9347,3.0136,3.021,3.0889,3.2504,3.3001,3.2983,3.2517,3.2057,3.1603,3.119,3.119,3.119,3.119,3.119,3.119,3.119,3.119,3.119,0.0,0.0,0.0,2.4588,0.0,0.0,0.0,0.0,2.2818,0.0,0.0,0.0,0.0,0.0,0.0,0.0,0.0,0.0,0.0,0.0,0.0,0.0,0.0,0.0,0.0,2.3104,2.3407,0.0,2.4172,2.4547,2.5445,2.5508,2.5558,2.5683,2.5703,2.5703,2.5703,2.5703,2.5703,2.5703,2.5703,2.5703,2.5703,2.5703,2.5703,2.5703,2.5703,2.5703,2.5703,2.5683,2.5539,2.5303,2.5303,2.5303,2.5303,2.5303,2.5303,2.5303,2.5303,2.5303,2.5303,2.5303,2.5303,2.5322,2.5418,2.7687,3.0263,3.0359,2.9731,2.9206,3.0133,3.0374,3.0278,2.9958,2.9687,2.9533,2.9661,2.9696,2.9696,2.9696,2.9532,2.9392,2.9392,2.916,2.8994,2.9012,2.9012,2.8994,2.8994,2.8994,2.8994,2.8994,2.8994,2.9347,3.0136,3.021,3.0889,3.2504,3.3001,3.2983,3.2517,3.2057,3.1603,3.119,3.119,3.119,3.119,3.119,3.119,3.119,3.119,3.119,0.0,0.0,2.7885,2.6465,0.0,0.0,0.0,0.0,0.0,0.0,0.0,0.0,0.0,0.0,0.0,0.0,0.0,0.0,0.0,0.0,0.0,0.0,0.0,0.0,0.0,0.0,0.0,0.0,2.467,0.0,2.5489,2.5493,2.5561,2.5703,2.5703,2.5703,2.5703,2.5703,2.5703,2.5703,2.5703,2.5703,2.5703,2.5703,2.5703,2.5703,2.5703,2.5703,2.5703,2.5703,2.5657,2.5547,2.5371,2.5303,2.5303,2.5303,2.5303,2.5303,2.5303,2.5303,2.5303,2.5303,2.5303,2.5303,2.5303,2.611,2.7495,2.9763,2.9731,2.9228,3.0174,3.0398,3.0359,3.0263,3.0151,3.0052,2.9924,2.9908,2.9861,2.9731,2.9551,2.9351,2.9178,2.9044,2.8994,2.8994,2.8994,2.8994,2.8994,2.8994,2.8994,2.8994,2.8994,2.9104,2.936,3.0375,3.1219,3.177,3.293,3.3419,3.2983,3.2809,3.2366,3.1603,3.1603,3.1487,3.119,3.119,3.119,3.119,3.119,3.119,2.7451,2.8022,0.0,2.7637,2.7632,0.0,2.5712,0.0,0.0,0.0,0.0,0.0,0.0,0.0,0.0,0.0,0.0,0.0,0.0,2.0485,0.0,0.0,0.0,0.0,0.0,0.0,0.0,2.4114,2.4633,2.511,0.0,2.5493,2.5561,2.5703,2.5703,2.5703,2.5703,2.5703,2.5703,2.5703,2.5703,2.5703,2.5703,2.5703,2.5703,2.5703,2.5703,2.5703,2.5703,2.5703,2.5703,2.5683,2.5517,2.5376,2.5303,2.5303,2.5303,2.5303,2.5303,2.5303,2.5303,2.5303,2.5303,2.5303,2.5303,2.5303,2.6014,2.9437,2.9958,2.9643,3.0228,3.0398,3.0398,3.0398,3.0398,3.0355,3.0182,3.0136,3.0095,2.9845,2.9643,2.9415,2.9181,2.9067,2.8994,2.8994,2.8994,2.8994,2.8994,2.8994,2.8994,2.8994,2.8994,2.9104,2.9402,3.0632,3.1513,3.1806,3.3073,3.3606,3.3214,3.3214,3.3108,3.2914,3.2336,3.2138,3.2308,3.1722,3.1487,3.1596,3.185,3.1833]}]]